﻿<?xml version="1.0" encoding="utf-8"?><gpx creator="Garmin Desktop App" version="1.1" xsi:schemaLocation="http://www.topografix.com/GPX/1/1 http://www.topografix.com/GPX/1/1/gpx.xsd http://www.garmin.com/xmlschemas/WaypointExtension/v1 http://www8.garmin.com/xmlschemas/WaypointExtensionv1.xsd http://www.garmin.com/xmlschemas/TrackPointExtension/v1 http://www.garmin.com/xmlschemas/TrackPointExtensionv1.xsd http://www.garmin.com/xmlschemas/GpxExtensions/v3 http://www8.garmin.com/xmlschemas/GpxExtensionsv3.xsd http://www.garmin.com/xmlschemas/ActivityExtension/v1 http://www8.garmin.com/xmlschemas/ActivityExtensionv1.xsd http://www.garmin.com/xmlschemas/AdventuresExtensions/v1 http://www8.garmin.com/xmlschemas/AdventuresExtensionv1.xsd http://www.garmin.com/xmlschemas/PressureExtension/v1 http://www.garmin.com/xmlschemas/PressureExtensionv1.xsd http://www.garmin.com/xmlschemas/TripExtensions/v1 http://www.garmin.com/xmlschemas/TripExtensionsv1.xsd http://www.garmin.com/xmlschemas/TripMetaDataExtensions/v1 http://www.garmin.com/xmlschemas/TripMetaDataExtensionsv1.xsd http://www.garmin.com/xmlschemas/ViaPointTransportationModeExtensions/v1 http://www.garmin.com/xmlschemas/ViaPointTransportationModeExtensionsv1.xsd http://www.garmin.com/xmlschemas/CreationTimeExtension/v1 http://www.garmin.com/xmlschemas/CreationTimeExtensionsv1.xsd http://www.garmin.com/xmlschemas/AccelerationExtension/v1 http://www.garmin.com/xmlschemas/AccelerationExtensionv1.xsd http://www.garmin.com/xmlschemas/PowerExtension/v1 http://www.garmin.com/xmlschemas/PowerExtensionv1.xsd http://www.garmin.com/xmlschemas/VideoExtension/v1 http://www.garmin.com/xmlschemas/VideoExtensionv1.xsd" xmlns="http://www.topografix.com/GPX/1/1" xmlns:xsi="http://www.w3.org/2001/XMLSchema-instance" xmlns:wptx1="http://www.garmin.com/xmlschemas/WaypointExtension/v1" xmlns:gpxtrx="http://www.garmin.com/xmlschemas/GpxExtensions/v3" xmlns:gpxtpx="http://www.garmin.com/xmlschemas/TrackPointExtension/v1" xmlns:gpxx="http://www.garmin.com/xmlschemas/GpxExtensions/v3" xmlns:trp="http://www.garmin.com/xmlschemas/TripExtensions/v1" xmlns:adv="http://www.garmin.com/xmlschemas/AdventuresExtensions/v1" xmlns:prs="http://www.garmin.com/xmlschemas/PressureExtension/v1" xmlns:tmd="http://www.garmin.com/xmlschemas/TripMetaDataExtensions/v1" xmlns:vptm="http://www.garmin.com/xmlschemas/ViaPointTransportationModeExtensions/v1" xmlns:ctx="http://www.garmin.com/xmlschemas/CreationTimeExtension/v1" xmlns:gpxacc="http://www.garmin.com/xmlschemas/AccelerationExtension/v1" xmlns:gpxpx="http://www.garmin.com/xmlschemas/PowerExtension/v1" xmlns:vidx1="http://www.garmin.com/xmlschemas/VideoExtension/v1">

  <metadata>
    <link href="http://www.garmin.com">
      <text>Garmin International</text>
    </link>
    <time>2015-06-20T14:26:51Z</time>
    <bounds maxlat="45.866287965327501" maxlon="9.469575053080916" minlat="45.850374083966017" minlon="9.447358315810561" />
  </metadata>

  <trk>
    <name>ferrate-centenario-e-de-franco-silvano2015-06-20</name>
    <extensions>
      <gpxx:TrackExtension>
        <gpxx:DisplayColor>Yellow</gpxx:DisplayColor>
      </gpxx:TrackExtension>
      <gpxtrkx:TrackStatsExtension xmlns:gpxtrkx="http://www.garmin.com/xmlschemas/TrackStatsExtension/v1">
        <gpxtrkx:Distance>10696</gpxtrkx:Distance>
        <gpxtrkx:TotalElapsedTime>14452</gpxtrkx:TotalElapsedTime>
        <gpxtrkx:MovingTime>10651</gpxtrkx:MovingTime>
        <gpxtrkx:StoppedTime>3741</gpxtrkx:StoppedTime>
        <gpxtrkx:MovingSpeed>1</gpxtrkx:MovingSpeed>
        <gpxtrkx:MaxSpeed>5</gpxtrkx:MaxSpeed>
        <gpxtrkx:MaxElevation>1867</gpxtrkx:MaxElevation>
        <gpxtrkx:MinElevation>1076</gpxtrkx:MinElevation>
        <gpxtrkx:Ascent>984</gpxtrkx:Ascent>
        <gpxtrkx:Descent>761</gpxtrkx:Descent>
        <gpxtrkx:AvgAscentRate>0</gpxtrkx:AvgAscentRate>
        <gpxtrkx:MaxAscentRate>0</gpxtrkx:MaxAscentRate>
        <gpxtrkx:AvgDescentRate>0</gpxtrkx:AvgDescentRate>
        <gpxtrkx:MaxDescentRate>-0</gpxtrkx:MaxDescentRate>
      </gpxtrkx:TrackStatsExtension>
    </extensions>
    <trkseg>
      <trkpt lat="45.863908007740974" lon="9.447949407622218">
        <ele>1101.8099999999999</ele>
        <time>2015-06-20T06:08:10Z</time>
      </trkpt>
      <trkpt lat="45.863915719091892" lon="9.447950581088662">
        <ele>1101.8099999999999</ele>
        <time>2015-06-20T06:08:11Z</time>
      </trkpt>
      <trkpt lat="45.86404169909656" lon="9.447836922481656">
        <ele>1104.21</ele>
        <time>2015-06-20T06:08:16Z</time>
      </trkpt>
      <trkpt lat="45.864185700193048" lon="9.447844885289669">
        <ele>1105.1700000000001</ele>
        <time>2015-06-20T06:08:28Z</time>
      </trkpt>
      <trkpt lat="45.864160722121596" lon="9.447761736810207">
        <ele>1104.6900000000001</ele>
        <time>2015-06-20T06:08:39Z</time>
      </trkpt>
      <trkpt lat="45.864150831475854" lon="9.447756120935082">
        <ele>1105.1700000000001</ele>
        <time>2015-06-20T06:08:41Z</time>
      </trkpt>
      <trkpt lat="45.864104060456157" lon="9.447753438726068">
        <ele>1105.1700000000001</ele>
        <time>2015-06-20T06:08:47Z</time>
      </trkpt>
      <trkpt lat="45.864078747108579" lon="9.447780847549439">
        <ele>1105.1700000000001</ele>
        <time>2015-06-20T06:08:49Z</time>
      </trkpt>
      <trkpt lat="45.864029880613089" lon="9.447852345183492">
        <ele>1104.6900000000001</ele>
        <time>2015-06-20T06:08:54Z</time>
      </trkpt>
      <trkpt lat="45.863892249763012" lon="9.447945216670632">
        <ele>1101.8099999999999</ele>
        <time>2015-06-20T06:09:07Z</time>
      </trkpt>
      <trkpt lat="45.86383793503046" lon="9.448046302422881">
        <ele>1099.8900000000001</ele>
        <time>2015-06-20T06:09:15Z</time>
      </trkpt>
      <trkpt lat="45.863838940858841" lon="9.448099695146084">
        <ele>1099.4000000000001</ele>
        <time>2015-06-20T06:09:18Z</time>
      </trkpt>
      <trkpt lat="45.863875318318605" lon="9.448134228587151">
        <ele>1099.4000000000001</ele>
        <time>2015-06-20T06:09:22Z</time>
      </trkpt>
      <trkpt lat="45.864114621654153" lon="9.447974553331733">
        <ele>1097.96</ele>
        <time>2015-06-20T06:09:35Z</time>
      </trkpt>
      <trkpt lat="45.864098612219095" lon="9.447964578866959">
        <ele>1099.4000000000001</ele>
        <time>2015-06-20T06:09:43Z</time>
      </trkpt>
      <trkpt lat="45.864146808162332" lon="9.447908420115709">
        <ele>1099.8900000000001</ele>
        <time>2015-06-20T06:09:54Z</time>
      </trkpt>
      <trkpt lat="45.864124512299895" lon="9.447961309924722">
        <ele>1101.3299999999999</ele>
        <time>2015-06-20T06:10:05Z</time>
      </trkpt>
      <trkpt lat="45.864178240299225" lon="9.447909509763122">
        <ele>1101.3299999999999</ele>
        <time>2015-06-20T06:10:10Z</time>
      </trkpt>
      <trkpt lat="45.864260382950306" lon="9.447863409295678">
        <ele>1100.3699999999999</ele>
        <time>2015-06-20T06:10:14Z</time>
      </trkpt>
      <trkpt lat="45.864457944408059" lon="9.447997100651264">
        <ele>1100.3699999999999</ele>
        <time>2015-06-20T06:10:27Z</time>
      </trkpt>
      <trkpt lat="45.864588283002377" lon="9.448241600766778">
        <ele>1098.9200000000001</ele>
        <time>2015-06-20T06:10:41Z</time>
      </trkpt>
      <trkpt lat="45.864617703482509" lon="9.448329024016857">
        <ele>1098.4400000000001</ele>
        <time>2015-06-20T06:10:46Z</time>
      </trkpt>
      <trkpt lat="45.864637987688184" lon="9.448375795036554">
        <ele>1098.4400000000001</ele>
        <time>2015-06-20T06:10:49Z</time>
      </trkpt>
      <trkpt lat="45.864659026265144" lon="9.448445700109005">
        <ele>1097.96</ele>
        <time>2015-06-20T06:10:53Z</time>
      </trkpt>
      <trkpt lat="45.864757848903537" lon="9.448699839413166">
        <ele>1097.48</ele>
        <time>2015-06-20T06:11:06Z</time>
      </trkpt>
      <trkpt lat="45.864836806431413" lon="9.448846019804478">
        <ele>1097</ele>
        <time>2015-06-20T06:11:15Z</time>
      </trkpt>
      <trkpt lat="45.864979466423392" lon="9.449054477736354">
        <ele>1097.48</ele>
        <time>2015-06-20T06:11:27Z</time>
      </trkpt>
      <trkpt lat="45.865085581317544" lon="9.449258241802454">
        <ele>1097.96</ele>
        <time>2015-06-20T06:11:39Z</time>
      </trkpt>
      <trkpt lat="45.865296218544245" lon="9.449502490460873">
        <ele>1098.4400000000001</ele>
        <time>2015-06-20T06:11:56Z</time>
      </trkpt>
      <trkpt lat="45.865453714504838" lon="9.449628554284573">
        <ele>1097.96</ele>
        <time>2015-06-20T06:12:08Z</time>
      </trkpt>
      <trkpt lat="45.865653036162257" lon="9.449723772704601">
        <ele>1097.48</ele>
        <time>2015-06-20T06:12:22Z</time>
      </trkpt>
      <trkpt lat="45.865849675610662" lon="9.44979652762413">
        <ele>1096.52</ele>
        <time>2015-06-20T06:12:35Z</time>
      </trkpt>
      <trkpt lat="45.866039944812655" lon="9.449917143210769">
        <ele>1096.52</ele>
        <time>2015-06-20T06:12:49Z</time>
      </trkpt>
      <trkpt lat="45.866221748292446" lon="9.450120069086552">
        <ele>1096.04</ele>
        <time>2015-06-20T06:13:04Z</time>
      </trkpt>
      <trkpt lat="45.866287965327501" lon="9.45030371658504">
        <ele>1096.52</ele>
        <time>2015-06-20T06:13:15Z</time>
      </trkpt>
      <trkpt lat="45.866156034171581" lon="9.450438916683197">
        <ele>1097</ele>
        <time>2015-06-20T06:13:27Z</time>
      </trkpt>
      <trkpt lat="45.866095013916492" lon="9.450494572520256">
        <ele>1097</ele>
        <time>2015-06-20T06:13:35Z</time>
      </trkpt>
      <trkpt lat="45.865981606766582" lon="9.450511671602726">
        <ele>1097</ele>
        <time>2015-06-20T06:13:43Z</time>
      </trkpt>
      <trkpt lat="45.865845652297139" lon="9.450626587495208">
        <ele>1096.52</ele>
        <time>2015-06-20T06:13:55Z</time>
      </trkpt>
      <trkpt lat="45.865705506876111" lon="9.450811324641109">
        <ele>1094.5999999999999</ele>
        <time>2015-06-20T06:14:09Z</time>
      </trkpt>
      <trkpt lat="45.865630237385631" lon="9.450908806174994">
        <ele>1093.6400000000001</ele>
        <time>2015-06-20T06:14:18Z</time>
      </trkpt>
      <trkpt lat="45.865515572950244" lon="9.450992541387677">
        <ele>1091.71</ele>
        <time>2015-06-20T06:14:30Z</time>
      </trkpt>
      <trkpt lat="45.8653883356601" lon="9.451049873605371">
        <ele>1089.79</ele>
        <time>2015-06-20T06:14:41Z</time>
      </trkpt>
      <trkpt lat="45.86527643725276" lon="9.451104523614049">
        <ele>1087.3900000000001</ele>
        <time>2015-06-20T06:14:51Z</time>
      </trkpt>
      <trkpt lat="45.865182224661112" lon="9.451304348185659">
        <ele>1088.3499999999999</ele>
        <time>2015-06-20T06:15:02Z</time>
      </trkpt>
      <trkpt lat="45.865174261853099" lon="9.451362770050764">
        <ele>1088.8299999999999</ele>
        <time>2015-06-20T06:15:05Z</time>
      </trkpt>
      <trkpt lat="45.865166801959276" lon="9.451610371470451">
        <ele>1087.3900000000001</ele>
        <time>2015-06-20T06:15:18Z</time>
      </trkpt>
      <trkpt lat="45.8650809712708" lon="9.451664099469781">
        <ele>1087.8699999999999</ele>
        <time>2015-06-20T06:15:27Z</time>
      </trkpt>
      <trkpt lat="45.865034200251102" lon="9.45165135897696">
        <ele>1088.3499999999999</ele>
        <time>2015-06-20T06:15:32Z</time>
      </trkpt>
      <trkpt lat="45.864930264651775" lon="9.451694777235389">
        <ele>1088.8299999999999</ele>
        <time>2015-06-20T06:15:43Z</time>
      </trkpt>
      <trkpt lat="45.864884499460459" lon="9.451911030337215">
        <ele>1087.3900000000001</ele>
        <time>2015-06-20T06:15:55Z</time>
      </trkpt>
      <trkpt lat="45.864855833351612" lon="9.452117308974266">
        <ele>1084.99</ele>
        <time>2015-06-20T06:16:06Z</time>
      </trkpt>
      <trkpt lat="45.864840997382998" lon="9.452178999781609">
        <ele>1084.99</ele>
        <time>2015-06-20T06:16:09Z</time>
      </trkpt>
      <trkpt lat="45.864846697077155" lon="9.452276481315494">
        <ele>1084.5</ele>
        <time>2015-06-20T06:16:14Z</time>
      </trkpt>
      <trkpt lat="45.8648322802037" lon="9.452523160725832">
        <ele>1084.5</ele>
        <time>2015-06-20T06:16:28Z</time>
      </trkpt>
      <trkpt lat="45.864858515560627" lon="9.452737988904119">
        <ele>1085.95</ele>
        <time>2015-06-20T06:16:39Z</time>
      </trkpt>
      <trkpt lat="45.86483471095562" lon="9.452877128496766">
        <ele>1088.3499999999999</ele>
        <time>2015-06-20T06:16:48Z</time>
      </trkpt>
      <trkpt lat="45.864787101745605" lon="9.453024566173554">
        <ele>1089.3099999999999</ele>
        <time>2015-06-20T06:16:56Z</time>
      </trkpt>
      <trkpt lat="45.864737564697862" lon="9.453109391033649">
        <ele>1089.3099999999999</ele>
        <time>2015-06-20T06:17:02Z</time>
      </trkpt>
      <trkpt lat="45.864700935781002" lon="9.453167812898755">
        <ele>1089.3099999999999</ele>
        <time>2015-06-20T06:17:06Z</time>
      </trkpt>
      <trkpt lat="45.864633629098535" lon="9.453221624717116">
        <ele>1089.79</ele>
        <time>2015-06-20T06:17:11Z</time>
      </trkpt>
      <trkpt lat="45.864597838371992" lon="9.453267976641655">
        <ele>1090.75</ele>
        <time>2015-06-20T06:17:15Z</time>
      </trkpt>
      <trkpt lat="45.864477558061481" lon="9.453504178673029">
        <ele>1092.2</ele>
        <time>2015-06-20T06:17:31Z</time>
      </trkpt>
      <trkpt lat="45.864353505894542" lon="9.453588919714093">
        <ele>1091.71</ele>
        <time>2015-06-20T06:17:43Z</time>
      </trkpt>
      <trkpt lat="45.864297850057483" lon="9.453713810071349">
        <ele>1089.79</ele>
        <time>2015-06-20T06:17:53Z</time>
      </trkpt>
      <trkpt lat="45.864223586395383" lon="9.4538648519665">
        <ele>1090.75</ele>
        <time>2015-06-20T06:18:05Z</time>
      </trkpt>
      <trkpt lat="45.864112107083201" lon="9.453940289095044">
        <ele>1090.27</ele>
        <time>2015-06-20T06:18:16Z</time>
      </trkpt>
      <trkpt lat="45.86403725668788" lon="9.454016899690032">
        <ele>1088.8299999999999</ele>
        <time>2015-06-20T06:18:25Z</time>
      </trkpt>
      <trkpt lat="45.863969447091222" lon="9.4540876429528">
        <ele>1087.3900000000001</ele>
        <time>2015-06-20T06:18:32Z</time>
      </trkpt>
      <trkpt lat="45.863817986100912" lon="9.454324431717396">
        <ele>1086.9100000000001</ele>
        <time>2015-06-20T06:18:48Z</time>
      </trkpt>
      <trkpt lat="45.86372260004282" lon="9.454462649300695">
        <ele>1086.4300000000001</ele>
        <time>2015-06-20T06:18:59Z</time>
      </trkpt>
      <trkpt lat="45.86361070163548" lon="9.454561220481992">
        <ele>1087.3900000000001</ele>
        <time>2015-06-20T06:19:10Z</time>
      </trkpt>
      <trkpt lat="45.863572731614113" lon="9.454619055613875">
        <ele>1088.8299999999999</ele>
        <time>2015-06-20T06:19:15Z</time>
      </trkpt>
      <trkpt lat="45.863520093262196" lon="9.45483379997313">
        <ele>1089.79</ele>
        <time>2015-06-20T06:19:28Z</time>
      </trkpt>
      <trkpt lat="45.86351397447288" lon="9.45500236004591">
        <ele>1089.3099999999999</ele>
        <time>2015-06-20T06:19:39Z</time>
      </trkpt>
      <trkpt lat="45.863491510972381" lon="9.455180810764432">
        <ele>1090.75</ele>
        <time>2015-06-20T06:19:49Z</time>
      </trkpt>
      <trkpt lat="45.863461839035153" lon="9.455256583169103">
        <ele>1091.23</ele>
        <time>2015-06-20T06:19:54Z</time>
      </trkpt>
      <trkpt lat="45.863392939791083" lon="9.455398321151733">
        <ele>1091.23</ele>
        <time>2015-06-20T06:20:04Z</time>
      </trkpt>
      <trkpt lat="45.863387994468212" lon="9.455410726368427">
        <ele>1091.23</ele>
        <time>2015-06-20T06:20:05Z</time>
      </trkpt>
      <trkpt lat="45.863341307267547" lon="9.455497730523348">
        <ele>1089.79</ele>
        <time>2015-06-20T06:20:11Z</time>
      </trkpt>
      <trkpt lat="45.863307528197765" lon="9.455555900931358">
        <ele>1089.3099999999999</ele>
        <time>2015-06-20T06:20:15Z</time>
      </trkpt>
      <trkpt lat="45.863231420516968" lon="9.455600492656231">
        <ele>1089.3099999999999</ele>
        <time>2015-06-20T06:20:22Z</time>
      </trkpt>
      <trkpt lat="45.863173836842179" lon="9.455607365816832">
        <ele>1087.8699999999999</ele>
        <time>2015-06-20T06:20:27Z</time>
      </trkpt>
      <trkpt lat="45.863156570121646" lon="9.455621698871255">
        <ele>1086.9100000000001</ele>
        <time>2015-06-20T06:20:31Z</time>
      </trkpt>
      <trkpt lat="45.863150954246521" lon="9.455822193995118">
        <ele>1083.54</ele>
        <time>2015-06-20T06:20:44Z</time>
      </trkpt>
      <trkpt lat="45.863145003095269" lon="9.455946749076247">
        <ele>1081.6199999999999</ele>
        <time>2015-06-20T06:20:53Z</time>
      </trkpt>
      <trkpt lat="45.863120779395103" lon="9.455965105444193">
        <ele>1081.6199999999999</ele>
        <time>2015-06-20T06:20:55Z</time>
      </trkpt>
      <trkpt lat="45.863106613978744" lon="9.45605780929327">
        <ele>1081.1400000000001</ele>
        <time>2015-06-20T06:21:01Z</time>
      </trkpt>
      <trkpt lat="45.863128993660212" lon="9.456103825941682">
        <ele>1080.1800000000001</ele>
        <time>2015-06-20T06:21:04Z</time>
      </trkpt>
      <trkpt lat="45.86310837417841" lon="9.456201391294599">
        <ele>1081.1400000000001</ele>
        <time>2015-06-20T06:21:14Z</time>
      </trkpt>
      <trkpt lat="45.863014832139015" lon="9.456189405173063">
        <ele>1080.1800000000001</ele>
        <time>2015-06-20T06:21:26Z</time>
      </trkpt>
      <trkpt lat="45.862988512963057" lon="9.456182364374399">
        <ele>1079.22</ele>
        <time>2015-06-20T06:21:30Z</time>
      </trkpt>
      <trkpt lat="45.862964624539018" lon="9.456179430708289">
        <ele>1078.26</ele>
        <time>2015-06-20T06:21:34Z</time>
      </trkpt>
      <trkpt lat="45.862918356433511" lon="9.456142382696271">
        <ele>1077.29</ele>
        <time>2015-06-20T06:21:40Z</time>
      </trkpt>
      <trkpt lat="45.862819198518991" lon="9.456266015768051">
        <ele>1077.78</ele>
        <time>2015-06-20T06:21:52Z</time>
      </trkpt>
      <trkpt lat="45.862763207405806" lon="9.456395516172051">
        <ele>1079.22</ele>
        <time>2015-06-20T06:22:02Z</time>
      </trkpt>
      <trkpt lat="45.862763961777091" lon="9.456421583890915">
        <ele>1080.6600000000001</ele>
        <time>2015-06-20T06:22:11Z</time>
      </trkpt>
      <trkpt lat="45.862765554338694" lon="9.456426110118628">
        <ele>1082.0999999999999</ele>
        <time>2015-06-20T06:22:31Z</time>
      </trkpt>
      <trkpt lat="45.862730517983437" lon="9.456408005207777">
        <ele>1083.0599999999999</ele>
        <time>2015-06-20T06:22:42Z</time>
      </trkpt>
      <trkpt lat="45.862667234614491" lon="9.456385122612119">
        <ele>1085.47</ele>
        <time>2015-06-20T06:22:54Z</time>
      </trkpt>
      <trkpt lat="45.862594144418836" lon="9.456361569464207">
        <ele>1087.8699999999999</ele>
        <time>2015-06-20T06:23:03Z</time>
      </trkpt>
      <trkpt lat="45.862527759745717" lon="9.456330221146345">
        <ele>1090.27</ele>
        <time>2015-06-20T06:23:12Z</time>
      </trkpt>
      <trkpt lat="45.862496914342046" lon="9.456352349370718">
        <ele>1090.75</ele>
        <time>2015-06-20T06:23:16Z</time>
      </trkpt>
      <trkpt lat="45.862431535497308" lon="9.456370202824473">
        <ele>1090.75</ele>
        <time>2015-06-20T06:23:23Z</time>
      </trkpt>
      <trkpt lat="45.86230312474072" lon="9.456372549757361">
        <ele>1091.71</ele>
        <time>2015-06-20T06:23:37Z</time>
      </trkpt>
      <trkpt lat="45.862144120037556" lon="9.456377327442169">
        <ele>1092.2</ele>
        <time>2015-06-20T06:23:48Z</time>
      </trkpt>
      <trkpt lat="45.862055942416191" lon="9.456406496465206">
        <ele>1095.5599999999999</ele>
        <time>2015-06-20T06:23:59Z</time>
      </trkpt>
      <trkpt lat="45.861977739259601" lon="9.456451674923301">
        <ele>1098.9200000000001</ele>
        <time>2015-06-20T06:24:09Z</time>
      </trkpt>
      <trkpt lat="45.861932644620538" lon="9.456470366567373">
        <ele>1099.8900000000001</ele>
        <time>2015-06-20T06:24:15Z</time>
      </trkpt>
      <trkpt lat="45.861808760091662" lon="9.456480760127306">
        <ele>1099.8900000000001</ele>
        <time>2015-06-20T06:24:26Z</time>
      </trkpt>
      <trkpt lat="45.861698286607862" lon="9.456536415964365">
        <ele>1103.25</ele>
        <time>2015-06-20T06:24:37Z</time>
      </trkpt>
      <trkpt lat="45.861611366271973" lon="9.456588216125965">
        <ele>1101.8099999999999</ele>
        <time>2015-06-20T06:24:47Z</time>
      </trkpt>
      <trkpt lat="45.861525367945433" lon="9.456632556393743">
        <ele>1099.4000000000001</ele>
        <time>2015-06-20T06:24:57Z</time>
      </trkpt>
      <trkpt lat="45.861499886959791" lon="9.456657450646162">
        <ele>1099.4000000000001</ele>
        <time>2015-06-20T06:25:00Z</time>
      </trkpt>
      <trkpt lat="45.861407686024904" lon="9.456745628267527">
        <ele>1097.96</ele>
        <time>2015-06-20T06:25:09Z</time>
      </trkpt>
      <trkpt lat="45.861393101513386" lon="9.456790219992399">
        <ele>1098.4400000000001</ele>
        <time>2015-06-20T06:25:12Z</time>
      </trkpt>
      <trkpt lat="45.861340295523405" lon="9.456806983798742">
        <ele>1098.4400000000001</ele>
        <time>2015-06-20T06:25:16Z</time>
      </trkpt>
      <trkpt lat="45.861320178955793" lon="9.456823999062181">
        <ele>1098.4400000000001</ele>
        <time>2015-06-20T06:25:18Z</time>
      </trkpt>
      <trkpt lat="45.861263517290354" lon="9.456859957426786">
        <ele>1097.96</ele>
        <time>2015-06-20T06:25:24Z</time>
      </trkpt>
      <trkpt lat="45.861195959150791" lon="9.456941010430455">
        <ele>1096.04</ele>
        <time>2015-06-20T06:25:35Z</time>
      </trkpt>
      <trkpt lat="45.861178273335099" lon="9.456990631297231">
        <ele>1095.5599999999999</ele>
        <time>2015-06-20T06:25:40Z</time>
      </trkpt>
      <trkpt lat="45.861169639974833" lon="9.457101104781032">
        <ele>1097.96</ele>
        <time>2015-06-20T06:25:51Z</time>
      </trkpt>
      <trkpt lat="45.861110966652632" lon="9.45721878670156">
        <ele>1099.8900000000001</ele>
        <time>2015-06-20T06:26:02Z</time>
      </trkpt>
      <trkpt lat="45.861093867570162" lon="9.457241501659155">
        <ele>1099.8900000000001</ele>
        <time>2015-06-20T06:26:04Z</time>
      </trkpt>
      <trkpt lat="45.86094374768436" lon="9.457321632653475">
        <ele>1100.3699999999999</ele>
        <time>2015-06-20T06:26:18Z</time>
      </trkpt>
      <trkpt lat="45.860886164009571" lon="9.457401176914573">
        <ele>1102.29</ele>
        <time>2015-06-20T06:26:26Z</time>
      </trkpt>
      <trkpt lat="45.860854061320424" lon="9.457411402836442">
        <ele>1101.8099999999999</ele>
        <time>2015-06-20T06:26:29Z</time>
      </trkpt>
      <trkpt lat="45.860762530937791" lon="9.457531264051795">
        <ele>1103.73</ele>
        <time>2015-06-20T06:26:41Z</time>
      </trkpt>
      <trkpt lat="45.860686590895057" lon="9.457664955407381">
        <ele>1104.6900000000001</ele>
        <time>2015-06-20T06:26:53Z</time>
      </trkpt>
      <trkpt lat="45.860578967258334" lon="9.457731088623405">
        <ele>1104.6900000000001</ele>
        <time>2015-06-20T06:27:03Z</time>
      </trkpt>
      <trkpt lat="45.86045659147203" lon="9.457792108878493">
        <ele>1105.1700000000001</ele>
        <time>2015-06-20T06:27:13Z</time>
      </trkpt>
      <trkpt lat="45.8603285998106" lon="9.457822870463133">
        <ele>1102.29</ele>
        <time>2015-06-20T06:27:25Z</time>
      </trkpt>
      <trkpt lat="45.860292809084058" lon="9.457831671461463">
        <ele>1102.77</ele>
        <time>2015-06-20T06:27:35Z</time>
      </trkpt>
      <trkpt lat="45.860223406925797" lon="9.457840472459793">
        <ele>1101.8099999999999</ele>
        <time>2015-06-20T06:27:46Z</time>
      </trkpt>
      <trkpt lat="45.860163727775216" lon="9.457850949838758">
        <ele>1100.3699999999999</ele>
        <time>2015-06-20T06:27:59Z</time>
      </trkpt>
      <trkpt lat="45.860082423314452" lon="9.457884812727571">
        <ele>1098.4400000000001</ele>
        <time>2015-06-20T06:28:10Z</time>
      </trkpt>
      <trkpt lat="45.859956862404943" lon="9.457867713645101">
        <ele>1097</ele>
        <time>2015-06-20T06:28:22Z</time>
      </trkpt>
      <trkpt lat="45.859868517145514" lon="9.457880621775985">
        <ele>1097</ele>
        <time>2015-06-20T06:28:32Z</time>
      </trkpt>
      <trkpt lat="45.859858626499772" lon="9.457879867404699">
        <ele>1096.52</ele>
        <time>2015-06-20T06:28:33Z</time>
      </trkpt>
      <trkpt lat="45.859771287068725" lon="9.457881040871143">
        <ele>1096.04</ele>
        <time>2015-06-20T06:28:44Z</time>
      </trkpt>
      <trkpt lat="45.859685456380248" lon="9.457918172702193">
        <ele>1097</ele>
        <time>2015-06-20T06:28:55Z</time>
      </trkpt>
      <trkpt lat="45.859559560194612" lon="9.457919178530574">
        <ele>1097.48</ele>
        <time>2015-06-20T06:29:06Z</time>
      </trkpt>
      <trkpt lat="45.859487056732178" lon="9.457964859902859">
        <ele>1100.3699999999999</ele>
        <time>2015-06-20T06:29:16Z</time>
      </trkpt>
      <trkpt lat="45.859392089769244" lon="9.458039710298181">
        <ele>1101.3299999999999</ele>
        <time>2015-06-20T06:29:26Z</time>
      </trkpt>
      <trkpt lat="45.859264181926847" lon="9.458110788837075">
        <ele>1101.3299999999999</ele>
        <time>2015-06-20T06:29:38Z</time>
      </trkpt>
      <trkpt lat="45.859191929921508" lon="9.458190836012363">
        <ele>1102.77</ele>
        <time>2015-06-20T06:29:49Z</time>
      </trkpt>
      <trkpt lat="45.859172232449055" lon="9.458190752193332">
        <ele>1102.29</ele>
        <time>2015-06-20T06:29:51Z</time>
      </trkpt>
      <trkpt lat="45.85902689024806" lon="9.458229560405016">
        <ele>1100.8499999999999</ele>
        <time>2015-06-20T06:30:04Z</time>
      </trkpt>
      <trkpt lat="45.858924631029367" lon="9.458260321989656">
        <ele>1101.3299999999999</ele>
        <time>2015-06-20T06:30:14Z</time>
      </trkpt>
      <trkpt lat="45.85879085585475" lon="9.458323186263442">
        <ele>1102.29</ele>
        <time>2015-06-20T06:30:26Z</time>
      </trkpt>
      <trkpt lat="45.858773337677121" lon="9.458333496004343">
        <ele>1102.29</ele>
        <time>2015-06-20T06:30:28Z</time>
      </trkpt>
      <trkpt lat="45.858642412349582" lon="9.45836752653122">
        <ele>1102.77</ele>
        <time>2015-06-20T06:30:40Z</time>
      </trkpt>
      <trkpt lat="45.858566556125879" lon="9.458422595635057">
        <ele>1104.21</ele>
        <time>2015-06-20T06:30:50Z</time>
      </trkpt>
      <trkpt lat="45.8585015963763" lon="9.458463750779629">
        <ele>1105.1700000000001</ele>
        <time>2015-06-20T06:30:59Z</time>
      </trkpt>
      <trkpt lat="45.85836916230619" lon="9.458608170971274">
        <ele>1105.6500000000001</ele>
        <time>2015-06-20T06:31:14Z</time>
      </trkpt>
      <trkpt lat="45.858315182849765" lon="9.458657121285796">
        <ele>1109.02</ele>
        <time>2015-06-20T06:31:24Z</time>
      </trkpt>
      <trkpt lat="45.85826463997364" lon="9.458756782114506">
        <ele>1112.3800000000001</ele>
        <time>2015-06-20T06:31:35Z</time>
      </trkpt>
      <trkpt lat="45.858223987743258" lon="9.458816880360246">
        <ele>1114.79</ele>
        <time>2015-06-20T06:31:45Z</time>
      </trkpt>
      <trkpt lat="45.858153160661459" lon="9.458810174837709">
        <ele>1117.1900000000001</ele>
        <time>2015-06-20T06:31:55Z</time>
      </trkpt>
      <trkpt lat="45.858048805966973" lon="9.458771534264088">
        <ele>1117.1900000000001</ele>
        <time>2015-06-20T06:32:07Z</time>
      </trkpt>
      <trkpt lat="45.858007064089179" lon="9.458746137097478">
        <ele>1114.79</ele>
        <time>2015-06-20T06:32:16Z</time>
      </trkpt>
      <trkpt lat="45.857972530648112" lon="9.458713531494141">
        <ele>1112.8599999999999</ele>
        <time>2015-06-20T06:32:28Z</time>
      </trkpt>
      <trkpt lat="45.857892734929919" lon="9.458726942539215">
        <ele>1109.98</ele>
        <time>2015-06-20T06:32:39Z</time>
      </trkpt>
      <trkpt lat="45.857871025800705" lon="9.458744712173939">
        <ele>1109.98</ele>
        <time>2015-06-20T06:32:41Z</time>
      </trkpt>
      <trkpt lat="45.857756277546287" lon="9.458880750462413">
        <ele>1107.0999999999999</ele>
        <time>2015-06-20T06:32:53Z</time>
      </trkpt>
      <trkpt lat="45.857738340273499" lon="9.459037994965911">
        <ele>1109.5</ele>
        <time>2015-06-20T06:33:03Z</time>
      </trkpt>
      <trkpt lat="45.8577417768538" lon="9.459148971363902">
        <ele>1109.5</ele>
        <time>2015-06-20T06:33:14Z</time>
      </trkpt>
      <trkpt lat="45.857732640579343" lon="9.459172356873751">
        <ele>1109.02</ele>
        <time>2015-06-20T06:33:16Z</time>
      </trkpt>
      <trkpt lat="45.857706908136606" lon="9.459364470094442">
        <ele>1110.46</ele>
        <time>2015-06-20T06:33:28Z</time>
      </trkpt>
      <trkpt lat="45.857686204835773" lon="9.459460191428661">
        <ele>1113.8199999999999</ele>
        <time>2015-06-20T06:33:38Z</time>
      </trkpt>
      <trkpt lat="45.857700873166323" lon="9.459559097886086">
        <ele>1116.71</ele>
        <time>2015-06-20T06:33:47Z</time>
      </trkpt>
      <trkpt lat="45.85770120844245" lon="9.459636127576232">
        <ele>1117.6700000000001</ele>
        <time>2015-06-20T06:33:56Z</time>
      </trkpt>
      <trkpt lat="45.857692239806056" lon="9.45967560634017">
        <ele>1117.6700000000001</ele>
        <time>2015-06-20T06:34:07Z</time>
      </trkpt>
      <trkpt lat="45.857688300311565" lon="9.459715504199266">
        <ele>1119.5899999999999</ele>
        <time>2015-06-20T06:34:17Z</time>
      </trkpt>
      <trkpt lat="45.857688384130597" lon="9.459737297147512">
        <ele>1122.48</ele>
        <time>2015-06-20T06:34:29Z</time>
      </trkpt>
      <trkpt lat="45.857726940885186" lon="9.459785325452685">
        <ele>1124.8800000000001</ele>
        <time>2015-06-20T06:34:42Z</time>
      </trkpt>
      <trkpt lat="45.857690228149295" lon="9.459832515567541">
        <ele>1125.3599999999999</ele>
        <time>2015-06-20T06:34:53Z</time>
      </trkpt>
      <trkpt lat="45.857632644474506" lon="9.459819188341498">
        <ele>1125.8399999999999</ele>
        <time>2015-06-20T06:35:01Z</time>
      </trkpt>
      <trkpt lat="45.857600038871169" lon="9.459850201383233">
        <ele>1128.24</ele>
        <time>2015-06-20T06:35:09Z</time>
      </trkpt>
      <trkpt lat="45.85756634362042" lon="9.459918178617954">
        <ele>1131.1300000000001</ele>
        <time>2015-06-20T06:35:18Z</time>
      </trkpt>
      <trkpt lat="45.857496103271842" lon="9.45992429740727">
        <ele>1134.01</ele>
        <time>2015-06-20T06:35:27Z</time>
      </trkpt>
      <trkpt lat="45.857428209856153" lon="9.459937540814281">
        <ele>1136.4200000000001</ele>
        <time>2015-06-20T06:35:36Z</time>
      </trkpt>
      <trkpt lat="45.857386467978358" lon="9.459934858605266">
        <ele>1138.8199999999999</ele>
        <time>2015-06-20T06:35:44Z</time>
      </trkpt>
      <trkpt lat="45.857341792434454" lon="9.459872497245669">
        <ele>1140.26</ele>
        <time>2015-06-20T06:35:54Z</time>
      </trkpt>
      <trkpt lat="45.857306169345975" lon="9.459903510287404">
        <ele>1143.1400000000001</ele>
        <time>2015-06-20T06:36:09Z</time>
      </trkpt>
      <trkpt lat="45.857233330607414" lon="9.459923123940826">
        <ele>1145.55</ele>
        <time>2015-06-20T06:36:17Z</time>
      </trkpt>
      <trkpt lat="45.857120174914598" lon="9.459945084527135">
        <ele>1147.47</ele>
        <time>2015-06-20T06:36:29Z</time>
      </trkpt>
      <trkpt lat="45.857020262628794" lon="9.460003757849336">
        <ele>1149.8699999999999</ele>
        <time>2015-06-20T06:36:41Z</time>
      </trkpt>
      <trkpt lat="45.856960415840149" lon="9.460065700113773">
        <ele>1153.72</ele>
        <time>2015-06-20T06:36:52Z</time>
      </trkpt>
      <trkpt lat="45.856952285394073" lon="9.460067627951503">
        <ele>1152.76</ele>
        <time>2015-06-20T06:36:53Z</time>
      </trkpt>
      <trkpt lat="45.856898222118616" lon="9.460078692063689">
        <ele>1155.1600000000001</ele>
        <time>2015-06-20T06:37:03Z</time>
      </trkpt>
      <trkpt lat="45.856886068359017" lon="9.46003912948072">
        <ele>1156.1199999999999</ele>
        <time>2015-06-20T06:37:13Z</time>
      </trkpt>
      <trkpt lat="45.856887325644493" lon="9.460041560232639">
        <ele>1156.1199999999999</ele>
        <time>2015-06-20T06:37:29Z</time>
      </trkpt>
      <trkpt lat="45.856850948184729" lon="9.460036950185895">
        <ele>1157.5599999999999</ele>
        <time>2015-06-20T06:37:44Z</time>
      </trkpt>
      <trkpt lat="45.85682513192296" lon="9.460028233006597">
        <ele>1158.53</ele>
        <time>2015-06-20T06:37:52Z</time>
      </trkpt>
      <trkpt lat="45.856779450550675" lon="9.460001159459353">
        <ele>1159.97</ele>
        <time>2015-06-20T06:38:00Z</time>
      </trkpt>
      <trkpt lat="45.85676109418273" lon="9.460003590211272">
        <ele>1160.9300000000001</ele>
        <time>2015-06-20T06:38:07Z</time>
      </trkpt>
      <trkpt lat="45.856636371463537" lon="9.460044074803591">
        <ele>1163.8099999999999</ele>
        <time>2015-06-20T06:38:21Z</time>
      </trkpt>
      <trkpt lat="45.856535034254193" lon="9.460092773661017">
        <ele>1166.7</ele>
        <time>2015-06-20T06:38:32Z</time>
      </trkpt>
      <trkpt lat="45.856497818604112" lon="9.460157230496407">
        <ele>1168.1400000000001</ele>
        <time>2015-06-20T06:38:40Z</time>
      </trkpt>
      <trkpt lat="45.856392709538341" lon="9.460236607119441">
        <ele>1171.02</ele>
        <time>2015-06-20T06:38:51Z</time>
      </trkpt>
      <trkpt lat="45.856333868578076" lon="9.460332915186882">
        <ele>1172.95</ele>
        <time>2015-06-20T06:39:02Z</time>
      </trkpt>
      <trkpt lat="45.856233537197113" lon="9.460328640416265">
        <ele>1172.95</ele>
        <time>2015-06-20T06:39:11Z</time>
      </trkpt>
      <trkpt lat="45.856084171682596" lon="9.460360491648316">
        <ele>1171.98</ele>
        <time>2015-06-20T06:39:23Z</time>
      </trkpt>
      <trkpt lat="45.856044022366405" lon="9.460386475548148">
        <ele>1171.98</ele>
        <time>2015-06-20T06:39:27Z</time>
      </trkpt>
      <trkpt lat="45.856045698747039" lon="9.460413549095392">
        <ele>1172.95</ele>
        <time>2015-06-20T06:39:29Z</time>
      </trkpt>
      <trkpt lat="45.856023067608476" lon="9.460429809987545">
        <ele>1172.47</ele>
        <time>2015-06-20T06:39:32Z</time>
      </trkpt>
      <trkpt lat="45.855989791452885" lon="9.460474820807576">
        <ele>1172.95</ele>
        <time>2015-06-20T06:39:36Z</time>
      </trkpt>
      <trkpt lat="45.855978475883603" lon="9.460477503016591">
        <ele>1172.95</ele>
        <time>2015-06-20T06:39:37Z</time>
      </trkpt>
      <trkpt lat="45.85586205124855" lon="9.460575571283698">
        <ele>1172.47</ele>
        <time>2015-06-20T06:39:50Z</time>
      </trkpt>
      <trkpt lat="45.855858949944377" lon="9.460570961236954">
        <ele>1172.95</ele>
        <time>2015-06-20T06:39:51Z</time>
      </trkpt>
      <trkpt lat="45.855764569714665" lon="9.460568195208907">
        <ele>1174.8699999999999</ele>
        <time>2015-06-20T06:40:00Z</time>
      </trkpt>
      <trkpt lat="45.855601876974106" lon="9.460607003420591">
        <ele>1176.3099999999999</ele>
        <time>2015-06-20T06:40:14Z</time>
      </trkpt>
      <trkpt lat="45.855477238073945" lon="9.460566351190209">
        <ele>1176.3099999999999</ele>
        <time>2015-06-20T06:40:25Z</time>
      </trkpt>
      <trkpt lat="45.855403477326035" lon="9.460552772507072">
        <ele>1176.79</ele>
        <time>2015-06-20T06:40:33Z</time>
      </trkpt>
      <trkpt lat="45.855318736284971" lon="9.460559980943799">
        <ele>1175.3499999999999</ele>
        <time>2015-06-20T06:40:42Z</time>
      </trkpt>
      <trkpt lat="45.85527565330267" lon="9.460579846054316">
        <ele>1175.3499999999999</ele>
        <time>2015-06-20T06:40:48Z</time>
      </trkpt>
      <trkpt lat="45.855193259194493" lon="9.460659809410572">
        <ele>1174.8699999999999</ele>
        <time>2015-06-20T06:40:55Z</time>
      </trkpt>
      <trkpt lat="45.855114385485649" lon="9.46076282300055">
        <ele>1176.79</ele>
        <time>2015-06-20T06:41:07Z</time>
      </trkpt>
      <trkpt lat="45.855022016912699" lon="9.460783107206225">
        <ele>1178.71</ele>
        <time>2015-06-20T06:41:19Z</time>
      </trkpt>
      <trkpt lat="45.854938114061952" lon="9.460717141628265">
        <ele>1178.71</ele>
        <time>2015-06-20T06:41:29Z</time>
      </trkpt>
      <trkpt lat="45.854818420484662" lon="9.460662491619587">
        <ele>1178.71</ele>
        <time>2015-06-20T06:41:39Z</time>
      </trkpt>
      <trkpt lat="45.854696044698358" lon="9.460627539083362">
        <ele>1180.1600000000001</ele>
        <time>2015-06-20T06:41:51Z</time>
      </trkpt>
      <trkpt lat="45.854600155726075" lon="9.460612284019589">
        <ele>1182.0799999999999</ele>
        <time>2015-06-20T06:42:00Z</time>
      </trkpt>
      <trkpt lat="45.854469649493694" lon="9.46057959459722">
        <ele>1184</ele>
        <time>2015-06-20T06:42:12Z</time>
      </trkpt>
      <trkpt lat="45.854440983384848" lon="9.460581606253982">
        <ele>1184.48</ele>
        <time>2015-06-20T06:42:15Z</time>
      </trkpt>
      <trkpt lat="45.854272004216909" lon="9.460490243509412">
        <ele>1184</ele>
        <time>2015-06-20T06:42:30Z</time>
      </trkpt>
      <trkpt lat="45.854167733341455" lon="9.460548078641295">
        <ele>1184.48</ele>
        <time>2015-06-20T06:42:40Z</time>
      </trkpt>
      <trkpt lat="45.854085590690374" lon="9.460539780557156">
        <ele>1185.9200000000001</ele>
        <time>2015-06-20T06:42:50Z</time>
      </trkpt>
      <trkpt lat="45.854045273736119" lon="9.460543803870678">
        <ele>1188.3299999999999</ele>
        <time>2015-06-20T06:42:56Z</time>
      </trkpt>
      <trkpt lat="45.853955252096057" lon="9.460555287078023">
        <ele>1190.73</ele>
        <time>2015-06-20T06:43:07Z</time>
      </trkpt>
      <trkpt lat="45.853935303166509" lon="9.460547743365169">
        <ele>1191.6900000000001</ele>
        <time>2015-06-20T06:43:10Z</time>
      </trkpt>
      <trkpt lat="45.853853495791554" lon="9.460519496351481">
        <ele>1191.21</ele>
        <time>2015-06-20T06:43:19Z</time>
      </trkpt>
      <trkpt lat="45.853827679529786" lon="9.460490494966507">
        <ele>1190.25</ele>
        <time>2015-06-20T06:43:22Z</time>
      </trkpt>
      <trkpt lat="45.853736735880375" lon="9.460476664826274">
        <ele>1190.73</ele>
        <time>2015-06-20T06:43:32Z</time>
      </trkpt>
      <trkpt lat="45.85370178334415" lon="9.460464678704739">
        <ele>1190.73</ele>
        <time>2015-06-20T06:43:35Z</time>
      </trkpt>
      <trkpt lat="45.853563649579883" lon="9.460372226312757">
        <ele>1191.21</ele>
        <time>2015-06-20T06:43:48Z</time>
      </trkpt>
      <trkpt lat="45.853506485000253" lon="9.460362670943141">
        <ele>1191.21</ele>
        <time>2015-06-20T06:43:53Z</time>
      </trkpt>
      <trkpt lat="45.853382349014282" lon="9.460351942107081">
        <ele>1192.6500000000001</ele>
        <time>2015-06-20T06:44:04Z</time>
      </trkpt>
      <trkpt lat="45.853299451991916" lon="9.460380105301738">
        <ele>1195.0599999999999</ele>
        <time>2015-06-20T06:44:15Z</time>
      </trkpt>
      <trkpt lat="45.853180093690753" lon="9.46028639562428">
        <ele>1194.0899999999999</ele>
        <time>2015-06-20T06:44:27Z</time>
      </trkpt>
      <trkpt lat="45.853074733167887" lon="9.460242306813598">
        <ele>1194.5799999999999</ele>
        <time>2015-06-20T06:44:37Z</time>
      </trkpt>
      <trkpt lat="45.852949842810631" lon="9.460242725908756">
        <ele>1196.02</ele>
        <time>2015-06-20T06:44:48Z</time>
      </trkpt>
      <trkpt lat="45.852930899709463" lon="9.460253119468689">
        <ele>1196.5</ele>
        <time>2015-06-20T06:44:50Z</time>
      </trkpt>
      <trkpt lat="45.852865604683757" lon="9.4603215996176">
        <ele>1197.46</ele>
        <time>2015-06-20T06:44:59Z</time>
      </trkpt>
      <trkpt lat="45.852744653820992" lon="9.460447411984205">
        <ele>1196.5</ele>
        <time>2015-06-20T06:45:12Z</time>
      </trkpt>
      <trkpt lat="45.852622026577592" lon="9.460503738373518">
        <ele>1196.98</ele>
        <time>2015-06-20T06:45:23Z</time>
      </trkpt>
      <trkpt lat="45.852472158148885" lon="9.460581941530109">
        <ele>1197.9400000000001</ele>
        <time>2015-06-20T06:45:36Z</time>
      </trkpt>
      <trkpt lat="45.852461429312825" lon="9.460587473586202">
        <ele>1197.9400000000001</ele>
        <time>2015-06-20T06:45:37Z</time>
      </trkpt>
      <trkpt lat="45.85229454562068" lon="9.460588982328773">
        <ele>1195.0599999999999</ele>
        <time>2015-06-20T06:45:49Z</time>
      </trkpt>
      <trkpt lat="45.852172337472439" lon="9.460595855489373">
        <ele>1195.54</ele>
        <time>2015-06-20T06:46:00Z</time>
      </trkpt>
      <trkpt lat="45.852065635845065" lon="9.460636675357819">
        <ele>1197.46</ele>
        <time>2015-06-20T06:46:12Z</time>
      </trkpt>
      <trkpt lat="45.851932866498828" lon="9.460605159401894">
        <ele>1197.46</ele>
        <time>2015-06-20T06:46:24Z</time>
      </trkpt>
      <trkpt lat="45.851796744391322" lon="9.460655702278018">
        <ele>1197.46</ele>
        <time>2015-06-20T06:46:36Z</time>
      </trkpt>
      <trkpt lat="45.851709824055433" lon="9.46061622351408">
        <ele>1197.46</ele>
        <time>2015-06-20T06:46:44Z</time>
      </trkpt>
      <trkpt lat="45.851643271744251" lon="9.460588982328773">
        <ele>1198.4200000000001</ele>
        <time>2015-06-20T06:46:49Z</time>
      </trkpt>
      <trkpt lat="45.851569259539247" lon="9.460518155246973">
        <ele>1199.8599999999999</ele>
        <time>2015-06-20T06:46:57Z</time>
      </trkpt>
      <trkpt lat="45.851460881531239" lon="9.460537768900394">
        <ele>1200.8199999999999</ele>
        <time>2015-06-20T06:47:09Z</time>
      </trkpt>
      <trkpt lat="45.85145266726613" lon="9.460535505786538">
        <ele>1200.8199999999999</ele>
        <time>2015-06-20T06:47:10Z</time>
      </trkpt>
      <trkpt lat="45.851325849071145" lon="9.460568614304066">
        <ele>1201.79</ele>
        <time>2015-06-20T06:47:23Z</time>
      </trkpt>
      <trkpt lat="45.851206155493855" lon="9.46063038893044">
        <ele>1203.71</ele>
        <time>2015-06-20T06:47:35Z</time>
      </trkpt>
      <trkpt lat="45.851099202409387" lon="9.460722925141454">
        <ele>1206.1099999999999</ele>
        <time>2015-06-20T06:47:46Z</time>
      </trkpt>
      <trkpt lat="45.851028710603714" lon="9.460738012567163">
        <ele>1207.55</ele>
        <time>2015-06-20T06:47:55Z</time>
      </trkpt>
      <trkpt lat="45.850952100008726" lon="9.460780089721084">
        <ele>1210.9200000000001</ele>
        <time>2015-06-20T06:48:06Z</time>
      </trkpt>
      <trkpt lat="45.850864173844457" lon="9.460802804678679">
        <ele>1212.8399999999999</ele>
        <time>2015-06-20T06:48:18Z</time>
      </trkpt>
      <trkpt lat="45.850802566856146" lon="9.460819819942117">
        <ele>1215.24</ele>
        <time>2015-06-20T06:48:29Z</time>
      </trkpt>
      <trkpt lat="45.850736768916249" lon="9.460854604840279">
        <ele>1218.1300000000001</ele>
        <time>2015-06-20T06:48:40Z</time>
      </trkpt>
      <trkpt lat="45.850658817216754" lon="9.460834320634604">
        <ele>1221.01</ele>
        <time>2015-06-20T06:48:51Z</time>
      </trkpt>
      <trkpt lat="45.850578350946307" lon="9.460816131904721">
        <ele>1223.4200000000001</ele>
        <time>2015-06-20T06:49:04Z</time>
      </trkpt>
      <trkpt lat="45.850521270185709" lon="9.460869273170829">
        <ele>1225.3399999999999</ele>
        <time>2015-06-20T06:49:15Z</time>
      </trkpt>
      <trkpt lat="45.850494364276528" lon="9.460885701701045">
        <ele>1225.8199999999999</ele>
        <time>2015-06-20T06:49:27Z</time>
      </trkpt>
      <trkpt lat="45.850476175546646" lon="9.460899280384183">
        <ele>1225.8199999999999</ele>
        <time>2015-06-20T06:49:32Z</time>
      </trkpt>
      <trkpt lat="45.850374083966017" lon="9.460980920121074">
        <ele>1226.78</ele>
        <time>2015-06-20T06:49:43Z</time>
      </trkpt>
      <trkpt lat="45.85041138343513" lon="9.460932640358806">
        <ele>1226.78</ele>
        <time>2015-06-20T06:49:53Z</time>
      </trkpt>
      <trkpt lat="45.85044264793396" lon="9.460913278162479">
        <ele>1226.78</ele>
        <time>2015-06-20T06:49:57Z</time>
      </trkpt>
      <trkpt lat="45.850468212738633" lon="9.460901627317071">
        <ele>1226.78</ele>
        <time>2015-06-20T06:50:09Z</time>
      </trkpt>
      <trkpt lat="45.850482378154993" lon="9.460904728621244">
        <ele>1227.26</ele>
        <time>2015-06-20T06:50:24Z</time>
      </trkpt>
      <trkpt lat="45.850430577993393" lon="9.460918223485351">
        <ele>1227.74</ele>
        <time>2015-06-20T06:50:34Z</time>
      </trkpt>
      <trkpt lat="45.850440133363008" lon="9.460898023098707">
        <ele>1228.7</ele>
        <time>2015-06-20T06:50:48Z</time>
      </trkpt>
      <trkpt lat="45.850432422012091" lon="9.460915038362145">
        <ele>1229.1800000000001</ele>
        <time>2015-06-20T06:51:40Z</time>
      </trkpt>
      <trkpt lat="45.850596958771348" lon="9.46092895232141">
        <ele>1228.7</ele>
        <time>2015-06-20T06:51:42Z</time>
      </trkpt>
      <trkpt lat="45.850502327084541" lon="9.460935238748789">
        <ele>1229.1800000000001</ele>
        <time>2015-06-20T06:51:53Z</time>
      </trkpt>
      <trkpt lat="45.85053157992661" lon="9.460945883765817">
        <ele>1230.1400000000001</ele>
        <time>2015-06-20T06:52:03Z</time>
      </trkpt>
      <trkpt lat="45.850556306540966" lon="9.46096558123827">
        <ele>1232.0699999999999</ele>
        <time>2015-06-20T06:52:12Z</time>
      </trkpt>
      <trkpt lat="45.850583799183369" lon="9.460990475490689">
        <ele>1235.4300000000001</ele>
        <time>2015-06-20T06:52:22Z</time>
      </trkpt>
      <trkpt lat="45.850582709535956" lon="9.461002042517066">
        <ele>1235.4300000000001</ele>
        <time>2015-06-20T06:52:27Z</time>
      </trkpt>
      <trkpt lat="45.850638533011079" lon="9.461061218753457">
        <ele>1236.3900000000001</ele>
        <time>2015-06-20T06:52:39Z</time>
      </trkpt>
      <trkpt lat="45.850640125572681" lon="9.461073037236929">
        <ele>1236.8699999999999</ele>
        <time>2015-06-20T06:52:40Z</time>
      </trkpt>
      <trkpt lat="45.850632833316922" lon="9.461132297292352">
        <ele>1236.3900000000001</ele>
        <time>2015-06-20T06:52:44Z</time>
      </trkpt>
      <trkpt lat="45.850673234090209" lon="9.461219720542431">
        <ele>1238.3199999999999</ele>
        <time>2015-06-20T06:52:52Z</time>
      </trkpt>
      <trkpt lat="45.850731236860156" lon="9.461303455755115">
        <ele>1240.72</ele>
        <time>2015-06-20T06:53:04Z</time>
      </trkpt>
      <trkpt lat="45.850737690925598" lon="9.4613525737077">
        <ele>1241.2</ele>
        <time>2015-06-20T06:53:08Z</time>
      </trkpt>
      <trkpt lat="45.850738696753979" lon="9.461447792127729">
        <ele>1243.1199999999999</ele>
        <time>2015-06-20T06:53:19Z</time>
      </trkpt>
      <trkpt lat="45.850737858563662" lon="9.461431112140417">
        <ele>1242.6400000000001</ele>
        <time>2015-06-20T06:53:21Z</time>
      </trkpt>
      <trkpt lat="45.850733164697886" lon="9.461389537900686">
        <ele>1242.6400000000001</ele>
        <time>2015-06-20T06:53:23Z</time>
      </trkpt>
      <trkpt lat="45.850797705352306" lon="9.461316196247935">
        <ele>1244.0799999999999</ele>
        <time>2015-06-20T06:53:32Z</time>
      </trkpt>
      <trkpt lat="45.85090926848352" lon="9.461316196247935">
        <ele>1246.01</ele>
        <time>2015-06-20T06:53:45Z</time>
      </trkpt>
      <trkpt lat="45.850948076695204" lon="9.46131007745862">
        <ele>1246.97</ele>
        <time>2015-06-20T06:53:57Z</time>
      </trkpt>
      <trkpt lat="45.850981269031763" lon="9.461283171549439">
        <ele>1247.45</ele>
        <time>2015-06-20T06:54:06Z</time>
      </trkpt>
      <trkpt lat="45.851066680625081" lon="9.46130664087832">
        <ele>1248.8900000000001</ele>
        <time>2015-06-20T06:54:17Z</time>
      </trkpt>
      <trkpt lat="45.851130802184343" lon="9.461327008903027">
        <ele>1249.8499999999999</ele>
        <time>2015-06-20T06:54:23Z</time>
      </trkpt>
      <trkpt lat="45.851156953722239" lon="9.461332457140088">
        <ele>1248.8900000000001</ele>
        <time>2015-06-20T06:54:25Z</time>
      </trkpt>
      <trkpt lat="45.851293243467808" lon="9.461370343342423">
        <ele>1251.29</ele>
        <time>2015-06-20T06:54:36Z</time>
      </trkpt>
      <trkpt lat="45.851315120235085" lon="9.461429519578815">
        <ele>1253.7</ele>
        <time>2015-06-20T06:54:44Z</time>
      </trkpt>
      <trkpt lat="45.851334482431412" lon="9.461415186524391">
        <ele>1254.1800000000001</ele>
        <time>2015-06-20T06:54:47Z</time>
      </trkpt>
      <trkpt lat="45.851400699466467" lon="9.461456760764122">
        <ele>1256.5799999999999</ele>
        <time>2015-06-20T06:54:58Z</time>
      </trkpt>
      <trkpt lat="45.851404136046767" lon="9.461463382467628">
        <ele>1257.54</ele>
        <time>2015-06-20T06:55:14Z</time>
      </trkpt>
      <trkpt lat="45.851467084139585" lon="9.461449887603521">
        <ele>1259.9400000000001</ele>
        <time>2015-06-20T06:55:25Z</time>
      </trkpt>
      <trkpt lat="45.851486111059785" lon="9.46146690286696">
        <ele>1262.8299999999999</ele>
        <time>2015-06-20T06:55:30Z</time>
      </trkpt>
      <trkpt lat="45.851492816582322" lon="9.461467573419213">
        <ele>1261.8699999999999</ele>
        <time>2015-06-20T06:55:31Z</time>
      </trkpt>
      <trkpt lat="45.851577473804355" lon="9.461472099646926">
        <ele>1263.3099999999999</ele>
        <time>2015-06-20T06:55:42Z</time>
      </trkpt>
      <trkpt lat="45.851613851264119" lon="9.461477464064956">
        <ele>1264.27</ele>
        <time>2015-06-20T06:55:53Z</time>
      </trkpt>
      <trkpt lat="45.851610833778977" lon="9.461498167365789">
        <ele>1264.75</ele>
        <time>2015-06-20T06:56:07Z</time>
      </trkpt>
      <trkpt lat="45.851628854870796" lon="9.461508058011532">
        <ele>1265.71</ele>
        <time>2015-06-20T06:56:17Z</time>
      </trkpt>
      <trkpt lat="45.851639918982983" lon="9.461464723572135">
        <ele>1265.23</ele>
        <time>2015-06-20T06:56:32Z</time>
      </trkpt>
      <trkpt lat="45.851636398583651" lon="9.461488276720047">
        <ele>1266.6700000000001</ele>
        <time>2015-06-20T06:56:43Z</time>
      </trkpt>
      <trkpt lat="45.851635979488492" lon="9.461493724957109">
        <ele>1267.1600000000001</ele>
        <time>2015-06-20T06:57:00Z</time>
      </trkpt>
      <trkpt lat="45.85162902250886" lon="9.46151627227664">
        <ele>1267.1600000000001</ele>
        <time>2015-06-20T06:57:10Z</time>
      </trkpt>
      <trkpt lat="45.851603206247091" lon="9.461474362760782">
        <ele>1266.1900000000001</ele>
        <time>2015-06-20T06:57:23Z</time>
      </trkpt>
      <trkpt lat="45.851603960618377" lon="9.461477547883987">
        <ele>1267.6400000000001</ele>
        <time>2015-06-20T06:57:45Z</time>
      </trkpt>
      <trkpt lat="45.85160999558866" lon="9.461483415216208">
        <ele>1268.1199999999999</ele>
        <time>2015-06-20T06:58:06Z</time>
      </trkpt>
      <trkpt lat="45.851649139076471" lon="9.461474027484655">
        <ele>1268.5999999999999</ele>
        <time>2015-06-20T06:58:30Z</time>
      </trkpt>
      <trkpt lat="45.851658694446087" lon="9.461445193737745">
        <ele>1268.5999999999999</ele>
        <time>2015-06-20T06:58:59Z</time>
      </trkpt>
      <trkpt lat="45.851638577878475" lon="9.46144443936646">
        <ele>1268.5999999999999</ele>
        <time>2015-06-20T06:59:23Z</time>
      </trkpt>
      <trkpt lat="45.851654335856438" lon="9.461496071889997">
        <ele>1269.0799999999999</ele>
        <time>2015-06-20T06:59:44Z</time>
      </trkpt>
      <trkpt lat="45.8516441937536" lon="9.461507555097342">
        <ele>1268.5999999999999</ele>
        <time>2015-06-20T07:00:03Z</time>
      </trkpt>
      <trkpt lat="45.851657520979643" lon="9.461486097425222">
        <ele>1269.0799999999999</ele>
        <time>2015-06-20T07:00:31Z</time>
      </trkpt>
      <trkpt lat="45.851664477959275" lon="9.461494982242584">
        <ele>1269.0799999999999</ele>
        <time>2015-06-20T07:01:01Z</time>
      </trkpt>
      <trkpt lat="45.851700939238071" lon="9.461464220657945">
        <ele>1269.0799999999999</ele>
        <time>2015-06-20T07:01:27Z</time>
      </trkpt>
      <trkpt lat="45.851617958396673" lon="9.461462711915374">
        <ele>1269.0799999999999</ele>
        <time>2015-06-20T07:01:45Z</time>
      </trkpt>
      <trkpt lat="45.851622400805354" lon="9.461434045806527">
        <ele>1268.5999999999999</ele>
        <time>2015-06-20T07:02:02Z</time>
      </trkpt>
      <trkpt lat="45.851607732474804" lon="9.461408145725727">
        <ele>1270.52</ele>
        <time>2015-06-20T07:02:15Z</time>
      </trkpt>
      <trkpt lat="45.851602032780647" lon="9.461413593962789">
        <ele>1269.5599999999999</ele>
        <time>2015-06-20T07:02:16Z</time>
      </trkpt>
      <trkpt lat="45.851584682241082" lon="9.461452066898346">
        <ele>1270.04</ele>
        <time>2015-06-20T07:02:23Z</time>
      </trkpt>
      <trkpt lat="45.85159876383841" lon="9.461409235373139">
        <ele>1270.04</ele>
        <time>2015-06-20T07:02:37Z</time>
      </trkpt>
      <trkpt lat="45.851601446047425" lon="9.461385598406196">
        <ele>1270.04</ele>
        <time>2015-06-20T07:02:51Z</time>
      </trkpt>
      <trkpt lat="45.851606139913201" lon="9.461355088278651">
        <ele>1269.5599999999999</ele>
        <time>2015-06-20T07:03:11Z</time>
      </trkpt>
      <trkpt lat="45.851607145741582" lon="9.46134377270937">
        <ele>1270.52</ele>
        <time>2015-06-20T07:03:26Z</time>
      </trkpt>
      <trkpt lat="45.851649641990662" lon="9.461464388296008">
        <ele>1271</ele>
        <time>2015-06-20T07:03:45Z</time>
      </trkpt>
      <trkpt lat="45.851633297279477" lon="9.461473440751433">
        <ele>1271.48</ele>
        <time>2015-06-20T07:03:58Z</time>
      </trkpt>
      <trkpt lat="45.851628016680479" lon="9.461467489600182">
        <ele>1271.96</ele>
        <time>2015-06-20T07:04:14Z</time>
      </trkpt>
      <trkpt lat="45.85161879658699" lon="9.461480900645256">
        <ele>1272.4400000000001</ele>
        <time>2015-06-20T07:04:27Z</time>
      </trkpt>
      <trkpt lat="45.851632039994001" lon="9.461472854018211">
        <ele>1272.9200000000001</ele>
        <time>2015-06-20T07:04:46Z</time>
      </trkpt>
      <trkpt lat="45.851639499887824" lon="9.461466651409864">
        <ele>1273.4000000000001</ele>
        <time>2015-06-20T07:04:58Z</time>
      </trkpt>
      <trkpt lat="45.851654587313533" lon="9.46147033944726">
        <ele>1273.4000000000001</ele>
        <time>2015-06-20T07:05:08Z</time>
      </trkpt>
      <trkpt lat="45.851648636162281" lon="9.461487270891666">
        <ele>1274.3599999999999</ele>
        <time>2015-06-20T07:05:18Z</time>
      </trkpt>
      <trkpt lat="45.851638996973634" lon="9.461474949494004">
        <ele>1275.3299999999999</ele>
        <time>2015-06-20T07:05:33Z</time>
      </trkpt>
      <trkpt lat="45.851614270359278" lon="9.461505627259612">
        <ele>1277.73</ele>
        <time>2015-06-20T07:05:48Z</time>
      </trkpt>
      <trkpt lat="45.851622233167291" lon="9.461488779634237">
        <ele>1278.21</ele>
        <time>2015-06-20T07:06:01Z</time>
      </trkpt>
      <trkpt lat="45.851610163226724" lon="9.461504789069295">
        <ele>1279.1700000000001</ele>
        <time>2015-06-20T07:06:13Z</time>
      </trkpt>
      <trkpt lat="45.851612510159612" lon="9.461510069668293">
        <ele>1280.1300000000001</ele>
        <time>2015-06-20T07:06:24Z</time>
      </trkpt>
      <trkpt lat="45.851579234004021" lon="9.461481822654605">
        <ele>1280.6099999999999</ele>
        <time>2015-06-20T07:06:44Z</time>
      </trkpt>
      <trkpt lat="45.851605720818043" lon="9.461502274498344">
        <ele>1283.5</ele>
        <time>2015-06-20T07:07:04Z</time>
      </trkpt>
      <trkpt lat="45.851582335308194" lon="9.461559690535069">
        <ele>1284.46</ele>
        <time>2015-06-20T07:07:22Z</time>
      </trkpt>
      <trkpt lat="45.851566409692168" lon="9.461557678878307">
        <ele>1285.4200000000001</ele>
        <time>2015-06-20T07:07:39Z</time>
      </trkpt>
      <trkpt lat="45.851552411913872" lon="9.461550218984485">
        <ele>1286.8599999999999</ele>
        <time>2015-06-20T07:07:55Z</time>
      </trkpt>
      <trkpt lat="45.851548472419381" lon="9.461589111015201">
        <ele>1288.78</ele>
        <time>2015-06-20T07:08:10Z</time>
      </trkpt>
      <trkpt lat="45.851518549025059" lon="9.461573520675302">
        <ele>1290.71</ele>
        <time>2015-06-20T07:08:22Z</time>
      </trkpt>
      <trkpt lat="45.851517459377646" lon="9.461562372744083">
        <ele>1292.1500000000001</ele>
        <time>2015-06-20T07:08:32Z</time>
      </trkpt>
      <trkpt lat="45.851539419963956" lon="9.461570838466287">
        <ele>1293.1099999999999</ele>
        <time>2015-06-20T07:08:41Z</time>
      </trkpt>
      <trkpt lat="45.85162416100502" lon="9.461615262553096">
        <ele>1295.03</ele>
        <time>2015-06-20T07:08:56Z</time>
      </trkpt>
      <trkpt lat="45.851615276187658" lon="9.461627416312695">
        <ele>1296.48</ele>
        <time>2015-06-20T07:09:05Z</time>
      </trkpt>
      <trkpt lat="45.851589711382985" lon="9.461605455726385">
        <ele>1297.4400000000001</ele>
        <time>2015-06-20T07:09:23Z</time>
      </trkpt>
      <trkpt lat="45.851579317823052" lon="9.46164870634675">
        <ele>1299.3599999999999</ele>
        <time>2015-06-20T07:09:39Z</time>
      </trkpt>
      <trkpt lat="45.851589376106858" lon="9.461671756580472">
        <ele>1299.8399999999999</ele>
        <time>2015-06-20T07:09:55Z</time>
      </trkpt>
      <trkpt lat="45.851587699726224" lon="9.461725736036897">
        <ele>1301.28</ele>
        <time>2015-06-20T07:10:12Z</time>
      </trkpt>
      <trkpt lat="45.851603792980313" lon="9.46170880459249">
        <ele>1302.72</ele>
        <time>2015-06-20T07:10:31Z</time>
      </trkpt>
      <trkpt lat="45.851585352793336" lon="9.461728166788817">
        <ele>1303.6900000000001</ele>
        <time>2015-06-20T07:10:46Z</time>
      </trkpt>
      <trkpt lat="45.851569510996342" lon="9.461685502901673">
        <ele>1303.6900000000001</ele>
        <time>2015-06-20T07:11:09Z</time>
      </trkpt>
      <trkpt lat="45.851579988375306" lon="9.461697237566114">
        <ele>1306.0899999999999</ele>
        <time>2015-06-20T07:11:29Z</time>
      </trkpt>
      <trkpt lat="45.851575965061784" lon="9.461667984724045">
        <ele>1306.5699999999999</ele>
        <time>2015-06-20T07:11:42Z</time>
      </trkpt>
      <trkpt lat="45.851558949798346" lon="9.461660860106349">
        <ele>1307.53</ele>
        <time>2015-06-20T07:11:57Z</time>
      </trkpt>
      <trkpt lat="45.851543946191669" lon="9.461669242009521">
        <ele>1308.49</ele>
        <time>2015-06-20T07:12:11Z</time>
      </trkpt>
      <trkpt lat="45.851599602028728" lon="9.461678462103009">
        <ele>1309.45</ele>
        <time>2015-06-20T07:12:24Z</time>
      </trkpt>
      <trkpt lat="45.851608235388994" lon="9.461686676368117">
        <ele>1309.9300000000001</ele>
        <time>2015-06-20T07:12:39Z</time>
      </trkpt>
      <trkpt lat="45.851614102721214" lon="9.461694387719035">
        <ele>1310.4100000000001</ele>
        <time>2015-06-20T07:12:54Z</time>
      </trkpt>
      <trkpt lat="45.851618377491832" lon="9.461691873148084">
        <ele>1311.3800000000001</ele>
        <time>2015-06-20T07:13:16Z</time>
      </trkpt>
      <trkpt lat="45.851632542908192" lon="9.461722047999501">
        <ele>1312.8199999999999</ele>
        <time>2015-06-20T07:13:31Z</time>
      </trkpt>
      <trkpt lat="45.851651150733232" lon="9.461740907281637">
        <ele>1313.78</ele>
        <time>2015-06-20T07:13:48Z</time>
      </trkpt>
      <trkpt lat="45.851688534021378" lon="9.46174006909132">
        <ele>1314.74</ele>
        <time>2015-06-20T07:14:03Z</time>
      </trkpt>
      <trkpt lat="45.851698676124215" lon="9.461735291406512">
        <ele>1316.1800000000001</ele>
        <time>2015-06-20T07:14:15Z</time>
      </trkpt>
      <trkpt lat="45.851702280342579" lon="9.461756162345409">
        <ele>1316.6600000000001</ele>
        <time>2015-06-20T07:14:27Z</time>
      </trkpt>
      <trkpt lat="45.851711919531226" lon="9.461780302226543">
        <ele>1317.6199999999999</ele>
        <time>2015-06-20T07:14:40Z</time>
      </trkpt>
      <trkpt lat="45.85171359591186" lon="9.461759263649583">
        <ele>1319.0699999999999</ele>
        <time>2015-06-20T07:14:53Z</time>
      </trkpt>
      <trkpt lat="45.851705046370625" lon="9.461763119325042">
        <ele>1320.03</ele>
        <time>2015-06-20T07:15:08Z</time>
      </trkpt>
      <trkpt lat="45.851714350283146" lon="9.461750714108348">
        <ele>1321.47</ele>
        <time>2015-06-20T07:15:20Z</time>
      </trkpt>
      <trkpt lat="45.851721642538905" lon="9.461750546470285">
        <ele>1322.9100000000001</ele>
        <time>2015-06-20T07:15:30Z</time>
      </trkpt>
      <trkpt lat="45.851723402738571" lon="9.461755827069283">
        <ele>1324.3499999999999</ele>
        <time>2015-06-20T07:15:43Z</time>
      </trkpt>
      <trkpt lat="45.851727928966284" lon="9.461770076304674">
        <ele>1325.8</ele>
        <time>2015-06-20T07:15:58Z</time>
      </trkpt>
      <trkpt lat="45.851762546226382" lon="9.461791198700666">
        <ele>1328.2</ele>
        <time>2015-06-20T07:16:16Z</time>
      </trkpt>
      <trkpt lat="45.851754667237401" lon="9.461869904771447">
        <ele>1329.1600000000001</ele>
        <time>2015-06-20T07:16:29Z</time>
      </trkpt>
      <trkpt lat="45.851742764934897" lon="9.461904354393482">
        <ele>1329.6400000000001</ele>
        <time>2015-06-20T07:16:47Z</time>
      </trkpt>
      <trkpt lat="45.851757852360606" lon="9.461890356615186">
        <ele>1330.1199999999999</ele>
        <time>2015-06-20T07:17:01Z</time>
      </trkpt>
      <trkpt lat="45.851772855967283" lon="9.461917765438557">
        <ele>1333.49</ele>
        <time>2015-06-20T07:17:10Z</time>
      </trkpt>
      <trkpt lat="45.851782746613026" lon="9.461954059079289">
        <ele>1335.8900000000001</ele>
        <time>2015-06-20T07:17:28Z</time>
      </trkpt>
      <trkpt lat="45.851810155436397" lon="9.46195263415575">
        <ele>1337.8099999999999</ele>
        <time>2015-06-20T07:17:43Z</time>
      </trkpt>
      <trkpt lat="45.851804539561272" lon="9.461999321356416">
        <ele>1340.7</ele>
        <time>2015-06-20T07:17:58Z</time>
      </trkpt>
      <trkpt lat="45.85181669332087" lon="9.462128821760416">
        <ele>1343.0999999999999</ele>
        <time>2015-06-20T07:18:10Z</time>
      </trkpt>
      <trkpt lat="45.851821303367615" lon="9.462165702134371">
        <ele>1345.02</ele>
        <time>2015-06-20T07:18:22Z</time>
      </trkpt>
      <trkpt lat="45.851872349157929" lon="9.462114656344056">
        <ele>1345.02</ele>
        <time>2015-06-20T07:18:33Z</time>
      </trkpt>
      <trkpt lat="45.851859021931887" lon="9.462120356038213">
        <ele>1346.9400000000001</ele>
        <time>2015-06-20T07:18:49Z</time>
      </trkpt>
      <trkpt lat="45.851828344166279" lon="9.462204342707992">
        <ele>1349.3499999999999</ele>
        <time>2015-06-20T07:19:05Z</time>
      </trkpt>
      <trkpt lat="45.851846532896161" lon="9.462196547538042">
        <ele>1349.3499999999999</ele>
        <time>2015-06-20T07:19:07Z</time>
      </trkpt>
      <trkpt lat="45.851945523172617" lon="9.462133515626192">
        <ele>1351.27</ele>
        <time>2015-06-20T07:19:24Z</time>
      </trkpt>
      <trkpt lat="45.851813675835729" lon="9.46224432438612">
        <ele>1350.79</ele>
        <time>2015-06-20T07:19:52Z</time>
      </trkpt>
      <trkpt lat="45.851702531799674" lon="9.462283803150058">
        <ele>1350.79</ele>
        <time>2015-06-20T07:20:06Z</time>
      </trkpt>
      <trkpt lat="45.851570349186659" lon="9.462282713502646">
        <ele>1352.23</ele>
        <time>2015-06-20T07:20:26Z</time>
      </trkpt>
      <trkpt lat="45.852046525105834" lon="9.462109794840217">
        <ele>1355.5999999999999</ele>
        <time>2015-06-20T07:21:14Z</time>
      </trkpt>
      <trkpt lat="45.851963208988309" lon="9.462178945541382">
        <ele>1357.52</ele>
        <time>2015-06-20T07:21:29Z</time>
      </trkpt>
      <trkpt lat="45.851897327229381" lon="9.462165702134371">
        <ele>1358.48</ele>
        <time>2015-06-20T07:21:46Z</time>
      </trkpt>
      <trkpt lat="45.851885676383972" lon="9.46217785589397">
        <ele>1358.96</ele>
        <time>2015-06-20T07:22:03Z</time>
      </trkpt>
      <trkpt lat="45.851887771859765" lon="9.462162517011166">
        <ele>1359.9200000000001</ele>
        <time>2015-06-20T07:22:23Z</time>
      </trkpt>
      <trkpt lat="45.851822225376964" lon="9.46218472905457">
        <ele>1360.8800000000001</ele>
        <time>2015-06-20T07:22:39Z</time>
      </trkpt>
      <trkpt lat="45.851817866787314" lon="9.462218172848225">
        <ele>1361.8399999999999</ele>
        <time>2015-06-20T07:22:57Z</time>
      </trkpt>
      <trkpt lat="45.85184401832521" lon="9.462136868387461">
        <ele>1362.3299999999999</ele>
        <time>2015-06-20T07:23:15Z</time>
      </trkpt>
      <trkpt lat="45.851897997781634" lon="9.4620605930686">
        <ele>1364.73</ele>
        <time>2015-06-20T07:23:32Z</time>
      </trkpt>
      <trkpt lat="45.851881233975291" lon="9.462187997996807">
        <ele>1366.6500000000001</ele>
        <time>2015-06-20T07:23:48Z</time>
      </trkpt>
      <trkpt lat="45.851817950606346" lon="9.462270978838205">
        <ele>1367.6099999999999</ele>
        <time>2015-06-20T07:24:11Z</time>
      </trkpt>
      <trkpt lat="45.851859021931887" lon="9.462154218927026">
        <ele>1368.5699999999999</ele>
        <time>2015-06-20T07:24:27Z</time>
      </trkpt>
      <trkpt lat="45.851809903979301" lon="9.462267374619842">
        <ele>1369.05</ele>
        <time>2015-06-20T07:24:51Z</time>
      </trkpt>
      <trkpt lat="45.8518220577389" lon="9.462306266650558">
        <ele>1369.05</ele>
        <time>2015-06-20T07:25:10Z</time>
      </trkpt>
      <trkpt lat="45.851845107972622" lon="9.462282042950392">
        <ele>1370.02</ele>
        <time>2015-06-20T07:25:27Z</time>
      </trkpt>
      <trkpt lat="45.851832032203674" lon="9.46227022446692">
        <ele>1372.9000000000001</ele>
        <time>2015-06-20T07:25:34Z</time>
      </trkpt>
      <trkpt lat="45.851835133507848" lon="9.462105520069599">
        <ele>1374.3399999999999</ele>
        <time>2015-06-20T07:25:52Z</time>
      </trkpt>
      <trkpt lat="45.851938733831048" lon="9.462008960545063">
        <ele>1375.3</ele>
        <time>2015-06-20T07:26:08Z</time>
      </trkpt>
      <trkpt lat="45.851978966966271" lon="9.462073585018516">
        <ele>1376.75</ele>
        <time>2015-06-20T07:26:40Z</time>
      </trkpt>
      <trkpt lat="45.851968321949244" lon="9.462351696565747">
        <ele>1384.9200000000001</ele>
        <time>2015-06-20T07:28:35Z</time>
      </trkpt>
      <trkpt lat="45.851911911740899" lon="9.462470468133688">
        <ele>1387.3199999999999</ele>
        <time>2015-06-20T07:28:54Z</time>
      </trkpt>
      <trkpt lat="45.851873019710183" lon="9.462468372657895">
        <ele>1387.8</ele>
        <time>2015-06-20T07:29:08Z</time>
      </trkpt>
      <trkpt lat="45.851861787959933" lon="9.462448842823505">
        <ele>1389.72</ele>
        <time>2015-06-20T07:29:23Z</time>
      </trkpt>
      <trkpt lat="45.851887604221702" lon="9.462467450648546">
        <ele>1391.1700000000001</ele>
        <time>2015-06-20T07:29:34Z</time>
      </trkpt>
      <trkpt lat="45.851894896477461" lon="9.462482035160065">
        <ele>1392.6099999999999</ele>
        <time>2015-06-20T07:29:49Z</time>
      </trkpt>
      <trkpt lat="45.851860782131553" lon="9.462395450100303">
        <ele>1393.0899999999999</ele>
        <time>2015-06-20T07:30:00Z</time>
      </trkpt>
      <trkpt lat="45.851834630593657" lon="9.462357480078936">
        <ele>1395.49</ele>
        <time>2015-06-20T07:30:09Z</time>
      </trkpt>
      <trkpt lat="45.851797163486481" lon="9.462318671867251">
        <ele>1395.49</ele>
        <time>2015-06-20T07:30:23Z</time>
      </trkpt>
      <trkpt lat="45.851793391630054" lon="9.462292268872261">
        <ele>1396.9300000000001</ele>
        <time>2015-06-20T07:30:34Z</time>
      </trkpt>
      <trkpt lat="45.851810574531555" lon="9.462295705452561">
        <ele>1398.3699999999999</ele>
        <time>2015-06-20T07:30:47Z</time>
      </trkpt>
      <trkpt lat="45.851806048303843" lon="9.462341722100973">
        <ele>1400.78</ele>
        <time>2015-06-20T07:30:59Z</time>
      </trkpt>
      <trkpt lat="45.851806467399001" lon="9.46235278621316">
        <ele>1401.74</ele>
        <time>2015-06-20T07:31:01Z</time>
      </trkpt>
      <trkpt lat="45.851804539561272" lon="9.462413052096963">
        <ele>1404.6199999999999</ele>
        <time>2015-06-20T07:31:10Z</time>
      </trkpt>
      <trkpt lat="45.851785428822041" lon="9.462423445656896">
        <ele>1406.55</ele>
        <time>2015-06-20T07:31:21Z</time>
      </trkpt>
      <trkpt lat="45.851783333346248" lon="9.462435096502304">
        <ele>1408.47</ele>
        <time>2015-06-20T07:31:34Z</time>
      </trkpt>
      <trkpt lat="45.851777214556932" lon="9.462444987148047">
        <ele>1410.8699999999999</ele>
        <time>2015-06-20T07:31:48Z</time>
      </trkpt>
      <trkpt lat="45.851794481277466" lon="9.462468372657895">
        <ele>1412.79</ele>
        <time>2015-06-20T07:32:06Z</time>
      </trkpt>
      <trkpt lat="45.851816441863775" lon="9.462565016001463">
        <ele>1415.2</ele>
        <time>2015-06-20T07:32:23Z</time>
      </trkpt>
      <trkpt lat="45.85185038857162" lon="9.462574236094952">
        <ele>1418.0799999999999</ele>
        <time>2015-06-20T07:32:34Z</time>
      </trkpt>
      <trkpt lat="45.851834965869784" lon="9.462512042373419">
        <ele>1419.52</ele>
        <time>2015-06-20T07:32:58Z</time>
      </trkpt>
      <trkpt lat="45.851825997233391" lon="9.462393103167415">
        <ele>1421.9300000000001</ele>
        <time>2015-06-20T07:33:11Z</time>
      </trkpt>
      <trkpt lat="45.851795487105846" lon="9.46245152503252">
        <ele>1423.3699999999999</ele>
        <time>2015-06-20T07:33:22Z</time>
      </trkpt>
      <trkpt lat="45.851758271455765" lon="9.462603405117989">
        <ele>1426.25</ele>
        <time>2015-06-20T07:33:31Z</time>
      </trkpt>
      <trkpt lat="45.851767743006349" lon="9.462580438703299">
        <ele>1427.21</ele>
        <time>2015-06-20T07:33:41Z</time>
      </trkpt>
      <trkpt lat="45.851723402738571" lon="9.462589910253882">
        <ele>1428.1800000000001</ele>
        <time>2015-06-20T07:33:58Z</time>
      </trkpt>
      <trkpt lat="45.851709572598338" lon="9.462647410109639">
        <ele>1431.0599999999999</ele>
        <time>2015-06-20T07:34:08Z</time>
      </trkpt>
      <trkpt lat="45.851716864854097" lon="9.462658809497953">
        <ele>1433.9400000000001</ele>
        <time>2015-06-20T07:34:22Z</time>
      </trkpt>
      <trkpt lat="45.851721893996" lon="9.462678087875247">
        <ele>1436.3499999999999</ele>
        <time>2015-06-20T07:34:35Z</time>
      </trkpt>
      <trkpt lat="45.8517184574157" lon="9.462720919400454">
        <ele>1438.27</ele>
        <time>2015-06-20T07:34:45Z</time>
      </trkpt>
      <trkpt lat="45.851713176816702" lon="9.462732067331672">
        <ele>1439.71</ele>
        <time>2015-06-20T07:34:58Z</time>
      </trkpt>
      <trkpt lat="45.851715356111526" lon="9.462738102301955">
        <ele>1440.6700000000001</ele>
        <time>2015-06-20T07:35:16Z</time>
      </trkpt>
      <trkpt lat="45.851714937016368" lon="9.462748998776078">
        <ele>1441.6300000000001</ele>
        <time>2015-06-20T07:35:30Z</time>
      </trkpt>
      <trkpt lat="45.851700184866786" lon="9.462784789502621">
        <ele>1445</ele>
        <time>2015-06-20T07:35:40Z</time>
      </trkpt>
      <trkpt lat="45.851677050814033" lon="9.462879588827491">
        <ele>1447.8800000000001</ele>
        <time>2015-06-20T07:35:50Z</time>
      </trkpt>
      <trkpt lat="45.851671937853098" lon="9.462884701788425">
        <ele>1448.3599999999999</ele>
        <time>2015-06-20T07:35:51Z</time>
      </trkpt>
      <trkpt lat="45.851663053035736" lon="9.462946141138673">
        <ele>1450.29</ele>
        <time>2015-06-20T07:36:01Z</time>
      </trkpt>
      <trkpt lat="45.851645031943917" lon="9.463028954342008">
        <ele>1451.73</ele>
        <time>2015-06-20T07:36:10Z</time>
      </trkpt>
      <trkpt lat="45.851645953953266" lon="9.463034905493259">
        <ele>1452.21</ele>
        <time>2015-06-20T07:36:20Z</time>
      </trkpt>
      <trkpt lat="45.851647295057774" lon="9.463032307103276">
        <ele>1451.73</ele>
        <time>2015-06-20T07:36:32Z</time>
      </trkpt>
      <trkpt lat="45.85163539275527" lon="9.463036078959703">
        <ele>1453.1700000000001</ele>
        <time>2015-06-20T07:36:53Z</time>
      </trkpt>
      <trkpt lat="45.851685600355268" lon="9.463056614622474">
        <ele>1455.0899999999999</ele>
        <time>2015-06-20T07:37:02Z</time>
      </trkpt>
      <trkpt lat="45.851716445758939" lon="9.463100032880902">
        <ele>1458.46</ele>
        <time>2015-06-20T07:37:11Z</time>
      </trkpt>
      <trkpt lat="45.851768497377634" lon="9.463130626827478">
        <ele>1460.8599999999999</ele>
        <time>2015-06-20T07:37:21Z</time>
      </trkpt>
      <trkpt lat="45.851827673614025" lon="9.463175470009446">
        <ele>1462.78</ele>
        <time>2015-06-20T07:37:31Z</time>
      </trkpt>
      <trkpt lat="45.851874863728881" lon="9.46324453689158">
        <ele>1465.1900000000001</ele>
        <time>2015-06-20T07:37:42Z</time>
      </trkpt>
      <trkpt lat="45.851899003610015" lon="9.463351992890239">
        <ele>1467.5899999999999</ele>
        <time>2015-06-20T07:37:54Z</time>
      </trkpt>
      <trkpt lat="45.851935716345906" lon="9.46338920854032">
        <ele>1469.51</ele>
        <time>2015-06-20T07:38:03Z</time>
      </trkpt>
      <trkpt lat="45.851992378011346" lon="9.463404128327966">
        <ele>1471.4400000000001</ele>
        <time>2015-06-20T07:38:13Z</time>
      </trkpt>
      <trkpt lat="45.852041495963931" lon="9.463450228795409">
        <ele>1473.3599999999999</ele>
        <time>2015-06-20T07:38:23Z</time>
      </trkpt>
      <trkpt lat="45.852098576724529" lon="9.463506303727627">
        <ele>1475.28</ele>
        <time>2015-06-20T07:38:34Z</time>
      </trkpt>
      <trkpt lat="45.852188682183623" lon="9.463549302890897">
        <ele>1476.72</ele>
        <time>2015-06-20T07:38:47Z</time>
      </trkpt>
      <trkpt lat="45.852229334414005" lon="9.463621135801077">
        <ele>1479.1300000000001</ele>
        <time>2015-06-20T07:38:58Z</time>
      </trkpt>
      <trkpt lat="45.852240063250065" lon="9.463654244318605">
        <ele>1480.5699999999999</ele>
        <time>2015-06-20T07:39:07Z</time>
      </trkpt>
      <trkpt lat="45.85227744653821" lon="9.46368869394064">
        <ele>1481.53</ele>
        <time>2015-06-20T07:39:19Z</time>
      </trkpt>
      <trkpt lat="45.852337628602982" lon="9.463744685053825">
        <ele>1483.9300000000001</ele>
        <time>2015-06-20T07:39:30Z</time>
      </trkpt>
      <trkpt lat="45.852359840646386" lon="9.463759604841471">
        <ele>1484.4100000000001</ele>
        <time>2015-06-20T07:39:33Z</time>
      </trkpt>
      <trkpt lat="45.852394793182611" lon="9.463782906532288">
        <ele>1485.8499999999999</ele>
        <time>2015-06-20T07:39:39Z</time>
      </trkpt>
      <trkpt lat="45.852454472333193" lon="9.463844262063503">
        <ele>1487.78</ele>
        <time>2015-06-20T07:39:49Z</time>
      </trkpt>
      <trkpt lat="45.852497387677431" lon="9.463895978406072">
        <ele>1489.7</ele>
        <time>2015-06-20T07:39:58Z</time>
      </trkpt>
      <trkpt lat="45.852532843127847" lon="9.463952220976353">
        <ele>1491.6199999999999</ele>
        <time>2015-06-20T07:40:08Z</time>
      </trkpt>
      <trkpt lat="45.852554719895124" lon="9.464021706953645">
        <ele>1493.55</ele>
        <time>2015-06-20T07:40:16Z</time>
      </trkpt>
      <trkpt lat="45.852571064606309" lon="9.464083397760987">
        <ele>1495.47</ele>
        <time>2015-06-20T07:40:24Z</time>
      </trkpt>
      <trkpt lat="45.852591516450047" lon="9.464122792705894">
        <ele>1496.9100000000001</ele>
        <time>2015-06-20T07:40:33Z</time>
      </trkpt>
      <trkpt lat="45.852606436237693" lon="9.464190015569329">
        <ele>1499.3099999999999</ele>
        <time>2015-06-20T07:40:43Z</time>
      </trkpt>
      <trkpt lat="45.852613393217325" lon="9.464258747175336">
        <ele>1501.72</ele>
        <time>2015-06-20T07:40:53Z</time>
      </trkpt>
      <trkpt lat="45.852636946365237" lon="9.464336112141609">
        <ele>1504.5999999999999</ele>
        <time>2015-06-20T07:41:05Z</time>
      </trkpt>
      <trkpt lat="45.852657733485103" lon="9.464409956708551">
        <ele>1507.48</ele>
        <time>2015-06-20T07:41:17Z</time>
      </trkpt>
      <trkpt lat="45.852708024904132" lon="9.464415488764644">
        <ele>1509.4100000000001</ele>
        <time>2015-06-20T07:41:25Z</time>
      </trkpt>
      <trkpt lat="45.852758903056383" lon="9.464438958093524">
        <ele>1511.8099999999999</ele>
        <time>2015-06-20T07:41:39Z</time>
      </trkpt>
      <trkpt lat="45.852790754288435" lon="9.464477933943272">
        <ele>1513.73</ele>
        <time>2015-06-20T07:41:50Z</time>
      </trkpt>
      <trkpt lat="45.852821264415979" lon="9.464534763246775">
        <ele>1515.6600000000001</ele>
        <time>2015-06-20T07:41:59Z</time>
      </trkpt>
      <trkpt lat="45.852835513651371" lon="9.464604333043098">
        <ele>1518.54</ele>
        <time>2015-06-20T07:42:11Z</time>
      </trkpt>
      <trkpt lat="45.852874321863055" lon="9.464692426845431">
        <ele>1521.4200000000001</ele>
        <time>2015-06-20T07:42:26Z</time>
      </trkpt>
      <trkpt lat="45.852916650474072" lon="9.464746741577983">
        <ele>1523.3499999999999</ele>
        <time>2015-06-20T07:42:37Z</time>
      </trkpt>
      <trkpt lat="45.852961577475071" lon="9.464820250868797">
        <ele>1525.75</ele>
        <time>2015-06-20T07:42:49Z</time>
      </trkpt>
      <trkpt lat="45.85300306789577" lon="9.464865764603019">
        <ele>1527.6700000000001</ele>
        <time>2015-06-20T07:43:00Z</time>
      </trkpt>
      <trkpt lat="45.852996613830328" lon="9.464940614998341">
        <ele>1530.5599999999999</ele>
        <time>2015-06-20T07:43:11Z</time>
      </trkpt>
      <trkpt lat="45.852990746498108" lon="9.465009598061442">
        <ele>1532.96</ele>
        <time>2015-06-20T07:43:22Z</time>
      </trkpt>
      <trkpt lat="45.853017903864384" lon="9.465049328282476">
        <ele>1534.4000000000001</ele>
        <time>2015-06-20T07:43:30Z</time>
      </trkpt>
      <trkpt lat="45.853032656013966" lon="9.465116215869784">
        <ele>1536.8</ele>
        <time>2015-06-20T07:43:42Z</time>
      </trkpt>
      <trkpt lat="45.853027040138841" lon="9.465105319395661">
        <ele>1536.3199999999999</ele>
        <time>2015-06-20T07:43:51Z</time>
      </trkpt>
      <trkpt lat="45.853028381243348" lon="9.465107247233391">
        <ele>1536.8</ele>
        <time>2015-06-20T07:44:22Z</time>
      </trkpt>
      <trkpt lat="45.853024357929826" lon="9.46512040682137">
        <ele>1537.77</ele>
        <time>2015-06-20T07:44:39Z</time>
      </trkpt>
      <trkpt lat="45.853006672114134" lon="9.465120490640402">
        <ele>1538.25</ele>
        <time>2015-06-20T07:44:49Z</time>
      </trkpt>
      <trkpt lat="45.853017652407289" lon="9.465143959969282">
        <ele>1538.25</ele>
        <time>2015-06-20T07:45:01Z</time>
      </trkpt>
      <trkpt lat="45.853036511689425" lon="9.465238004922867">
        <ele>1541.1300000000001</ele>
        <time>2015-06-20T07:45:13Z</time>
      </trkpt>
      <trkpt lat="45.853044893592596" lon="9.465333307161927">
        <ele>1544.01</ele>
        <time>2015-06-20T07:45:23Z</time>
      </trkpt>
      <trkpt lat="45.853059813380241" lon="9.465413941070437">
        <ele>1546.4200000000001</ele>
        <time>2015-06-20T07:45:34Z</time>
      </trkpt>
      <trkpt lat="45.853109769523144" lon="9.465477140620351">
        <ele>1547.8599999999999</ele>
        <time>2015-06-20T07:45:44Z</time>
      </trkpt>
      <trkpt lat="45.85319166071713" lon="9.465443529188633">
        <ele>1550.26</ele>
        <time>2015-06-20T07:45:57Z</time>
      </trkpt>
      <trkpt lat="45.853219237178564" lon="9.4654003623873">
        <ele>1552.6700000000001</ele>
        <time>2015-06-20T07:46:08Z</time>
      </trkpt>
      <trkpt lat="45.853288136422634" lon="9.465394411236048">
        <ele>1555.0699999999999</ele>
        <time>2015-06-20T07:46:18Z</time>
      </trkpt>
      <trkpt lat="45.853346977382898" lon="9.465451659634709">
        <ele>1556.99</ele>
        <time>2015-06-20T07:46:30Z</time>
      </trkpt>
      <trkpt lat="45.853393077850342" lon="9.465398686006665">
        <ele>1559.8800000000001</ele>
        <time>2015-06-20T07:46:41Z</time>
      </trkpt>
      <trkpt lat="45.853468598797917" lon="9.465393153950572">
        <ele>1562.28</ele>
        <time>2015-06-20T07:46:53Z</time>
      </trkpt>
      <trkpt lat="45.853541772812605" lon="9.465406816452742">
        <ele>1563.72</ele>
        <time>2015-06-20T07:47:04Z</time>
      </trkpt>
      <trkpt lat="45.853571025654674" lon="9.465468088164926">
        <ele>1565.6400000000001</ele>
        <time>2015-06-20T07:47:14Z</time>
      </trkpt>
      <trkpt lat="45.853558117523789" lon="9.46551913395524">
        <ele>1567.5699999999999</ele>
        <time>2015-06-20T07:47:26Z</time>
      </trkpt>
      <trkpt lat="45.853604720905423" lon="9.465508656576276">
        <ele>1569.01</ele>
        <time>2015-06-20T07:47:32Z</time>
      </trkpt>
      <trkpt lat="45.853653252124786" lon="9.465476302430034">
        <ele>1570.9300000000001</ele>
        <time>2015-06-20T07:47:42Z</time>
      </trkpt>
      <trkpt lat="45.853689797222614" lon="9.465517876669765">
        <ele>1573.8199999999999</ele>
        <time>2015-06-20T07:47:53Z</time>
      </trkpt>
      <trkpt lat="45.853699771687388" lon="9.465503543615341">
        <ele>1573.8199999999999</ele>
        <time>2015-06-20T07:47:55Z</time>
      </trkpt>
      <trkpt lat="45.8537682518363" lon="9.465451324358583">
        <ele>1576.22</ele>
        <time>2015-06-20T07:48:05Z</time>
      </trkpt>
      <trkpt lat="45.853810077533126" lon="9.465476972982287">
        <ele>1577.1800000000001</ele>
        <time>2015-06-20T07:48:11Z</time>
      </trkpt>
      <trkpt lat="45.853864727541804" lon="9.465507650747895">
        <ele>1579.0999999999999</ele>
        <time>2015-06-20T07:48:21Z</time>
      </trkpt>
      <trkpt lat="45.853940164670348" lon="9.46552692912519">
        <ele>1581.51</ele>
        <time>2015-06-20T07:48:34Z</time>
      </trkpt>
      <trkpt lat="45.854001520201564" lon="9.465542687103152">
        <ele>1583.4300000000001</ele>
        <time>2015-06-20T07:48:44Z</time>
      </trkpt>
      <trkpt lat="45.854018535465002" lon="9.465554924681783">
        <ele>1584.3900000000001</ele>
        <time>2015-06-20T07:48:48Z</time>
      </trkpt>
      <trkpt lat="45.854076538234949" lon="9.46557629853487">
        <ele>1585.8299999999999</ele>
        <time>2015-06-20T07:48:57Z</time>
      </trkpt>
      <trkpt lat="45.854111323133111" lon="9.46562172845006">
        <ele>1587.75</ele>
        <time>2015-06-20T07:49:07Z</time>
      </trkpt>
      <trkpt lat="45.854080896824598" lon="9.465664392337203">
        <ele>1590.6400000000001</ele>
        <time>2015-06-20T07:49:16Z</time>
      </trkpt>
      <trkpt lat="45.854040663689375" lon="9.465676881372929">
        <ele>1592.5599999999999</ele>
        <time>2015-06-20T07:49:25Z</time>
      </trkpt>
      <trkpt lat="45.854023480787873" lon="9.465718371793628">
        <ele>1595.45</ele>
        <time>2015-06-20T07:49:35Z</time>
      </trkpt>
      <trkpt lat="45.854045189917088" lon="9.465747540816665">
        <ele>1597.3699999999999</ele>
        <time>2015-06-20T07:49:42Z</time>
      </trkpt>
      <trkpt lat="45.853984085842967" lon="9.465766400098801">
        <ele>1598.8099999999999</ele>
        <time>2015-06-20T07:49:51Z</time>
      </trkpt>
      <trkpt lat="45.853958940133452" lon="9.465806297957897">
        <ele>1600.25</ele>
        <time>2015-06-20T07:50:01Z</time>
      </trkpt>
      <trkpt lat="45.854013422504067" lon="9.465819960460067">
        <ele>1602.1700000000001</ele>
        <time>2015-06-20T07:50:12Z</time>
      </trkpt>
      <trkpt lat="45.854051979258657" lon="9.465853990986943">
        <ele>1604.5799999999999</ele>
        <time>2015-06-20T07:50:22Z</time>
      </trkpt>
      <trkpt lat="45.854080813005567" lon="9.465861450880766">
        <ele>1606.98</ele>
        <time>2015-06-20T07:50:33Z</time>
      </trkpt>
      <trkpt lat="45.854126997292042" lon="9.465863965451717">
        <ele>1609.3800000000001</ele>
        <time>2015-06-20T07:50:43Z</time>
      </trkpt>
      <trkpt lat="45.854135546833277" lon="9.465950466692448">
        <ele>1611.3099999999999</ele>
        <time>2015-06-20T07:50:55Z</time>
      </trkpt>
      <trkpt lat="45.854178126901388" lon="9.465967733412981">
        <ele>1614.1900000000001</ele>
        <time>2015-06-20T07:51:06Z</time>
      </trkpt>
      <trkpt lat="45.854219868779182" lon="9.466012325137854">
        <ele>1616.5899999999999</ele>
        <time>2015-06-20T07:51:17Z</time>
      </trkpt>
      <trkpt lat="45.854225484654307" lon="9.466003105044365">
        <ele>1617.0699999999999</ele>
        <time>2015-06-20T07:51:28Z</time>
      </trkpt>
      <trkpt lat="45.854264963418245" lon="9.466052390635014">
        <ele>1618.52</ele>
        <time>2015-06-20T07:51:37Z</time>
      </trkpt>
      <trkpt lat="45.854253815487027" lon="9.46606395766139">
        <ele>1619</ele>
        <time>2015-06-20T07:51:50Z</time>
      </trkpt>
      <trkpt lat="45.854313997551799" lon="9.46613478474319">
        <ele>1620.9200000000001</ele>
        <time>2015-06-20T07:52:00Z</time>
      </trkpt>
      <trkpt lat="45.854367557913065" lon="9.466129755601287">
        <ele>1623.8</ele>
        <time>2015-06-20T07:52:10Z</time>
      </trkpt>
      <trkpt lat="45.854378873482347" lon="9.466183567419648">
        <ele>1625.73</ele>
        <time>2015-06-20T07:52:18Z</time>
      </trkpt>
      <trkpt lat="45.854436540976167" lon="9.466198906302452">
        <ele>1628.1300000000001</ele>
        <time>2015-06-20T07:52:28Z</time>
      </trkpt>
      <trkpt lat="45.854494292289019" lon="9.466187926009297">
        <ele>1630.05</ele>
        <time>2015-06-20T07:52:39Z</time>
      </trkpt>
      <trkpt lat="45.85451147519052" lon="9.46619831956923">
        <ele>1631.01</ele>
        <time>2015-06-20T07:52:50Z</time>
      </trkpt>
      <trkpt lat="45.854517426341772" lon="9.466200498864055">
        <ele>1631.49</ele>
        <time>2015-06-20T07:53:07Z</time>
      </trkpt>
      <trkpt lat="45.85449923761189" lon="9.466285491362214">
        <ele>1632.46</ele>
        <time>2015-06-20T07:53:22Z</time>
      </trkpt>
      <trkpt lat="45.854488592594862" lon="9.466359252110124">
        <ele>1635.8199999999999</ele>
        <time>2015-06-20T07:53:33Z</time>
      </trkpt>
      <trkpt lat="45.854525305330753" lon="9.466412225738168">
        <ele>1638.7</ele>
        <time>2015-06-20T07:53:43Z</time>
      </trkpt>
      <trkpt lat="45.854528825730085" lon="9.466428318992257">
        <ele>1641.5899999999999</ele>
        <time>2015-06-20T07:53:52Z</time>
      </trkpt>
      <trkpt lat="45.854565035551786" lon="9.466403424739838">
        <ele>1643.99</ele>
        <time>2015-06-20T07:54:02Z</time>
      </trkpt>
      <trkpt lat="45.85458867251873" lon="9.466401664540172">
        <ele>1645.4300000000001</ele>
        <time>2015-06-20T07:54:08Z</time>
      </trkpt>
      <trkpt lat="45.854631084948778" lon="9.466444998979569">
        <ele>1647.3599999999999</ele>
        <time>2015-06-20T07:54:16Z</time>
      </trkpt>
      <trkpt lat="45.854646256193519" lon="9.466444915160537">
        <ele>1648.3199999999999</ele>
        <time>2015-06-20T07:54:19Z</time>
      </trkpt>
      <trkpt lat="45.854669557884336" lon="9.466498475521803">
        <ele>1651.2</ele>
        <time>2015-06-20T07:54:29Z</time>
      </trkpt>
      <trkpt lat="45.854664444923401" lon="9.466486070305109">
        <ele>1650.72</ele>
        <time>2015-06-20T07:54:44Z</time>
      </trkpt>
      <trkpt lat="45.854666959494352" lon="9.466484058648348">
        <ele>1650.72</ele>
        <time>2015-06-20T07:54:57Z</time>
      </trkpt>
      <trkpt lat="45.854664025828242" lon="9.466486321762204">
        <ele>1650.24</ele>
        <time>2015-06-20T07:55:09Z</time>
      </trkpt>
      <trkpt lat="45.854655224829912" lon="9.466495206579566">
        <ele>1650.72</ele>
        <time>2015-06-20T07:55:26Z</time>
      </trkpt>
      <trkpt lat="45.85466243326664" lon="9.466512389481068">
        <ele>1650.72</ele>
        <time>2015-06-20T07:55:40Z</time>
      </trkpt>
      <trkpt lat="45.854677688330412" lon="9.466521358117461">
        <ele>1652.1600000000001</ele>
        <time>2015-06-20T07:55:58Z</time>
      </trkpt>
      <trkpt lat="45.854665534570813" lon="9.466520771384239">
        <ele>1653.1199999999999</ele>
        <time>2015-06-20T07:56:07Z</time>
      </trkpt>
      <trkpt lat="45.854720687493682" lon="9.466552957892418">
        <ele>1652.6400000000001</ele>
        <time>2015-06-20T07:56:18Z</time>
      </trkpt>
      <trkpt lat="45.854726051911712" lon="9.466561926528812">
        <ele>1652.6400000000001</ele>
        <time>2015-06-20T07:56:19Z</time>
      </trkpt>
      <trkpt lat="45.85482319816947" lon="9.466598136350513">
        <ele>1652.1600000000001</ele>
        <time>2015-06-20T07:56:30Z</time>
      </trkpt>
      <trkpt lat="45.854880446568131" lon="9.466600818559527">
        <ele>1652.1600000000001</ele>
        <time>2015-06-20T07:56:40Z</time>
      </trkpt>
      <trkpt lat="45.854892432689667" lon="9.466606769710779">
        <ele>1651.6800000000001</ele>
        <time>2015-06-20T07:56:42Z</time>
      </trkpt>
      <trkpt lat="45.854978179559112" lon="9.466634849086404">
        <ele>1651.6800000000001</ele>
        <time>2015-06-20T07:56:54Z</time>
      </trkpt>
      <trkpt lat="45.855023441836238" lon="9.466645829379559">
        <ele>1654.5699999999999</ele>
        <time>2015-06-20T07:57:05Z</time>
      </trkpt>
      <trkpt lat="45.855066776275635" lon="9.466666951775551">
        <ele>1656.97</ele>
        <time>2015-06-20T07:57:13Z</time>
      </trkpt>
      <trkpt lat="45.855105500668287" lon="9.46670014411211">
        <ele>1659.3699999999999</ele>
        <time>2015-06-20T07:57:23Z</time>
      </trkpt>
      <trkpt lat="45.85510223172605" lon="9.466752782464027">
        <ele>1661.78</ele>
        <time>2015-06-20T07:57:32Z</time>
      </trkpt>
      <trkpt lat="45.855100387707353" lon="9.466816317290068">
        <ele>1663.7</ele>
        <time>2015-06-20T07:57:42Z</time>
      </trkpt>
      <trkpt lat="45.855140704661608" lon="9.466805085539818">
        <ele>1665.6199999999999</ele>
        <time>2015-06-20T07:57:52Z</time>
      </trkpt>
      <trkpt lat="45.855156630277634" lon="9.466872727498412">
        <ele>1667.0599999999999</ele>
        <time>2015-06-20T07:58:02Z</time>
      </trkpt>
      <trkpt lat="45.85512125864625" lon="9.466954115778208">
        <ele>1668.99</ele>
        <time>2015-06-20T07:58:14Z</time>
      </trkpt>
      <trkpt lat="45.855113714933395" lon="9.467079509049654">
        <ele>1671.8699999999999</ele>
        <time>2015-06-20T07:58:28Z</time>
      </trkpt>
      <trkpt lat="45.855158222839236" lon="9.46715016849339">
        <ele>1674.27</ele>
        <time>2015-06-20T07:58:39Z</time>
      </trkpt>
      <trkpt lat="45.855227541178465" lon="9.467167854309082">
        <ele>1674.75</ele>
        <time>2015-06-20T07:58:48Z</time>
      </trkpt>
      <trkpt lat="45.855261739343405" lon="9.467189311981201">
        <ele>1675.72</ele>
        <time>2015-06-20T07:58:53Z</time>
      </trkpt>
      <trkpt lat="45.855328878387809" lon="9.467231808230281">
        <ele>1678.1199999999999</ele>
        <time>2015-06-20T07:59:04Z</time>
      </trkpt>
      <trkpt lat="45.855344133451581" lon="9.467286793515086">
        <ele>1681.48</ele>
        <time>2015-06-20T07:59:14Z</time>
      </trkpt>
      <trkpt lat="45.855369865894318" lon="9.467343874275684">
        <ele>1681.48</ele>
        <time>2015-06-20T07:59:19Z</time>
      </trkpt>
      <trkpt lat="45.855378666892648" lon="9.467379665002227">
        <ele>1681.96</ele>
        <time>2015-06-20T07:59:22Z</time>
      </trkpt>
      <trkpt lat="45.855403477326035" lon="9.467422999441624">
        <ele>1682.4400000000001</ele>
        <time>2015-06-20T07:59:26Z</time>
      </trkpt>
      <trkpt lat="45.855432478711009" lon="9.467440014705062">
        <ele>1682.4400000000001</ele>
        <time>2015-06-20T07:59:29Z</time>
      </trkpt>
      <trkpt lat="45.855471957474947" lon="9.46760606020689">
        <ele>1684.8499999999999</ele>
        <time>2015-06-20T07:59:43Z</time>
      </trkpt>
      <trkpt lat="45.855477740988135" lon="9.467609412968159">
        <ele>1684.8499999999999</ele>
        <time>2015-06-20T07:59:44Z</time>
      </trkpt>
      <trkpt lat="45.855546304956079" lon="9.467627936974168">
        <ele>1687.25</ele>
        <time>2015-06-20T07:59:56Z</time>
      </trkpt>
      <trkpt lat="45.855552088469267" lon="9.467622991651297">
        <ele>1687.25</ele>
        <time>2015-06-20T07:59:57Z</time>
      </trkpt>
      <trkpt lat="45.855548987165093" lon="9.467564485967159">
        <ele>1690.1400000000001</ele>
        <time>2015-06-20T08:00:06Z</time>
      </trkpt>
      <trkpt lat="45.855592489242554" lon="9.467563144862652">
        <ele>1691.5799999999999</ele>
        <time>2015-06-20T08:00:19Z</time>
      </trkpt>
      <trkpt lat="45.855615874752402" lon="9.46754059754312">
        <ele>1693.02</ele>
        <time>2015-06-20T08:00:28Z</time>
      </trkpt>
      <trkpt lat="45.855638086795807" lon="9.46754302829504">
        <ele>1695.9000000000001</ele>
        <time>2015-06-20T08:00:36Z</time>
      </trkpt>
      <trkpt lat="45.855691647157073" lon="9.467537580057979">
        <ele>1697.3399999999999</ele>
        <time>2015-06-20T08:00:45Z</time>
      </trkpt>
      <trkpt lat="45.855731796473265" lon="9.467529114335775">
        <ele>1700.71</ele>
        <time>2015-06-20T08:00:54Z</time>
      </trkpt>
      <trkpt lat="45.855784434825182" lon="9.467510255053639">
        <ele>1702.6300000000001</ele>
        <time>2015-06-20T08:01:03Z</time>
      </trkpt>
      <trkpt lat="45.855849059298635" lon="9.467522827908397">
        <ele>1704.55</ele>
        <time>2015-06-20T08:01:13Z</time>
      </trkpt>
      <trkpt lat="45.855915527790785" lon="9.46756892837584">
        <ele>1706</ele>
        <time>2015-06-20T08:01:23Z</time>
      </trkpt>
      <trkpt lat="45.855957353487611" lon="9.467577813193202">
        <ele>1708.8800000000001</ele>
        <time>2015-06-20T08:01:33Z</time>
      </trkpt>
      <trkpt lat="45.855980655178428" lon="9.467612681910396">
        <ele>1710.3199999999999</ele>
        <time>2015-06-20T08:01:42Z</time>
      </trkpt>
      <trkpt lat="45.855999095365405" lon="9.467610586434603">
        <ele>1712.25</ele>
        <time>2015-06-20T08:01:46Z</time>
      </trkpt>
      <trkpt lat="45.856011416763067" lon="9.467619555070996">
        <ele>1714.6500000000001</ele>
        <time>2015-06-20T08:01:54Z</time>
      </trkpt>
      <trkpt lat="45.85602474398911" lon="9.467584267258644">
        <ele>1717.53</ele>
        <time>2015-06-20T08:02:03Z</time>
      </trkpt>
      <trkpt lat="45.856064055114985" lon="9.467593654990196">
        <ele>1718.97</ele>
        <time>2015-06-20T08:02:11Z</time>
      </trkpt>
      <trkpt lat="45.856080567464232" lon="9.467601031064987">
        <ele>1720.4200000000001</ele>
        <time>2015-06-20T08:02:19Z</time>
      </trkpt>
      <trkpt lat="45.856076795607805" lon="9.467509752139449">
        <ele>1721.8599999999999</ele>
        <time>2015-06-20T08:02:30Z</time>
      </trkpt>
      <trkpt lat="45.856071850284934" lon="9.46743062697351">
        <ele>1723.78</ele>
        <time>2015-06-20T08:02:41Z</time>
      </trkpt>
      <trkpt lat="45.856088362634182" lon="9.467441523447633">
        <ele>1724.26</ele>
        <time>2015-06-20T08:02:50Z</time>
      </trkpt>
      <trkpt lat="45.856074783951044" lon="9.46739642880857">
        <ele>1724.26</ele>
        <time>2015-06-20T08:02:56Z</time>
      </trkpt>
      <trkpt lat="45.856075957417488" lon="9.467358961701393">
        <ele>1724.26</ele>
        <time>2015-06-20T08:03:06Z</time>
      </trkpt>
      <trkpt lat="45.856077214702964" lon="9.467369355261326">
        <ele>1724.74</ele>
        <time>2015-06-20T08:03:19Z</time>
      </trkpt>
      <trkpt lat="45.856079058721662" lon="9.467352172359824">
        <ele>1724.74</ele>
        <time>2015-06-20T08:03:35Z</time>
      </trkpt>
      <trkpt lat="45.856083249673247" lon="9.467384945601225">
        <ele>1724.26</ele>
        <time>2015-06-20T08:03:46Z</time>
      </trkpt>
      <trkpt lat="45.85609070956707" lon="9.467403804883361">
        <ele>1724.74</ele>
        <time>2015-06-20T08:04:08Z</time>
      </trkpt>
      <trkpt lat="45.856106886640191" lon="9.467383520677686">
        <ele>1724.74</ele>
        <time>2015-06-20T08:04:28Z</time>
      </trkpt>
      <trkpt lat="45.856117531657219" lon="9.467400284484029">
        <ele>1725.22</ele>
        <time>2015-06-20T08:04:42Z</time>
      </trkpt>
      <trkpt lat="45.856147538870573" lon="9.467398021370173">
        <ele>1724.74</ele>
        <time>2015-06-20T08:04:52Z</time>
      </trkpt>
      <trkpt lat="45.85622850805521" lon="9.467370361089706">
        <ele>1722.8199999999999</ele>
        <time>2015-06-20T08:05:03Z</time>
      </trkpt>
      <trkpt lat="45.856232196092606" lon="9.467366505414248">
        <ele>1722.3399999999999</ele>
        <time>2015-06-20T08:05:04Z</time>
      </trkpt>
      <trkpt lat="45.856297574937344" lon="9.467325434088707">
        <ele>1720.4200000000001</ele>
        <time>2015-06-20T08:05:12Z</time>
      </trkpt>
      <trkpt lat="45.856389189139009" lon="9.46728696115315">
        <ele>1718.01</ele>
        <time>2015-06-20T08:05:23Z</time>
      </trkpt>
      <trkpt lat="45.856421710923314" lon="9.467268353328109">
        <ele>1717.05</ele>
        <time>2015-06-20T08:05:28Z</time>
      </trkpt>
      <trkpt lat="45.856456663459539" lon="9.467257624492049">
        <ele>1716.5699999999999</ele>
        <time>2015-06-20T08:05:32Z</time>
      </trkpt>
      <trkpt lat="45.856475690379739" lon="9.467265838757157">
        <ele>1717.05</ele>
        <time>2015-06-20T08:05:34Z</time>
      </trkpt>
      <trkpt lat="45.856528831645846" lon="9.467227952554822">
        <ele>1718.97</ele>
        <time>2015-06-20T08:05:44Z</time>
      </trkpt>
      <trkpt lat="45.85650846362114" lon="9.467204650864005">
        <ele>1718.97</ele>
        <time>2015-06-20T08:05:56Z</time>
      </trkpt>
      <trkpt lat="45.856520952656865" lon="9.467185791581869">
        <ele>1718.97</ele>
        <time>2015-06-20T08:06:06Z</time>
      </trkpt>
      <trkpt lat="45.856498405337334" lon="9.467173889279366">
        <ele>1718.97</ele>
        <time>2015-06-20T08:06:22Z</time>
      </trkpt>
      <trkpt lat="45.856472672894597" lon="9.467191239818931">
        <ele>1718.97</ele>
        <time>2015-06-20T08:06:32Z</time>
      </trkpt>
      <trkpt lat="45.856464961543679" lon="9.467193586751819">
        <ele>1718.97</ele>
        <time>2015-06-20T08:06:44Z</time>
      </trkpt>
      <trkpt lat="45.85645716637373" lon="9.467168021947146">
        <ele>1718.97</ele>
        <time>2015-06-20T08:06:59Z</time>
      </trkpt>
      <trkpt lat="45.856471164152026" lon="9.467148156836629">
        <ele>1720.4200000000001</ele>
        <time>2015-06-20T08:07:02Z</time>
      </trkpt>
      <trkpt lat="45.856511732563376" lon="9.467154946178198">
        <ele>1720.4200000000001</ele>
        <time>2015-06-20T08:07:10Z</time>
      </trkpt>
      <trkpt lat="45.856518605723977" lon="9.467139523476362">
        <ele>1722.3399999999999</ele>
        <time>2015-06-20T08:07:21Z</time>
      </trkpt>
      <trkpt lat="45.856566214933991" lon="9.467162741348147">
        <ele>1724.74</ele>
        <time>2015-06-20T08:07:33Z</time>
      </trkpt>
      <trkpt lat="45.856605023145676" lon="9.467167602851987">
        <ele>1725.7</ele>
        <time>2015-06-20T08:07:45Z</time>
      </trkpt>
      <trkpt lat="45.856625642627478" lon="9.467212278395891">
        <ele>1728.1099999999999</ele>
        <time>2015-06-20T08:07:56Z</time>
      </trkpt>
      <trkpt lat="45.856616925448179" lon="9.467215547338128">
        <ele>1729.55</ele>
        <time>2015-06-20T08:08:10Z</time>
      </trkpt>
      <trkpt lat="45.856611058115959" lon="9.467216469347477">
        <ele>1731.47</ele>
        <time>2015-06-20T08:08:26Z</time>
      </trkpt>
      <trkpt lat="45.85661256685853" lon="9.467217475175858">
        <ele>1732.4300000000001</ele>
        <time>2015-06-20T08:08:38Z</time>
      </trkpt>
      <trkpt lat="45.856613405048847" lon="9.467263575643301">
        <ele>1733.8800000000001</ele>
        <time>2015-06-20T08:08:53Z</time>
      </trkpt>
      <trkpt lat="45.856638886034489" lon="9.467262402176857">
        <ele>1734.3599999999999</ele>
        <time>2015-06-20T08:09:09Z</time>
      </trkpt>
      <trkpt lat="45.856736619025469" lon="9.467228958383203">
        <ele>1736.76</ele>
        <time>2015-06-20T08:09:23Z</time>
      </trkpt>
      <trkpt lat="45.85674935951829" lon="9.467233987525106">
        <ele>1738.2</ele>
        <time>2015-06-20T08:09:37Z</time>
      </trkpt>
      <trkpt lat="45.856697391718626" lon="9.467231975868344">
        <ele>1740.1199999999999</ele>
        <time>2015-06-20T08:09:51Z</time>
      </trkpt>
      <trkpt lat="45.856704767793417" lon="9.467233065515757">
        <ele>1742.53</ele>
        <time>2015-06-20T08:10:05Z</time>
      </trkpt>
      <trkpt lat="45.856722118332982" lon="9.467249913141131">
        <ele>1743.49</ele>
        <time>2015-06-20T08:10:17Z</time>
      </trkpt>
      <trkpt lat="45.856745168566704" lon="9.467252511531115">
        <ele>1743.97</ele>
        <time>2015-06-20T08:10:30Z</time>
      </trkpt>
      <trkpt lat="45.856775008141994" lon="9.467245303094387">
        <ele>1745.8900000000001</ele>
        <time>2015-06-20T08:10:42Z</time>
      </trkpt>
      <trkpt lat="45.856760004535317" lon="9.467208338901401">
        <ele>1747.8099999999999</ele>
        <time>2015-06-20T08:10:54Z</time>
      </trkpt>
      <trkpt lat="45.856726812198758" lon="9.467200879007578">
        <ele>1748.29</ele>
        <time>2015-06-20T08:11:05Z</time>
      </trkpt>
      <trkpt lat="45.856725890189409" lon="9.467211188748479">
        <ele>1748.78</ele>
        <time>2015-06-20T08:11:22Z</time>
      </trkpt>
      <trkpt lat="45.856736702844501" lon="9.467214960604906">
        <ele>1748.78</ele>
        <time>2015-06-20T08:11:43Z</time>
      </trkpt>
      <trkpt lat="45.856743659824133" lon="9.467215379700065">
        <ele>1749.74</ele>
        <time>2015-06-20T08:11:53Z</time>
      </trkpt>
      <trkpt lat="45.856784647330642" lon="9.467200543731451">
        <ele>1751.1800000000001</ele>
        <time>2015-06-20T08:12:08Z</time>
      </trkpt>
      <trkpt lat="45.856769476085901" lon="9.467194173485041">
        <ele>1751.1800000000001</ele>
        <time>2015-06-20T08:12:29Z</time>
      </trkpt>
      <trkpt lat="45.856768386438489" lon="9.467188473790884">
        <ele>1752.1400000000001</ele>
        <time>2015-06-20T08:12:44Z</time>
      </trkpt>
      <trkpt lat="45.856762183830142" lon="9.467219486832619">
        <ele>1752.6199999999999</ele>
        <time>2015-06-20T08:13:00Z</time>
      </trkpt>
      <trkpt lat="45.856792274862528" lon="9.467215966433287">
        <ele>1752.6199999999999</ele>
        <time>2015-06-20T08:13:11Z</time>
      </trkpt>
      <trkpt lat="45.856809373944998" lon="9.467218900099397">
        <ele>1755.5</ele>
        <time>2015-06-20T08:13:21Z</time>
      </trkpt>
      <trkpt lat="45.85680509917438" lon="9.467219989746809">
        <ele>1757.4300000000001</ele>
        <time>2015-06-20T08:13:33Z</time>
      </trkpt>
      <trkpt lat="45.856827227398753" lon="9.467229377478361">
        <ele>1759.3499999999999</ele>
        <time>2015-06-20T08:13:46Z</time>
      </trkpt>
      <trkpt lat="45.856798142194748" lon="9.467219738289714">
        <ele>1759.8299999999999</ele>
        <time>2015-06-20T08:14:04Z</time>
      </trkpt>
      <trkpt lat="45.856826724484563" lon="9.467233149334788">
        <ele>1761.75</ele>
        <time>2015-06-20T08:14:19Z</time>
      </trkpt>
      <trkpt lat="45.856846757233143" lon="9.467252511531115">
        <ele>1763.2</ele>
        <time>2015-06-20T08:14:33Z</time>
      </trkpt>
      <trkpt lat="45.85689009167254" lon="9.467266257852316">
        <ele>1762.71</ele>
        <time>2015-06-20T08:14:44Z</time>
      </trkpt>
      <trkpt lat="45.856866957619786" lon="9.46726399473846">
        <ele>1761.75</ele>
        <time>2015-06-20T08:14:55Z</time>
      </trkpt>
      <trkpt lat="45.856867376714945" lon="9.467276567593217">
        <ele>1761.27</ele>
        <time>2015-06-20T08:15:05Z</time>
      </trkpt>
      <trkpt lat="45.856869220733643" lon="9.467297606170178">
        <ele>1760.3099999999999</ele>
        <time>2015-06-20T08:15:16Z</time>
      </trkpt>
      <trkpt lat="45.856925630941987" lon="9.467325769364834">
        <ele>1758.3900000000001</ele>
        <time>2015-06-20T08:15:32Z</time>
      </trkpt>
      <trkpt lat="45.857004001736641" lon="9.467351334169507">
        <ele>1760.3099999999999</ele>
        <time>2015-06-20T08:15:47Z</time>
      </trkpt>
      <trkpt lat="45.85696829482913" lon="9.467306490987539">
        <ele>1761.75</ele>
        <time>2015-06-20T08:15:50Z</time>
      </trkpt>
      <trkpt lat="45.856996458023787" lon="9.467330379411578">
        <ele>1764.1600000000001</ele>
        <time>2015-06-20T08:16:01Z</time>
      </trkpt>
      <trkpt lat="45.857021017000079" lon="9.467369522899389">
        <ele>1766.5599999999999</ele>
        <time>2015-06-20T08:16:11Z</time>
      </trkpt>
      <trkpt lat="45.857013808563352" lon="9.467331636697054">
        <ele>1767.04</ele>
        <time>2015-06-20T08:16:28Z</time>
      </trkpt>
      <trkpt lat="45.857017245143652" lon="9.467367846518755">
        <ele>1768.48</ele>
        <time>2015-06-20T08:16:41Z</time>
      </trkpt>
      <trkpt lat="45.857053706422448" lon="9.467342868447304">
        <ele>1768.96</ele>
        <time>2015-06-20T08:16:57Z</time>
      </trkpt>
      <trkpt lat="45.857025543227792" lon="9.467316884547472">
        <ele>1767.52</ele>
        <time>2015-06-20T08:17:08Z</time>
      </trkpt>
      <trkpt lat="45.857005007565022" lon="9.467331971973181">
        <ele>1767.04</ele>
        <time>2015-06-20T08:17:15Z</time>
      </trkpt>
      <trkpt lat="45.857052030041814" lon="9.467297019436956">
        <ele>1768.48</ele>
        <time>2015-06-20T08:17:26Z</time>
      </trkpt>
      <trkpt lat="45.857061082497239" lon="9.467288972809911">
        <ele>1769.9200000000001</ele>
        <time>2015-06-20T08:17:38Z</time>
      </trkpt>
      <trkpt lat="45.857104333117604" lon="9.467243710532785">
        <ele>1770.8900000000001</ele>
        <time>2015-06-20T08:17:58Z</time>
      </trkpt>
      <trkpt lat="45.857123946771026" lon="9.467212026938796">
        <ele>1771.3699999999999</ele>
        <time>2015-06-20T08:18:07Z</time>
      </trkpt>
      <trkpt lat="45.857110535725951" lon="9.467233149334788">
        <ele>1771.8499999999999</ele>
        <time>2015-06-20T08:18:20Z</time>
      </trkpt>
      <trkpt lat="45.857132412493229" lon="9.467174978926778">
        <ele>1772.3299999999999</ele>
        <time>2015-06-20T08:18:33Z</time>
      </trkpt>
      <trkpt lat="45.857140878215432" lon="9.467151258140802">
        <ele>1773.77</ele>
        <time>2015-06-20T08:18:45Z</time>
      </trkpt>
      <trkpt lat="45.857129395008087" lon="9.467125777155161">
        <ele>1773.77</ele>
        <time>2015-06-20T08:18:57Z</time>
      </trkpt>
      <trkpt lat="45.857124449685216" lon="9.467257456853986">
        <ele>1775.6900000000001</ele>
        <time>2015-06-20T08:19:10Z</time>
      </trkpt>
      <trkpt lat="45.857129562646151" lon="9.467280507087708">
        <ele>1777.1300000000001</ele>
        <time>2015-06-20T08:19:23Z</time>
      </trkpt>
      <trkpt lat="45.857036104425788" lon="9.46723910048604">
        <ele>1778.0999999999999</ele>
        <time>2015-06-20T08:19:37Z</time>
      </trkpt>
      <trkpt lat="45.857042139396071" lon="9.467294504866004">
        <ele>1779.0599999999999</ele>
        <time>2015-06-20T08:19:49Z</time>
      </trkpt>
      <trkpt lat="45.857010958716273" lon="9.467295091599226">
        <ele>1780.02</ele>
        <time>2015-06-20T08:19:59Z</time>
      </trkpt>
      <trkpt lat="45.857028644531965" lon="9.467280423268676">
        <ele>1780.98</ele>
        <time>2015-06-20T08:20:13Z</time>
      </trkpt>
      <trkpt lat="45.857020765542984" lon="9.46728209964931">
        <ele>1781.9400000000001</ele>
        <time>2015-06-20T08:20:24Z</time>
      </trkpt>
      <trkpt lat="45.85702596232295" lon="9.467273885384202">
        <ele>1783.3800000000001</ele>
        <time>2015-06-20T08:20:34Z</time>
      </trkpt>
      <trkpt lat="45.857063932344317" lon="9.467272125184536">
        <ele>1784.8199999999999</ele>
        <time>2015-06-20T08:20:48Z</time>
      </trkpt>
      <trkpt lat="45.857081031426787" lon="9.467265419661999">
        <ele>1786.27</ele>
        <time>2015-06-20T08:20:58Z</time>
      </trkpt>
      <trkpt lat="45.857098298147321" lon="9.46725519374013">
        <ele>1788.1900000000001</ele>
        <time>2015-06-20T08:21:07Z</time>
      </trkpt>
      <trkpt lat="45.857100393623114" lon="9.467248404398561">
        <ele>1790.1099999999999</ele>
        <time>2015-06-20T08:21:20Z</time>
      </trkpt>
      <trkpt lat="45.857139453291893" lon="9.467248320579529">
        <ele>1792.52</ele>
        <time>2015-06-20T08:21:33Z</time>
      </trkpt>
      <trkpt lat="45.857158480212092" lon="9.467238429933786">
        <ele>1793.96</ele>
        <time>2015-06-20T08:21:44Z</time>
      </trkpt>
      <trkpt lat="45.857180105522275" lon="9.467267263680697">
        <ele>1795.8800000000001</ele>
        <time>2015-06-20T08:21:56Z</time>
      </trkpt>
      <trkpt lat="45.85721212439239" lon="9.467297606170178">
        <ele>1797.3199999999999</ele>
        <time>2015-06-20T08:22:08Z</time>
      </trkpt>
      <trkpt lat="45.857216315343976" lon="9.467317555099726">
        <ele>1798.76</ele>
        <time>2015-06-20T08:22:18Z</time>
      </trkpt>
      <trkpt lat="45.857231570407748" lon="9.467322751879692">
        <ele>1799.73</ele>
        <time>2015-06-20T08:22:27Z</time>
      </trkpt>
      <trkpt lat="45.857248585671186" lon="9.46729970164597">
        <ele>1800.21</ele>
        <time>2015-06-20T08:22:43Z</time>
      </trkpt>
      <trkpt lat="45.857232492417097" lon="9.467294588685036">
        <ele>1801.6500000000001</ele>
        <time>2015-06-20T08:22:56Z</time>
      </trkpt>
      <trkpt lat="45.857271049171686" lon="9.467308335006237">
        <ele>1803.5699999999999</ele>
        <time>2015-06-20T08:23:07Z</time>
      </trkpt>
      <trkpt lat="45.857276581227779" lon="9.467312274500728">
        <ele>1805.97</ele>
        <time>2015-06-20T08:23:19Z</time>
      </trkpt>
      <trkpt lat="45.857271887362003" lon="9.46729919873178">
        <ele>1807.4200000000001</ele>
        <time>2015-06-20T08:23:30Z</time>
      </trkpt>
      <trkpt lat="45.857248837128282" lon="9.467278411611915">
        <ele>1807.9000000000001</ele>
        <time>2015-06-20T08:23:45Z</time>
      </trkpt>
      <trkpt lat="45.857306336984038" lon="9.467314369976521">
        <ele>1808.3800000000001</ele>
        <time>2015-06-20T08:23:58Z</time>
      </trkpt>
      <trkpt lat="45.857322346419096" lon="9.467356447130442">
        <ele>1810.3</ele>
        <time>2015-06-20T08:24:07Z</time>
      </trkpt>
      <trkpt lat="45.857312204316258" lon="9.467332307249308">
        <ele>1811.74</ele>
        <time>2015-06-20T08:24:22Z</time>
      </trkpt>
      <trkpt lat="45.857323603704572" lon="9.46736809797585">
        <ele>1813.6600000000001</ele>
        <time>2015-06-20T08:24:32Z</time>
      </trkpt>
      <trkpt lat="45.857340702787042" lon="9.467378994449973">
        <ele>1814.6300000000001</ele>
        <time>2015-06-20T08:24:34Z</time>
      </trkpt>
      <trkpt lat="45.857364255934954" lon="9.467432638630271">
        <ele>1815.5899999999999</ele>
        <time>2015-06-20T08:24:46Z</time>
      </trkpt>
      <trkpt lat="45.857355622574687" lon="9.467449989169836">
        <ele>1816.55</ele>
        <time>2015-06-20T08:24:55Z</time>
      </trkpt>
      <trkpt lat="45.857364842668176" lon="9.467476978898048">
        <ele>1818.95</ele>
        <time>2015-06-20T08:25:08Z</time>
      </trkpt>
      <trkpt lat="45.857376996427774" lon="9.467515032738447">
        <ele>1819.9100000000001</ele>
        <time>2015-06-20T08:25:20Z</time>
      </trkpt>
      <trkpt lat="45.857396693900228" lon="9.467523666098714">
        <ele>1820.3900000000001</ele>
        <time>2015-06-20T08:25:24Z</time>
      </trkpt>
      <trkpt lat="45.857446482405066" lon="9.467607149854302">
        <ele>1820.3900000000001</ele>
        <time>2015-06-20T08:25:34Z</time>
      </trkpt>
      <trkpt lat="45.857498366385698" lon="9.467658698558807">
        <ele>1821.3499999999999</ele>
        <time>2015-06-20T08:25:46Z</time>
      </trkpt>
      <trkpt lat="45.857520326972008" lon="9.467697171494365">
        <ele>1821.8399999999999</ele>
        <time>2015-06-20T08:25:54Z</time>
      </trkpt>
      <trkpt lat="45.857575563713908" lon="9.467746457085013">
        <ele>1821.8399999999999</ele>
        <time>2015-06-20T08:26:06Z</time>
      </trkpt>
      <trkpt lat="45.857591908425093" lon="9.467749474570155">
        <ele>1821.8399999999999</ele>
        <time>2015-06-20T08:26:18Z</time>
      </trkpt>
      <trkpt lat="45.857594506815076" lon="9.467836814001203">
        <ele>1820.3900000000001</ele>
        <time>2015-06-20T08:26:28Z</time>
      </trkpt>
      <trkpt lat="45.85760498419404" lon="9.467824744060636">
        <ele>1821.8399999999999</ele>
        <time>2015-06-20T08:26:39Z</time>
      </trkpt>
      <trkpt lat="45.857631135731936" lon="9.467835305258632">
        <ele>1823.76</ele>
        <time>2015-06-20T08:26:49Z</time>
      </trkpt>
      <trkpt lat="45.857617473229766" lon="9.467899342998862">
        <ele>1825.6800000000001</ele>
        <time>2015-06-20T08:27:00Z</time>
      </trkpt>
      <trkpt lat="45.857626777142286" lon="9.467925410717726">
        <ele>1828.0799999999999</ele>
        <time>2015-06-20T08:27:10Z</time>
      </trkpt>
      <trkpt lat="45.857615964487195" lon="9.467924907803536">
        <ele>1830.49</ele>
        <time>2015-06-20T08:27:24Z</time>
      </trkpt>
      <trkpt lat="45.857646306976676" lon="9.467957010492683">
        <ele>1832.8900000000001</ele>
        <time>2015-06-20T08:27:39Z</time>
      </trkpt>
      <trkpt lat="45.857647731900215" lon="9.468025825917721">
        <ele>1835.29</ele>
        <time>2015-06-20T08:27:54Z</time>
      </trkpt>
      <trkpt lat="45.857643289491534" lon="9.468025155365467">
        <ele>1836.74</ele>
        <time>2015-06-20T08:28:05Z</time>
      </trkpt>
      <trkpt lat="45.857609007507563" lon="9.468040242791176">
        <ele>1838.6600000000001</ele>
        <time>2015-06-20T08:28:14Z</time>
      </trkpt>
      <trkpt lat="45.857615042477846" lon="9.468053821474314">
        <ele>1839.1400000000001</ele>
        <time>2015-06-20T08:28:24Z</time>
      </trkpt>
      <trkpt lat="45.857602301985025" lon="9.468055414035916">
        <ele>1840.0999999999999</ele>
        <time>2015-06-20T08:28:41Z</time>
      </trkpt>
      <trkpt lat="45.857596853747964" lon="9.468070417642593">
        <ele>1840.5799999999999</ele>
        <time>2015-06-20T08:28:49Z</time>
      </trkpt>
      <trkpt lat="45.857606492936611" lon="9.468079218640924">
        <ele>1841.0599999999999</ele>
        <time>2015-06-20T08:29:06Z</time>
      </trkpt>
      <trkpt lat="45.857594925910234" lon="9.468078715726733">
        <ele>1841.0599999999999</ele>
        <time>2015-06-20T08:29:26Z</time>
      </trkpt>
      <trkpt lat="45.857618311420083" lon="9.468112662434578">
        <ele>1843.95</ele>
        <time>2015-06-20T08:29:34Z</time>
      </trkpt>
      <trkpt lat="45.857640439644456" lon="9.46811375208199">
        <ele>1844.4300000000001</ele>
        <time>2015-06-20T08:29:53Z</time>
      </trkpt>
      <trkpt lat="45.857688887044787" lon="9.468187764286995">
        <ele>1846.8299999999999</ele>
        <time>2015-06-20T08:30:03Z</time>
      </trkpt>
      <trkpt lat="45.857714200392365" lon="9.468172593042254">
        <ele>1847.79</ele>
        <time>2015-06-20T08:30:13Z</time>
      </trkpt>
      <trkpt lat="45.857730126008391" lon="9.468181226402521">
        <ele>1848.27</ele>
        <time>2015-06-20T08:30:23Z</time>
      </trkpt>
      <trkpt lat="45.857681594789028" lon="9.468159768730402">
        <ele>1847.79</ele>
        <time>2015-06-20T08:30:31Z</time>
      </trkpt>
      <trkpt lat="45.857705902308226" lon="9.468200672417879">
        <ele>1849.23</ele>
        <time>2015-06-20T08:30:42Z</time>
      </trkpt>
      <trkpt lat="45.857742028310895" lon="9.468243168666959">
        <ele>1848.75</ele>
        <time>2015-06-20T08:30:51Z</time>
      </trkpt>
      <trkpt lat="45.857752170413733" lon="9.468247862532735">
        <ele>1848.75</ele>
        <time>2015-06-20T08:30:53Z</time>
      </trkpt>
      <trkpt lat="45.857738340273499" lon="9.468264458701015">
        <ele>1848.75</ele>
        <time>2015-06-20T08:31:01Z</time>
      </trkpt>
      <trkpt lat="45.857752924785018" lon="9.468308631330729">
        <ele>1847.3099999999999</ele>
        <time>2015-06-20T08:31:11Z</time>
      </trkpt>
      <trkpt lat="45.857748314738274" lon="9.468363616615534">
        <ele>1848.27</ele>
        <time>2015-06-20T08:31:22Z</time>
      </trkpt>
      <trkpt lat="45.857771281152964" lon="9.468355402350426">
        <ele>1847.79</ele>
        <time>2015-06-20T08:31:33Z</time>
      </trkpt>
      <trkpt lat="45.857805479317904" lon="9.468351462855935">
        <ele>1846.3499999999999</ele>
        <time>2015-06-20T08:31:47Z</time>
      </trkpt>
      <trkpt lat="45.857819644734263" lon="9.468332352116704">
        <ele>1845.8699999999999</ele>
        <time>2015-06-20T08:31:54Z</time>
      </trkpt>
      <trkpt lat="45.857841605320573" lon="9.468381050974131">
        <ele>1847.3099999999999</ele>
        <time>2015-06-20T08:32:03Z</time>
      </trkpt>
      <trkpt lat="45.857854345813394" lon="9.46839957498014">
        <ele>1848.27</ele>
        <time>2015-06-20T08:32:15Z</time>
      </trkpt>
      <trkpt lat="45.857877982780337" lon="9.468461433425546">
        <ele>1850.1900000000001</ele>
        <time>2015-06-20T08:32:24Z</time>
      </trkpt>
      <trkpt lat="45.857912013307214" lon="9.468494290485978">
        <ele>1848.75</ele>
        <time>2015-06-20T08:32:31Z</time>
      </trkpt>
      <trkpt lat="45.857956353574991" lon="9.468594957143068">
        <ele>1848.75</ele>
        <time>2015-06-20T08:32:41Z</time>
      </trkpt>
      <trkpt lat="45.857961382716894" lon="9.468602333217859">
        <ele>1848.75</ele>
        <time>2015-06-20T08:32:42Z</time>
      </trkpt>
      <trkpt lat="45.857976973056793" lon="9.468606691807509">
        <ele>1849.23</ele>
        <time>2015-06-20T08:32:44Z</time>
      </trkpt>
      <trkpt lat="45.857996502891183" lon="9.468656061217189">
        <ele>1849.23</ele>
        <time>2015-06-20T08:32:48Z</time>
      </trkpt>
      <trkpt lat="45.858042854815722" lon="9.468710459768772">
        <ele>1848.75</ele>
        <time>2015-06-20T08:32:53Z</time>
      </trkpt>
      <trkpt lat="45.858073113486171" lon="9.468785896897316">
        <ele>1849.23</ele>
        <time>2015-06-20T08:33:04Z</time>
      </trkpt>
      <trkpt lat="45.858098426833749" lon="9.468785896897316">
        <ele>1848.75</ele>
        <time>2015-06-20T08:33:09Z</time>
      </trkpt>
      <trkpt lat="45.858181407675147" lon="9.468765947967768">
        <ele>1850.1900000000001</ele>
        <time>2015-06-20T08:33:20Z</time>
      </trkpt>
      <trkpt lat="45.858225831761956" lon="9.468774162232876">
        <ele>1852.5999999999999</ele>
        <time>2015-06-20T08:33:30Z</time>
      </trkpt>
      <trkpt lat="45.85828073322773" lon="9.468738036230207">
        <ele>1855.48</ele>
        <time>2015-06-20T08:33:40Z</time>
      </trkpt>
      <trkpt lat="45.858284756541252" lon="9.468793608248234">
        <ele>1856.9200000000001</ele>
        <time>2015-06-20T08:33:48Z</time>
      </trkpt>
      <trkpt lat="45.858286935836077" lon="9.468796541914344">
        <ele>1858.3699999999999</ele>
        <time>2015-06-20T08:33:54Z</time>
      </trkpt>
      <trkpt lat="45.858309231698513" lon="9.468768127262592">
        <ele>1859.3299999999999</ele>
        <time>2015-06-20T08:34:07Z</time>
      </trkpt>
      <trkpt lat="45.858335131779313" lon="9.468852449208498">
        <ele>1860.77</ele>
        <time>2015-06-20T08:34:19Z</time>
      </trkpt>
      <trkpt lat="45.858355918899179" lon="9.468894610181451">
        <ele>1862.6900000000001</ele>
        <time>2015-06-20T08:34:28Z</time>
      </trkpt>
      <trkpt lat="45.858368072658777" lon="9.468889497220516">
        <ele>1863.6500000000001</ele>
        <time>2015-06-20T08:34:39Z</time>
      </trkpt>
      <trkpt lat="45.858372012153268" lon="9.46884230710566">
        <ele>1865.5799999999999</ele>
        <time>2015-06-20T08:34:55Z</time>
      </trkpt>
      <trkpt lat="45.858419453725219" lon="9.468774497509003">
        <ele>1865.5799999999999</ele>
        <time>2015-06-20T08:35:06Z</time>
      </trkpt>
      <trkpt lat="45.858439486473799" lon="9.468788662925363">
        <ele>1865.0899999999999</ele>
        <time>2015-06-20T08:35:10Z</time>
      </trkpt>
      <trkpt lat="45.858434792608023" lon="9.46880416944623">
        <ele>1864.6099999999999</ele>
        <time>2015-06-20T08:35:19Z</time>
      </trkpt>
      <trkpt lat="45.858438480645418" lon="9.468836858868599">
        <ele>1864.6099999999999</ele>
        <time>2015-06-20T08:35:47Z</time>
      </trkpt>
      <trkpt lat="45.858438648283482" lon="9.468846330419183">
        <ele>1864.6099999999999</ele>
        <time>2015-06-20T08:36:13Z</time>
      </trkpt>
      <trkpt lat="45.858442420139909" lon="9.468849934637547">
        <ele>1864.6099999999999</ele>
        <time>2015-06-20T08:36:44Z</time>
      </trkpt>
      <trkpt lat="45.858425656333566" lon="9.468840966001153">
        <ele>1864.6099999999999</ele>
        <time>2015-06-20T08:37:18Z</time>
      </trkpt>
      <trkpt lat="45.858438313007355" lon="9.468836020678282">
        <ele>1865.0899999999999</ele>
        <time>2015-06-20T08:37:41Z</time>
      </trkpt>
      <trkpt lat="45.858436217531562" lon="9.468822106719017">
        <ele>1865.0899999999999</ele>
        <time>2015-06-20T08:38:12Z</time>
      </trkpt>
      <trkpt lat="45.858440408483148" lon="9.468818083405495">
        <ele>1865.0899999999999</ele>
        <time>2015-06-20T08:38:46Z</time>
      </trkpt>
      <trkpt lat="45.858431775122881" lon="9.468811713159084">
        <ele>1865.5799999999999</ele>
        <time>2015-06-20T08:39:23Z</time>
      </trkpt>
      <trkpt lat="45.858434960246086" lon="9.46881053969264">
        <ele>1866.0599999999999</ele>
        <time>2015-06-20T08:40:00Z</time>
      </trkpt>
      <trkpt lat="45.858441079035401" lon="9.46879243478179">
        <ele>1866.0599999999999</ele>
        <time>2015-06-20T08:40:34Z</time>
      </trkpt>
      <trkpt lat="45.858436804264784" lon="9.468779442831874">
        <ele>1866.0599999999999</ele>
        <time>2015-06-20T08:40:52Z</time>
      </trkpt>
      <trkpt lat="45.858437307178974" lon="9.46878170594573">
        <ele>1867.02</ele>
        <time>2015-06-20T08:40:58Z</time>
      </trkpt>
      <trkpt lat="45.858409060165286" lon="9.468776090070605">
        <ele>1867.02</ele>
        <time>2015-06-20T08:41:07Z</time>
      </trkpt>
      <trkpt lat="45.858398750424385" lon="9.468785226345062">
        <ele>1867.02</ele>
        <time>2015-06-20T08:41:27Z</time>
      </trkpt>
      <trkpt lat="45.858424566686153" lon="9.468797463923693">
        <ele>1867.5</ele>
        <time>2015-06-20T08:41:42Z</time>
      </trkpt>
      <trkpt lat="45.858431607484818" lon="9.468793272972107">
        <ele>1867.02</ele>
        <time>2015-06-20T08:41:57Z</time>
      </trkpt>
      <trkpt lat="45.858403695747256" lon="9.468819005414844">
        <ele>1867.02</ele>
        <time>2015-06-20T08:42:03Z</time>
      </trkpt>
      <trkpt lat="45.858402689918876" lon="9.468847336247563">
        <ele>1867.02</ele>
        <time>2015-06-20T08:42:05Z</time>
      </trkpt>
      <trkpt lat="45.858399588614702" lon="9.468911709263921">
        <ele>1865.0899999999999</ele>
        <time>2015-06-20T08:42:15Z</time>
      </trkpt>
      <trkpt lat="45.858405623584986" lon="9.468919839709997">
        <ele>1864.6099999999999</ele>
        <time>2015-06-20T08:42:17Z</time>
      </trkpt>
      <trkpt lat="45.858425153419375" lon="9.46894490160048">
        <ele>1863.1700000000001</ele>
        <time>2015-06-20T08:42:20Z</time>
      </trkpt>
      <trkpt lat="45.858476283028722" lon="9.468990666791797">
        <ele>1859.8099999999999</ele>
        <time>2015-06-20T08:42:28Z</time>
      </trkpt>
      <trkpt lat="45.858486508950591" lon="9.469030564650893">
        <ele>1858.8499999999999</ele>
        <time>2015-06-20T08:42:31Z</time>
      </trkpt>
      <trkpt lat="45.858452226966619" lon="9.469053614884615">
        <ele>1857.4000000000001</ele>
        <time>2015-06-20T08:42:39Z</time>
      </trkpt>
      <trkpt lat="45.858442336320877" lon="9.469066355377436">
        <ele>1856.9200000000001</ele>
        <time>2015-06-20T08:42:42Z</time>
      </trkpt>
      <trkpt lat="45.858416352421045" lon="9.469205494970083">
        <ele>1853.5599999999999</ele>
        <time>2015-06-20T08:42:53Z</time>
      </trkpt>
      <trkpt lat="45.858440743759274" lon="9.469235166907311">
        <ele>1852.5999999999999</ele>
        <time>2015-06-20T08:42:58Z</time>
      </trkpt>
      <trkpt lat="45.858434205874801" lon="9.469261821359396">
        <ele>1851.6400000000001</ele>
        <time>2015-06-20T08:43:00Z</time>
      </trkpt>
      <trkpt lat="45.858428087085485" lon="9.469293169677258">
        <ele>1849.71</ele>
        <time>2015-06-20T08:43:09Z</time>
      </trkpt>
      <trkpt lat="45.858423728495836" lon="9.469311023131013">
        <ele>1849.23</ele>
        <time>2015-06-20T08:43:11Z</time>
      </trkpt>
      <trkpt lat="45.858424231410027" lon="9.469319824129343">
        <ele>1848.75</ele>
        <time>2015-06-20T08:43:12Z</time>
      </trkpt>
      <trkpt lat="45.858379136770964" lon="9.469372546300292">
        <ele>1846.8299999999999</ele>
        <time>2015-06-20T08:43:20Z</time>
      </trkpt>
      <trkpt lat="45.858411323279142" lon="9.469414036720991">
        <ele>1845.3900000000001</ele>
        <time>2015-06-20T08:43:28Z</time>
      </trkpt>
      <trkpt lat="45.85841802880168" lon="9.469417305663228">
        <ele>1844.9100000000001</ele>
        <time>2015-06-20T08:43:29Z</time>
      </trkpt>
      <trkpt lat="45.858389949426055" lon="9.469443624839187">
        <ele>1844.4300000000001</ele>
        <time>2015-06-20T08:43:33Z</time>
      </trkpt>
      <trkpt lat="45.85832473821938" lon="9.469460975378752">
        <ele>1844.4300000000001</ele>
        <time>2015-06-20T08:43:38Z</time>
      </trkpt>
      <trkpt lat="45.85829540155828" lon="9.469495257362723">
        <ele>1844.9100000000001</ele>
        <time>2015-06-20T08:43:48Z</time>
      </trkpt>
      <trkpt lat="45.858263215050101" lon="9.469478828832507">
        <ele>1844.9100000000001</ele>
        <time>2015-06-20T08:43:55Z</time>
      </trkpt>
      <trkpt lat="45.858269920572639" lon="9.46942132897675">
        <ele>1844.4300000000001</ele>
        <time>2015-06-20T08:44:11Z</time>
      </trkpt>
      <trkpt lat="45.858305627480149" lon="9.469265341758728">
        <ele>1844.4300000000001</ele>
        <time>2015-06-20T08:44:29Z</time>
      </trkpt>
      <trkpt lat="45.858335299417377" lon="9.469181941822171">
        <ele>1844.4300000000001</ele>
        <time>2015-06-20T08:44:46Z</time>
      </trkpt>
      <trkpt lat="45.85826707072556" lon="9.469362404197455">
        <ele>1844.4300000000001</ele>
        <time>2015-06-20T08:45:03Z</time>
      </trkpt>
      <trkpt lat="45.858214432373643" lon="9.469515457749367">
        <ele>1844.9100000000001</ele>
        <time>2015-06-20T08:45:23Z</time>
      </trkpt>
      <trkpt lat="45.858140252530575" lon="9.469556109979749">
        <ele>1844.9100000000001</ele>
        <time>2015-06-20T08:45:40Z</time>
      </trkpt>
      <trkpt lat="45.858203703537583" lon="9.469570526853204">
        <ele>1844.9100000000001</ele>
        <time>2015-06-20T08:46:01Z</time>
      </trkpt>
      <trkpt lat="45.858161877840757" lon="9.469575053080916">
        <ele>1844.9100000000001</ele>
        <time>2015-06-20T08:46:20Z</time>
      </trkpt>
      <trkpt lat="45.858242092654109" lon="9.469432896003127">
        <ele>1844.9100000000001</ele>
        <time>2015-06-20T08:46:41Z</time>
      </trkpt>
      <trkpt lat="45.858245445415378" lon="9.469484863802791">
        <ele>1845.3900000000001</ele>
        <time>2015-06-20T08:46:52Z</time>
      </trkpt>
      <trkpt lat="45.858235051855445" lon="9.46951461955905">
        <ele>1844.9100000000001</ele>
        <time>2015-06-20T08:46:54Z</time>
      </trkpt>
      <trkpt lat="45.858338149264455" lon="9.469536328688264">
        <ele>1844.9100000000001</ele>
        <time>2015-06-20T08:47:10Z</time>
      </trkpt>
      <trkpt lat="45.858312249183655" lon="9.469504058361054">
        <ele>1844.9100000000001</ele>
        <time>2015-06-20T08:47:22Z</time>
      </trkpt>
      <trkpt lat="45.858278218656778" lon="9.469510847702622">
        <ele>1844.9100000000001</ele>
        <time>2015-06-20T08:47:46Z</time>
      </trkpt>
      <trkpt lat="45.858277548104525" lon="9.46950875222683">
        <ele>1844.9100000000001</ele>
        <time>2015-06-20T08:48:07Z</time>
      </trkpt>
      <trkpt lat="45.858268663287163" lon="9.469496766105294">
        <ele>1845.3900000000001</ele>
        <time>2015-06-20T08:48:36Z</time>
      </trkpt>
      <trkpt lat="45.858282241970301" lon="9.469517972320318">
        <ele>1845.8699999999999</ele>
        <time>2015-06-20T08:48:49Z</time>
      </trkpt>
      <trkpt lat="45.85829297080636" lon="9.469492910429835">
        <ele>1846.3499999999999</ele>
        <time>2015-06-20T08:49:00Z</time>
      </trkpt>
      <trkpt lat="45.858298251405358" lon="9.469476314261556">
        <ele>1846.3499999999999</ele>
        <time>2015-06-20T08:49:16Z</time>
      </trkpt>
      <trkpt lat="45.858338233083487" lon="9.469501040875912">
        <ele>1846.3499999999999</ele>
        <time>2015-06-20T08:49:30Z</time>
      </trkpt>
      <trkpt lat="45.858386345207691" lon="9.469534736126661">
        <ele>1844.9100000000001</ele>
        <time>2015-06-20T08:49:41Z</time>
      </trkpt>
      <trkpt lat="45.858364049345255" lon="9.469532053917646">
        <ele>1844.9100000000001</ele>
        <time>2015-06-20T08:49:43Z</time>
      </trkpt>
      <trkpt lat="45.858340580016375" lon="9.469555942341685">
        <ele>1843.95</ele>
        <time>2015-06-20T08:49:46Z</time>
      </trkpt>
      <trkpt lat="45.858241925016046" lon="9.469563569873571">
        <ele>1842.98</ele>
        <time>2015-06-20T08:49:56Z</time>
      </trkpt>
      <trkpt lat="45.858204290270805" lon="9.469544542953372">
        <ele>1842.02</ele>
        <time>2015-06-20T08:50:00Z</time>
      </trkpt>
      <trkpt lat="45.85818350315094" lon="9.46951805613935">
        <ele>1841.54</ele>
        <time>2015-06-20T08:50:02Z</time>
      </trkpt>
      <trkpt lat="45.858170343562961" lon="9.469320578500629">
        <ele>1841.0599999999999</ele>
        <time>2015-06-20T08:50:14Z</time>
      </trkpt>
      <trkpt lat="45.85817470215261" lon="9.469243800267577">
        <ele>1841.0599999999999</ele>
        <time>2015-06-20T08:50:23Z</time>
      </trkpt>
      <trkpt lat="45.858170595020056" lon="9.469206836074591">
        <ele>1841.0599999999999</ele>
        <time>2015-06-20T08:50:26Z</time>
      </trkpt>
      <trkpt lat="45.858125081285834" lon="9.469169368967414">
        <ele>1839.6199999999999</ele>
        <time>2015-06-20T08:50:30Z</time>
      </trkpt>
      <trkpt lat="45.858126506209373" lon="9.469166519120336">
        <ele>1838.1800000000001</ele>
        <time>2015-06-20T08:50:42Z</time>
      </trkpt>
      <trkpt lat="45.858100270852447" lon="9.469165597110987">
        <ele>1834.8099999999999</ele>
        <time>2015-06-20T08:50:49Z</time>
      </trkpt>
      <trkpt lat="45.858071018010378" lon="9.469159143045545">
        <ele>1831.9300000000001</ele>
        <time>2015-06-20T08:50:58Z</time>
      </trkpt>
      <trkpt lat="45.858033131808043" lon="9.469118993729353">
        <ele>1829.05</ele>
        <time>2015-06-20T08:51:07Z</time>
      </trkpt>
      <trkpt lat="45.858013099059463" lon="9.469082616269589">
        <ele>1827.1199999999999</ele>
        <time>2015-06-20T08:51:14Z</time>
      </trkpt>
      <trkpt lat="45.858007231727242" lon="9.469041125848889">
        <ele>1826.6400000000001</ele>
        <time>2015-06-20T08:51:18Z</time>
      </trkpt>
      <trkpt lat="45.857983259484172" lon="9.468992259353399">
        <ele>1826.1600000000001</ele>
        <time>2015-06-20T08:51:24Z</time>
      </trkpt>
      <trkpt lat="45.857956102117896" lon="9.468948002904654">
        <ele>1825.6800000000001</ele>
        <time>2015-06-20T08:51:28Z</time>
      </trkpt>
      <trkpt lat="45.857929950580001" lon="9.46891657076776">
        <ele>1825.6800000000001</ele>
        <time>2015-06-20T08:51:32Z</time>
      </trkpt>
      <trkpt lat="45.857904888689518" lon="9.468942638486624">
        <ele>1822.8</ele>
        <time>2015-06-20T08:51:40Z</time>
      </trkpt>
      <trkpt lat="45.857869852334261" lon="9.46894682943821">
        <ele>1821.3499999999999</ele>
        <time>2015-06-20T08:51:44Z</time>
      </trkpt>
      <trkpt lat="45.857780668884516" lon="9.468845240771771">
        <ele>1818.95</ele>
        <time>2015-06-20T08:51:53Z</time>
      </trkpt>
      <trkpt lat="45.857763485983014" lon="9.468830488622189">
        <ele>1818.47</ele>
        <time>2015-06-20T08:51:55Z</time>
      </trkpt>
      <trkpt lat="45.857724593952298" lon="9.468781538307667">
        <ele>1817.03</ele>
        <time>2015-06-20T08:52:00Z</time>
      </trkpt>
      <trkpt lat="45.857695760205388" lon="9.468768546357751">
        <ele>1815.5899999999999</ele>
        <time>2015-06-20T08:52:03Z</time>
      </trkpt>
      <trkpt lat="45.857680505141616" lon="9.468754632398486">
        <ele>1814.6300000000001</ele>
        <time>2015-06-20T08:52:05Z</time>
      </trkpt>
      <trkpt lat="45.857671787962317" lon="9.468794027343392">
        <ele>1812.7</ele>
        <time>2015-06-20T08:52:10Z</time>
      </trkpt>
      <trkpt lat="45.857654940336943" lon="9.468782711774111">
        <ele>1812.22</ele>
        <time>2015-06-20T08:52:12Z</time>
      </trkpt>
      <trkpt lat="45.857641948387027" lon="9.46873770095408">
        <ele>1811.26</ele>
        <time>2015-06-20T08:52:15Z</time>
      </trkpt>
      <trkpt lat="45.857622586190701" lon="9.468723870813847">
        <ele>1810.78</ele>
        <time>2015-06-20T08:52:17Z</time>
      </trkpt>
      <trkpt lat="45.857598278671503" lon="9.468711046501994">
        <ele>1809.3399999999999</ele>
        <time>2015-06-20T08:52:22Z</time>
      </trkpt>
      <trkpt lat="45.85757908411324" lon="9.468750776723027">
        <ele>1805.97</ele>
        <time>2015-06-20T08:52:31Z</time>
      </trkpt>
      <trkpt lat="45.857569193467498" lon="9.468780951574445">
        <ele>1804.05</ele>
        <time>2015-06-20T08:52:36Z</time>
      </trkpt>
      <trkpt lat="45.857563829049468" lon="9.468852197751403">
        <ele>1801.6500000000001</ele>
        <time>2015-06-20T08:52:45Z</time>
      </trkpt>
      <trkpt lat="45.85751605220139" lon="9.468835769221187">
        <ele>1799.24</ele>
        <time>2015-06-20T08:52:52Z</time>
      </trkpt>
      <trkpt lat="45.857495265081525" lon="9.468846498057246">
        <ele>1796.8399999999999</ele>
        <time>2015-06-20T08:52:59Z</time>
      </trkpt>
      <trkpt lat="45.857512364163995" lon="9.468930317088962">
        <ele>1795.4000000000001</ele>
        <time>2015-06-20T08:53:07Z</time>
      </trkpt>
      <trkpt lat="45.857487134635448" lon="9.468994690105319">
        <ele>1792.03</ele>
        <time>2015-06-20T08:53:17Z</time>
      </trkpt>
      <trkpt lat="45.857507670298219" lon="9.469034252688289">
        <ele>1789.6300000000001</ele>
        <time>2015-06-20T08:53:27Z</time>
      </trkpt>
      <trkpt lat="45.857521081343293" lon="9.469106253236532">
        <ele>1786.75</ele>
        <time>2015-06-20T08:53:36Z</time>
      </trkpt>
      <trkpt lat="45.85753901861608" lon="9.469165178015828">
        <ele>1785.79</ele>
        <time>2015-06-20T08:53:43Z</time>
      </trkpt>
      <trkpt lat="45.857498534023762" lon="9.469155455008149">
        <ele>1783.3800000000001</ele>
        <time>2015-06-20T08:53:51Z</time>
      </trkpt>
      <trkpt lat="45.857519069686532" lon="9.469193844124675">
        <ele>1782.9000000000001</ele>
        <time>2015-06-20T08:54:01Z</time>
      </trkpt>
      <trkpt lat="45.857507921755314" lon="9.469213709235191">
        <ele>1780.98</ele>
        <time>2015-06-20T08:54:10Z</time>
      </trkpt>
      <trkpt lat="45.857502222061157" lon="9.46920876391232">
        <ele>1780.5</ele>
        <time>2015-06-20T08:54:11Z</time>
      </trkpt>
      <trkpt lat="45.85747892037034" lon="9.469125950708985">
        <ele>1779.0599999999999</ele>
        <time>2015-06-20T08:54:15Z</time>
      </trkpt>
      <trkpt lat="45.857438938692212" lon="9.469098877161741">
        <ele>1778.0999999999999</ele>
        <time>2015-06-20T08:54:24Z</time>
      </trkpt>
      <trkpt lat="45.857395101338625" lon="9.469070713967085">
        <ele>1776.6500000000001</ele>
        <time>2015-06-20T08:54:28Z</time>
      </trkpt>
      <trkpt lat="45.857329135760665" lon="9.469036180526018">
        <ele>1773.77</ele>
        <time>2015-06-20T08:54:38Z</time>
      </trkpt>
      <trkpt lat="45.857225451618433" lon="9.468985218554735">
        <ele>1770.4100000000001</ele>
        <time>2015-06-20T08:54:47Z</time>
      </trkpt>
      <trkpt lat="45.857249926775694" lon="9.468940375372767">
        <ele>1769.4400000000001</ele>
        <time>2015-06-20T08:54:53Z</time>
      </trkpt>
      <trkpt lat="45.857238192111254" lon="9.468863932415843">
        <ele>1767.04</ele>
        <time>2015-06-20T08:55:03Z</time>
      </trkpt>
      <trkpt lat="45.857251603156328" lon="9.468881618231535">
        <ele>1766.5599999999999</ele>
        <time>2015-06-20T08:55:04Z</time>
      </trkpt>
      <trkpt lat="45.857222098857164" lon="9.468865860253573">
        <ele>1765.1199999999999</ele>
        <time>2015-06-20T08:55:09Z</time>
      </trkpt>
      <trkpt lat="45.85720525123179" lon="9.468851946294308">
        <ele>1764.1600000000001</ele>
        <time>2015-06-20T08:55:11Z</time>
      </trkpt>
      <trkpt lat="45.857167867943645" lon="9.468759493902326">
        <ele>1762.23</ele>
        <time>2015-06-20T08:55:17Z</time>
      </trkpt>
      <trkpt lat="45.857106428593397" lon="9.468666622415185">
        <ele>1760.79</ele>
        <time>2015-06-20T08:55:26Z</time>
      </trkpt>
      <trkpt lat="45.857100309804082" lon="9.468638626858592">
        <ele>1760.3099999999999</ele>
        <time>2015-06-20T08:55:28Z</time>
      </trkpt>
      <trkpt lat="45.857074409723282" lon="9.468598896637559">
        <ele>1759.3499999999999</ele>
        <time>2015-06-20T08:55:32Z</time>
      </trkpt>
      <trkpt lat="45.85704306140542" lon="9.468598393723369">
        <ele>1758.8699999999999</ele>
        <time>2015-06-20T08:55:34Z</time>
      </trkpt>
      <trkpt lat="45.857036523520947" lon="9.468591101467609">
        <ele>1758.8699999999999</ele>
        <time>2015-06-20T08:55:35Z</time>
      </trkpt>
      <trkpt lat="45.857026968151331" lon="9.468579702079296">
        <ele>1758.8699999999999</ele>
        <time>2015-06-20T08:55:36Z</time>
      </trkpt>
      <trkpt lat="45.856986315920949" lon="9.468540893867612">
        <ele>1757.9100000000001</ele>
        <time>2015-06-20T08:55:43Z</time>
      </trkpt>
      <trkpt lat="45.85697659291327" lon="9.468536619096994">
        <ele>1755.99</ele>
        <time>2015-06-20T08:55:50Z</time>
      </trkpt>
      <trkpt lat="45.856972988694906" lon="9.468537792563438">
        <ele>1755.02</ele>
        <time>2015-06-20T08:55:55Z</time>
      </trkpt>
      <trkpt lat="45.856964774429798" lon="9.46852857246995">
        <ele>1754.54</ele>
        <time>2015-06-20T08:55:56Z</time>
      </trkpt>
      <trkpt lat="45.856958571821451" lon="9.468510719016194">
        <ele>1754.54</ele>
        <time>2015-06-20T08:55:57Z</time>
      </trkpt>
      <trkpt lat="45.856955051422119" lon="9.468489093706012">
        <ele>1754.0599999999999</ele>
        <time>2015-06-20T08:55:58Z</time>
      </trkpt>
      <trkpt lat="45.856951950117946" lon="9.4684689771384">
        <ele>1753.5799999999999</ele>
        <time>2015-06-20T08:55:59Z</time>
      </trkpt>
      <trkpt lat="45.85694583132863" lon="9.468451123684645">
        <ele>1753.0999999999999</ele>
        <time>2015-06-20T08:56:00Z</time>
      </trkpt>
      <trkpt lat="45.856903335079551" lon="9.468423714861274">
        <ele>1751.1800000000001</ele>
        <time>2015-06-20T08:56:07Z</time>
      </trkpt>
      <trkpt lat="45.856892606243491" lon="9.468418182805181">
        <ele>1750.7</ele>
        <time>2015-06-20T08:56:09Z</time>
      </trkpt>
      <trkpt lat="45.856854803860188" lon="9.468393540009856">
        <ele>1749.26</ele>
        <time>2015-06-20T08:56:16Z</time>
      </trkpt>
      <trkpt lat="45.856844075024128" lon="9.468398485332727">
        <ele>1747.8099999999999</ele>
        <time>2015-06-20T08:56:23Z</time>
      </trkpt>
      <trkpt lat="45.85682806558907" lon="9.468413069844246">
        <ele>1746.8499999999999</ele>
        <time>2015-06-20T08:56:27Z</time>
      </trkpt>
      <trkpt lat="45.856816163286567" lon="9.468413656577468">
        <ele>1746.3699999999999</ele>
        <time>2015-06-20T08:56:28Z</time>
      </trkpt>
      <trkpt lat="45.85674793459475" lon="9.468418350443244">
        <ele>1743.01</ele>
        <time>2015-06-20T08:56:37Z</time>
      </trkpt>
      <trkpt lat="45.856632683426142" lon="9.468385158106685">
        <ele>1740.5999999999999</ele>
        <time>2015-06-20T08:56:47Z</time>
      </trkpt>
      <trkpt lat="45.856614243239164" lon="9.468391193076968">
        <ele>1740.1199999999999</ele>
        <time>2015-06-20T08:56:49Z</time>
      </trkpt>
      <trkpt lat="45.856605442240834" lon="9.468399239704013">
        <ele>1740.1199999999999</ele>
        <time>2015-06-20T08:56:50Z</time>
      </trkpt>
      <trkpt lat="45.856594797223806" lon="9.468403430655599">
        <ele>1739.6400000000001</ele>
        <time>2015-06-20T08:56:51Z</time>
      </trkpt>
      <trkpt lat="45.856582308188081" lon="9.468393959105015">
        <ele>1739.1600000000001</ele>
        <time>2015-06-20T08:56:52Z</time>
      </trkpt>
      <trkpt lat="45.856565209105611" lon="9.468380967155099">
        <ele>1739.1600000000001</ele>
        <time>2015-06-20T08:56:53Z</time>
      </trkpt>
      <trkpt lat="45.856555569916964" lon="9.468373423442245">
        <ele>1738.6800000000001</ele>
        <time>2015-06-20T08:56:54Z</time>
      </trkpt>
      <trkpt lat="45.856510978192091" lon="9.468335537239909">
        <ele>1738.2</ele>
        <time>2015-06-20T08:56:57Z</time>
      </trkpt>
      <trkpt lat="45.856500249356031" lon="9.468331849202514">
        <ele>1737.72</ele>
        <time>2015-06-20T08:56:58Z</time>
      </trkpt>
      <trkpt lat="45.856488095596433" lon="9.468326400965452">
        <ele>1737.24</ele>
        <time>2015-06-20T08:56:59Z</time>
      </trkpt>
      <trkpt lat="45.856475019827485" lon="9.468313911929727">
        <ele>1737.24</ele>
        <time>2015-06-20T08:57:00Z</time>
      </trkpt>
      <trkpt lat="45.856462614610791" lon="9.468298573046923">
        <ele>1737.24</ele>
        <time>2015-06-20T08:57:01Z</time>
      </trkpt>
      <trkpt lat="45.856452807784081" lon="9.468281138688326">
        <ele>1736.76</ele>
        <time>2015-06-20T08:57:02Z</time>
      </trkpt>
      <trkpt lat="45.856422213837504" lon="9.468179633840919">
        <ele>1737.72</ele>
        <time>2015-06-20T08:57:10Z</time>
      </trkpt>
      <trkpt lat="45.856412742286921" lon="9.468168821185827">
        <ele>1737.72</ele>
        <time>2015-06-20T08:57:11Z</time>
      </trkpt>
      <trkpt lat="45.856361193582416" lon="9.468118110671639">
        <ele>1736.28</ele>
        <time>2015-06-20T08:57:16Z</time>
      </trkpt>
      <trkpt lat="45.856352727860212" lon="9.468109644949436">
        <ele>1736.28</ele>
        <time>2015-06-20T08:57:17Z</time>
      </trkpt>
      <trkpt lat="45.856255581602454" lon="9.467916609719396">
        <ele>1735.8</ele>
        <time>2015-06-20T08:57:30Z</time>
      </trkpt>
      <trkpt lat="45.856166481971741" lon="9.467758443206549">
        <ele>1737.72</ele>
        <time>2015-06-20T08:57:44Z</time>
      </trkpt>
      <trkpt lat="45.856111664324999" lon="9.467679904773831">
        <ele>1737.72</ele>
        <time>2015-06-20T08:57:53Z</time>
      </trkpt>
      <trkpt lat="45.856104455888271" lon="9.467671690508723">
        <ele>1736.76</ele>
        <time>2015-06-20T08:57:54Z</time>
      </trkpt>
      <trkpt lat="45.856082579120994" lon="9.467633217573166">
        <ele>1735.8</ele>
        <time>2015-06-20T08:57:58Z</time>
      </trkpt>
      <trkpt lat="45.856080986559391" lon="9.467613939195871">
        <ele>1735.8</ele>
        <time>2015-06-20T08:57:59Z</time>
      </trkpt>
      <trkpt lat="45.856083249673247" lon="9.467593152076006">
        <ele>1735.8</ele>
        <time>2015-06-20T08:58:00Z</time>
      </trkpt>
      <trkpt lat="45.856085764244199" lon="9.467469519004226">
        <ele>1738.2</ele>
        <time>2015-06-20T08:58:10Z</time>
      </trkpt>
      <trkpt lat="45.856069670990109" lon="9.467386454343796">
        <ele>1740.1199999999999</ele>
        <time>2015-06-20T08:58:19Z</time>
      </trkpt>
      <trkpt lat="45.856093894690275" lon="9.467443116009235">
        <ele>1739.6400000000001</ele>
        <time>2015-06-20T08:58:35Z</time>
      </trkpt>
      <trkpt lat="45.856111915782094" lon="9.467526851221919">
        <ele>1737.72</ele>
        <time>2015-06-20T08:58:43Z</time>
      </trkpt>
      <trkpt lat="45.856114514172077" lon="9.467569431290031">
        <ele>1736.76</ele>
        <time>2015-06-20T08:58:46Z</time>
      </trkpt>
      <trkpt lat="45.856108898296952" lon="9.46758502162993">
        <ele>1736.76</ele>
        <time>2015-06-20T08:58:47Z</time>
      </trkpt>
      <trkpt lat="45.856073442846537" lon="9.467558870092034">
        <ele>1734.8399999999999</ele>
        <time>2015-06-20T08:58:55Z</time>
      </trkpt>
      <trkpt lat="45.856044944375753" lon="9.467547051608563">
        <ele>1733.3900000000001</ele>
        <time>2015-06-20T08:59:03Z</time>
      </trkpt>
      <trkpt lat="45.856041507795453" lon="9.467588206753135">
        <ele>1731.95</ele>
        <time>2015-06-20T08:59:11Z</time>
      </trkpt>
      <trkpt lat="45.856028432026505" lon="9.467596923932433">
        <ele>1729.0699999999999</ele>
        <time>2015-06-20T08:59:21Z</time>
      </trkpt>
      <trkpt lat="45.856021810323" lon="9.467581082135439">
        <ele>1728.5899999999999</ele>
        <time>2015-06-20T08:59:24Z</time>
      </trkpt>
      <trkpt lat="45.855992641299963" lon="9.467584770172834">
        <ele>1726.6700000000001</ele>
        <time>2015-06-20T08:59:29Z</time>
      </trkpt>
      <trkpt lat="45.855975709855556" lon="9.467576891183853">
        <ele>1725.7</ele>
        <time>2015-06-20T08:59:31Z</time>
      </trkpt>
      <trkpt lat="45.855969255790114" lon="9.467567587271333">
        <ele>1725.7</ele>
        <time>2015-06-20T08:59:32Z</time>
      </trkpt>
      <trkpt lat="45.855955509468913" lon="9.467539843171835">
        <ele>1725.22</ele>
        <time>2015-06-20T08:59:35Z</time>
      </trkpt>
      <trkpt lat="45.855944529175758" lon="9.467527521774173">
        <ele>1725.22</ele>
        <time>2015-06-20T08:59:36Z</time>
      </trkpt>
      <trkpt lat="45.855928184464574" lon="9.467536574229598">
        <ele>1724.26</ele>
        <time>2015-06-20T08:59:39Z</time>
      </trkpt>
      <trkpt lat="45.855924915522337" lon="9.467555265873671">
        <ele>1723.78</ele>
        <time>2015-06-20T08:59:40Z</time>
      </trkpt>
      <trkpt lat="45.855918461456895" lon="9.467572532594204">
        <ele>1723.3</ele>
        <time>2015-06-20T08:59:41Z</time>
      </trkpt>
      <trkpt lat="45.855907900258899" lon="9.467583931982517">
        <ele>1722.8199999999999</ele>
        <time>2015-06-20T08:59:42Z</time>
      </trkpt>
      <trkpt lat="45.855870433151722" lon="9.467533975839615">
        <ele>1721.3800000000001</ele>
        <time>2015-06-20T08:59:47Z</time>
      </trkpt>
      <trkpt lat="45.855856854468584" lon="9.467523833736777">
        <ele>1720.9000000000001</ele>
        <time>2015-06-20T08:59:48Z</time>
      </trkpt>
      <trkpt lat="45.855843024328351" lon="9.467521235346794">
        <ele>1720.9000000000001</ele>
        <time>2015-06-20T08:59:49Z</time>
      </trkpt>
      <trkpt lat="45.855829361826181" lon="9.46751955896616">
        <ele>1720.4200000000001</ele>
        <time>2015-06-20T08:59:50Z</time>
      </trkpt>
      <trkpt lat="45.85578971542418" lon="9.467547805979848">
        <ele>1718.49</ele>
        <time>2015-06-20T08:59:59Z</time>
      </trkpt>
      <trkpt lat="45.855745961889625" lon="9.467505309730768">
        <ele>1717.05</ele>
        <time>2015-06-20T09:00:07Z</time>
      </trkpt>
      <trkpt lat="45.855711009353399" lon="9.467541351914406">
        <ele>1714.1700000000001</ele>
        <time>2015-06-20T09:00:15Z</time>
      </trkpt>
      <trkpt lat="45.855685779824853" lon="9.46754788979888">
        <ele>1713.6900000000001</ele>
        <time>2015-06-20T09:00:18Z</time>
      </trkpt>
      <trkpt lat="45.855620736256242" lon="9.467561217024922">
        <ele>1711.28</ele>
        <time>2015-06-20T09:00:26Z</time>
      </trkpt>
      <trkpt lat="45.855584861710668" lon="9.467595331370831">
        <ele>1708.8800000000001</ele>
        <time>2015-06-20T09:00:32Z</time>
      </trkpt>
      <trkpt lat="45.855566002428532" lon="9.467631792649627">
        <ele>1706.96</ele>
        <time>2015-06-20T09:00:42Z</time>
      </trkpt>
      <trkpt lat="45.855494672432542" lon="9.467608323320746">
        <ele>1704.55</ele>
        <time>2015-06-20T09:00:50Z</time>
      </trkpt>
      <trkpt lat="45.855483692139387" lon="9.467602204531431">
        <ele>1704.0699999999999</ele>
        <time>2015-06-20T09:00:51Z</time>
      </trkpt>
      <trkpt lat="45.855469861999154" lon="9.467592900618911">
        <ele>1703.5899999999999</ele>
        <time>2015-06-20T09:00:52Z</time>
      </trkpt>
      <trkpt lat="45.855432143434882" lon="9.467543279752135">
        <ele>1702.1500000000001</ele>
        <time>2015-06-20T09:00:59Z</time>
      </trkpt>
      <trkpt lat="45.855431891977787" lon="9.467525007203221">
        <ele>1702.1500000000001</ele>
        <time>2015-06-20T09:01:00Z</time>
      </trkpt>
      <trkpt lat="45.855431389063597" lon="9.467472536489368">
        <ele>1701.1900000000001</ele>
        <time>2015-06-20T09:01:03Z</time>
      </trkpt>
      <trkpt lat="45.855401717126369" lon="9.467429118230939">
        <ele>1701.1900000000001</ele>
        <time>2015-06-20T09:01:07Z</time>
      </trkpt>
      <trkpt lat="45.855390401557088" lon="9.467421406880021">
        <ele>1701.1900000000001</ele>
        <time>2015-06-20T09:01:08Z</time>
      </trkpt>
      <trkpt lat="45.855334410443902" lon="9.46727623231709">
        <ele>1699.27</ele>
        <time>2015-06-20T09:01:19Z</time>
      </trkpt>
      <trkpt lat="45.855322675779462" lon="9.467199621722102">
        <ele>1698.3099999999999</ele>
        <time>2015-06-20T09:01:27Z</time>
      </trkpt>
      <trkpt lat="45.855293590575457" lon="9.467168776318431">
        <ele>1698.3099999999999</ele>
        <time>2015-06-20T09:01:31Z</time>
      </trkpt>
      <trkpt lat="45.855283951386809" lon="9.467164669185877">
        <ele>1698.3099999999999</ele>
        <time>2015-06-20T09:01:32Z</time>
      </trkpt>
      <trkpt lat="45.855269031599164" lon="9.467165842652321">
        <ele>1697.3399999999999</ele>
        <time>2015-06-20T09:01:39Z</time>
      </trkpt>
      <trkpt lat="45.855270372703671" lon="9.467170787975192">
        <ele>1695.9000000000001</ele>
        <time>2015-06-20T09:01:47Z</time>
      </trkpt>
      <trkpt lat="45.855224942788482" lon="9.467165423557162">
        <ele>1693.98</ele>
        <time>2015-06-20T09:01:55Z</time>
      </trkpt>
      <trkpt lat="45.8551324903965" lon="9.467103816568852">
        <ele>1692.54</ele>
        <time>2015-06-20T09:02:06Z</time>
      </trkpt>
      <trkpt lat="45.855164593085647" lon="9.466967526823282">
        <ele>1689.6500000000001</ele>
        <time>2015-06-20T09:02:16Z</time>
      </trkpt>
      <trkpt lat="45.85520968772471" lon="9.466893179342151">
        <ele>1686.29</ele>
        <time>2015-06-20T09:02:23Z</time>
      </trkpt>
      <trkpt lat="45.855200802907348" lon="9.466855628415942">
        <ele>1686.29</ele>
        <time>2015-06-20T09:02:25Z</time>
      </trkpt>
      <trkpt lat="45.855190576985478" lon="9.466843642294407">
        <ele>1686.29</ele>
        <time>2015-06-20T09:02:26Z</time>
      </trkpt>
      <trkpt lat="45.855169706046581" lon="9.466793686151505">
        <ele>1685.3299999999999</ele>
        <time>2015-06-20T09:02:37Z</time>
      </trkpt>
      <trkpt lat="45.855175321921706" lon="9.466784046962857">
        <ele>1685.3299999999999</ele>
        <time>2015-06-20T09:02:52Z</time>
      </trkpt>
      <trkpt lat="45.855146152898669" lon="9.466768288984895">
        <ele>1684.8499999999999</ele>
        <time>2015-06-20T09:03:09Z</time>
      </trkpt>
      <trkpt lat="45.855139950290322" lon="9.466746831312776">
        <ele>1685.3299999999999</ele>
        <time>2015-06-20T09:03:24Z</time>
      </trkpt>
      <trkpt lat="45.855168867856264" lon="9.466774323955178">
        <ele>1685.3299999999999</ele>
        <time>2015-06-20T09:03:39Z</time>
      </trkpt>
      <trkpt lat="45.855172807350755" lon="9.466790165752173">
        <ele>1685.3299999999999</ele>
        <time>2015-06-20T09:03:52Z</time>
      </trkpt>
      <trkpt lat="45.855172639712691" lon="9.466789914295077">
        <ele>1685.3299999999999</ele>
        <time>2015-06-20T09:04:04Z</time>
      </trkpt>
      <trkpt lat="45.855171382427216" lon="9.466780191287398">
        <ele>1685.3299999999999</ele>
        <time>2015-06-20T09:04:21Z</time>
      </trkpt>
      <trkpt lat="45.855131987482309" lon="9.466747082769871">
        <ele>1683.4100000000001</ele>
        <time>2015-06-20T09:04:28Z</time>
      </trkpt>
      <trkpt lat="45.85511832498014" lon="9.466695114970207">
        <ele>1681.48</ele>
        <time>2015-06-20T09:04:34Z</time>
      </trkpt>
      <trkpt lat="45.855110865086317" lon="9.466686816886067">
        <ele>1681</ele>
        <time>2015-06-20T09:04:35Z</time>
      </trkpt>
      <trkpt lat="45.855118157342076" lon="9.466668460518122">
        <ele>1680.52</ele>
        <time>2015-06-20T09:04:36Z</time>
      </trkpt>
      <trkpt lat="45.855122599750757" lon="9.466651361435652">
        <ele>1680.04</ele>
        <time>2015-06-20T09:04:37Z</time>
      </trkpt>
      <trkpt lat="45.855106171220541" lon="9.466652451083064">
        <ele>1679.0799999999999</ele>
        <time>2015-06-20T09:04:40Z</time>
      </trkpt>
      <trkpt lat="45.855094520375133" lon="9.466659491881728">
        <ele>1678.5999999999999</ele>
        <time>2015-06-20T09:04:41Z</time>
      </trkpt>
      <trkpt lat="45.855081863701344" lon="9.466651948168874">
        <ele>1678.1199999999999</ele>
        <time>2015-06-20T09:04:42Z</time>
      </trkpt>
      <trkpt lat="45.855055879801512" lon="9.46661070920527">
        <ele>1675.72</ele>
        <time>2015-06-20T09:04:48Z</time>
      </trkpt>
      <trkpt lat="45.855042384937406" lon="9.466611295938492">
        <ele>1675.72</ele>
        <time>2015-06-20T09:04:49Z</time>
      </trkpt>
      <trkpt lat="45.855019250884652" lon="9.466620767489076">
        <ele>1674.27</ele>
        <time>2015-06-20T09:04:51Z</time>
      </trkpt>
      <trkpt lat="45.85499762557447" lon="9.466621521860361">
        <ele>1673.79</ele>
        <time>2015-06-20T09:04:53Z</time>
      </trkpt>
      <trkpt lat="45.85497222840786" lon="9.466627389192581">
        <ele>1672.8299999999999</ele>
        <time>2015-06-20T09:04:56Z</time>
      </trkpt>
      <trkpt lat="45.854835603386164" lon="9.466599225997925">
        <ele>1672.3499999999999</ele>
        <time>2015-06-20T09:05:07Z</time>
      </trkpt>
      <trkpt lat="45.854824874550104" lon="9.466596124693751">
        <ele>1672.3499999999999</ele>
        <time>2015-06-20T09:05:08Z</time>
      </trkpt>
      <trkpt lat="45.854748766869307" lon="9.466567793861032">
        <ele>1672.8299999999999</ele>
        <time>2015-06-20T09:05:14Z</time>
      </trkpt>
      <trkpt lat="45.854738038033247" lon="9.466561591252685">
        <ele>1672.8299999999999</ele>
        <time>2015-06-20T09:05:15Z</time>
      </trkpt>
      <trkpt lat="45.854724962264299" lon="9.466519011184573">
        <ele>1673.3099999999999</ele>
        <time>2015-06-20T09:05:19Z</time>
      </trkpt>
      <trkpt lat="45.854711215943098" lon="9.466494955122471">
        <ele>1673.3099999999999</ele>
        <time>2015-06-20T09:05:21Z</time>
      </trkpt>
      <trkpt lat="45.854659667238593" lon="9.466492021456361">
        <ele>1672.8299999999999</ele>
        <time>2015-06-20T09:05:26Z</time>
      </trkpt>
      <trkpt lat="45.854600742459297" lon="9.466470144689083">
        <ele>1670.4300000000001</ele>
        <time>2015-06-20T09:05:34Z</time>
      </trkpt>
      <trkpt lat="45.854622786864638" lon="9.466408453881741">
        <ele>1668.51</ele>
        <time>2015-06-20T09:05:42Z</time>
      </trkpt>
      <trkpt lat="45.854616081342101" lon="9.466399066150188">
        <ele>1667.0599999999999</ele>
        <time>2015-06-20T09:05:46Z</time>
      </trkpt>
      <trkpt lat="45.854608118534088" lon="9.466393869370222">
        <ele>1667.0599999999999</ele>
        <time>2015-06-20T09:05:47Z</time>
      </trkpt>
      <trkpt lat="45.854526562616229" lon="9.466371238231659">
        <ele>1664.6600000000001</ele>
        <time>2015-06-20T09:05:55Z</time>
      </trkpt>
      <trkpt lat="45.854471996426582" lon="9.466366125270724">
        <ele>1663.22</ele>
        <time>2015-06-20T09:05:59Z</time>
      </trkpt>
      <trkpt lat="45.854497561231256" lon="9.466320443898439">
        <ele>1661.3</ele>
        <time>2015-06-20T09:06:06Z</time>
      </trkpt>
      <trkpt lat="45.854482306167483" lon="9.466275265440345">
        <ele>1659.8499999999999</ele>
        <time>2015-06-20T09:06:11Z</time>
      </trkpt>
      <trkpt lat="45.854541230946779" lon="9.466224303469062">
        <ele>1657.9300000000001</ele>
        <time>2015-06-20T09:06:18Z</time>
      </trkpt>
      <trkpt lat="45.854552714154124" lon="9.466190524399281">
        <ele>1656.49</ele>
        <time>2015-06-20T09:06:22Z</time>
      </trkpt>
      <trkpt lat="45.854558078572154" lon="9.466136628761888">
        <ele>1654.5699999999999</ele>
        <time>2015-06-20T09:06:28Z</time>
      </trkpt>
      <trkpt lat="45.854544416069984" lon="9.466141071170569">
        <ele>1654.5699999999999</ele>
        <time>2015-06-20T09:06:29Z</time>
      </trkpt>
      <trkpt lat="45.854479121044278" lon="9.466178119182587">
        <ele>1653.1199999999999</ele>
        <time>2015-06-20T09:06:35Z</time>
      </trkpt>
      <trkpt lat="45.854468056932092" lon="9.466173676773906">
        <ele>1652.6400000000001</ele>
        <time>2015-06-20T09:06:36Z</time>
      </trkpt>
      <trkpt lat="45.854395385831594" lon="9.466167557984591">
        <ele>1650.24</ele>
        <time>2015-06-20T09:06:44Z</time>
      </trkpt>
      <trkpt lat="45.854384824633598" lon="9.466093713417649">
        <ele>1647.3599999999999</ele>
        <time>2015-06-20T09:06:53Z</time>
      </trkpt>
      <trkpt lat="45.854314751923084" lon="9.466084325686097">
        <ele>1644.95</ele>
        <time>2015-06-20T09:07:02Z</time>
      </trkpt>
      <trkpt lat="45.854245265945792" lon="9.465993633493781">
        <ele>1643.51</ele>
        <time>2015-06-20T09:07:13Z</time>
      </trkpt>
      <trkpt lat="45.854223389178514" lon="9.465982904657722">
        <ele>1642.55</ele>
        <time>2015-06-20T09:07:16Z</time>
      </trkpt>
      <trkpt lat="45.854214252904058" lon="9.465971337631345">
        <ele>1641.5899999999999</ele>
        <time>2015-06-20T09:07:17Z</time>
      </trkpt>
      <trkpt lat="45.854159435257316" lon="9.465920543298125">
        <ele>1638.7</ele>
        <time>2015-06-20T09:07:26Z</time>
      </trkpt>
      <trkpt lat="45.8541498798877" lon="9.465905455872417">
        <ele>1637.74</ele>
        <time>2015-06-20T09:07:27Z</time>
      </trkpt>
      <trkpt lat="45.854157255962491" lon="9.465884501114488">
        <ele>1637.26</ele>
        <time>2015-06-20T09:07:28Z</time>
      </trkpt>
      <trkpt lat="45.854162620380521" lon="9.465864636003971">
        <ele>1636.3</ele>
        <time>2015-06-20T09:07:29Z</time>
      </trkpt>
      <trkpt lat="45.854162117466331" lon="9.465847369283438">
        <ele>1635.8199999999999</ele>
        <time>2015-06-20T09:07:30Z</time>
      </trkpt>
      <trkpt lat="45.85416404530406" lon="9.465828761458397">
        <ele>1635.8199999999999</ele>
        <time>2015-06-20T09:07:31Z</time>
      </trkpt>
      <trkpt lat="45.85411811247468" lon="9.465827001258731">
        <ele>1633.4200000000001</ele>
        <time>2015-06-20T09:07:39Z</time>
      </trkpt>
      <trkpt lat="45.854083243757486" lon="9.465800682082772">
        <ele>1631.01</ele>
        <time>2015-06-20T09:07:45Z</time>
      </trkpt>
      <trkpt lat="45.854042507708073" lon="9.465772183611989">
        <ele>1628.1300000000001</ele>
        <time>2015-06-20T09:07:51Z</time>
      </trkpt>
      <trkpt lat="45.853985007852316" lon="9.465749803930521">
        <ele>1626.6900000000001</ele>
        <time>2015-06-20T09:07:56Z</time>
      </trkpt>
      <trkpt lat="45.85398425348103" lon="9.465733207762241">
        <ele>1626.6900000000001</ele>
        <time>2015-06-20T09:07:57Z</time>
      </trkpt>
      <trkpt lat="45.854006046429276" lon="9.465713845565915">
        <ele>1625.73</ele>
        <time>2015-06-20T09:07:59Z</time>
      </trkpt>
      <trkpt lat="45.854019708931446" lon="9.465705212205648">
        <ele>1625.73</ele>
        <time>2015-06-20T09:08:00Z</time>
      </trkpt>
      <trkpt lat="45.854032868519425" lon="9.465697500854731">
        <ele>1625.73</ele>
        <time>2015-06-20T09:08:01Z</time>
      </trkpt>
      <trkpt lat="45.854046866297722" lon="9.465693812817335">
        <ele>1625.25</ele>
        <time>2015-06-20T09:08:02Z</time>
      </trkpt>
      <trkpt lat="45.85407511331141" lon="9.465660955756903">
        <ele>1622.8399999999999</ele>
        <time>2015-06-20T09:08:11Z</time>
      </trkpt>
      <trkpt lat="45.854078717529774" lon="9.465656764805317">
        <ele>1622.3599999999999</ele>
        <time>2015-06-20T09:08:12Z</time>
      </trkpt>
      <trkpt lat="45.854101683944464" lon="9.465627344325185">
        <ele>1620.9200000000001</ele>
        <time>2015-06-20T09:08:20Z</time>
      </trkpt>
      <trkpt lat="45.854111490771174" lon="9.465603623539209">
        <ele>1619.48</ele>
        <time>2015-06-20T09:08:28Z</time>
      </trkpt>
      <trkpt lat="45.854140827432275" lon="9.465582668781281">
        <ele>1616.5899999999999</ele>
        <time>2015-06-20T09:08:37Z</time>
      </trkpt>
      <trkpt lat="45.854141162708402" lon="9.465555595234036">
        <ele>1615.1500000000001</ele>
        <time>2015-06-20T09:08:45Z</time>
      </trkpt>
      <trkpt lat="45.854137558490038" lon="9.465535562485457">
        <ele>1614.1900000000001</ele>
        <time>2015-06-20T09:08:47Z</time>
      </trkpt>
      <trkpt lat="45.854081232100725" lon="9.465532377362251">
        <ele>1612.75</ele>
        <time>2015-06-20T09:08:52Z</time>
      </trkpt>
      <trkpt lat="45.854050470516086" lon="9.465533886104822">
        <ele>1612.27</ele>
        <time>2015-06-20T09:08:55Z</time>
      </trkpt>
      <trkpt lat="45.85403798148036" lon="9.465525168925524">
        <ele>1612.27</ele>
        <time>2015-06-20T09:08:56Z</time>
      </trkpt>
      <trkpt lat="45.853973189368844" lon="9.465513769537211">
        <ele>1609.8599999999999</ele>
        <time>2015-06-20T09:09:06Z</time>
      </trkpt>
      <trkpt lat="45.853899596258998" lon="9.465511422604322">
        <ele>1607.46</ele>
        <time>2015-06-20T09:09:16Z</time>
      </trkpt>
      <trkpt lat="45.853884089738131" lon="9.465512009337544">
        <ele>1607.46</ele>
        <time>2015-06-20T09:09:18Z</time>
      </trkpt>
      <trkpt lat="45.8538718521595" lon="9.465509075671434">
        <ele>1606.98</ele>
        <time>2015-06-20T09:09:19Z</time>
      </trkpt>
      <trkpt lat="45.853821812197566" lon="9.46548929437995">
        <ele>1605.0599999999999</ele>
        <time>2015-06-20T09:09:26Z</time>
      </trkpt>
      <trkpt lat="45.853807730600238" lon="9.465481750667095">
        <ele>1604.5799999999999</ele>
        <time>2015-06-20T09:09:27Z</time>
      </trkpt>
      <trkpt lat="45.853705136105418" lon="9.465526510030031">
        <ele>1601.6900000000001</ele>
        <time>2015-06-20T09:09:36Z</time>
      </trkpt>
      <trkpt lat="45.853700861334801" lon="9.465486528351903">
        <ele>1599.77</ele>
        <time>2015-06-20T09:09:41Z</time>
      </trkpt>
      <trkpt lat="45.853691473603249" lon="9.465508740395308">
        <ele>1599.29</ele>
        <time>2015-06-20T09:09:43Z</time>
      </trkpt>
      <trkpt lat="45.853681163862348" lon="9.46551863104105">
        <ele>1599.29</ele>
        <time>2015-06-20T09:09:44Z</time>
      </trkpt>
      <trkpt lat="45.853615114465356" lon="9.465528856962919">
        <ele>1597.3699999999999</ele>
        <time>2015-06-20T09:09:50Z</time>
      </trkpt>
      <trkpt lat="45.853593405336142" lon="9.465531455352902">
        <ele>1596.8900000000001</ele>
        <time>2015-06-20T09:09:54Z</time>
      </trkpt>
      <trkpt lat="45.853583179414272" lon="9.465519636869431">
        <ele>1596.8900000000001</ele>
        <time>2015-06-20T09:09:55Z</time>
      </trkpt>
      <trkpt lat="45.853580581024289" lon="9.46549809537828">
        <ele>1596.4100000000001</ele>
        <time>2015-06-20T09:09:56Z</time>
      </trkpt>
      <trkpt lat="45.853586867451668" lon="9.46547856554389">
        <ele>1595.9300000000001</ele>
        <time>2015-06-20T09:09:57Z</time>
      </trkpt>
      <trkpt lat="45.853596590459347" lon="9.465465322136879">
        <ele>1595.45</ele>
        <time>2015-06-20T09:09:58Z</time>
      </trkpt>
      <trkpt lat="45.853597763925791" lon="9.465410336852074">
        <ele>1594</ele>
        <time>2015-06-20T09:10:03Z</time>
      </trkpt>
      <trkpt lat="45.853575635701418" lon="9.465412516146898">
        <ele>1593.52</ele>
        <time>2015-06-20T09:10:05Z</time>
      </trkpt>
      <trkpt lat="45.853510592132807" lon="9.46541746146977">
        <ele>1592.5599999999999</ele>
        <time>2015-06-20T09:10:11Z</time>
      </trkpt>
      <trkpt lat="45.853497684001923" lon="9.46541603654623">
        <ele>1592.0799999999999</ele>
        <time>2015-06-20T09:10:12Z</time>
      </trkpt>
      <trkpt lat="45.853485949337482" lon="9.465411677956581">
        <ele>1591.5999999999999</ele>
        <time>2015-06-20T09:10:13Z</time>
      </trkpt>
      <trkpt lat="45.853473544120789" lon="9.46540673263371">
        <ele>1591.5999999999999</ele>
        <time>2015-06-20T09:10:14Z</time>
      </trkpt>
      <trkpt lat="45.853460719808936" lon="9.465404553338885">
        <ele>1591.1199999999999</ele>
        <time>2015-06-20T09:10:15Z</time>
      </trkpt>
      <trkpt lat="45.8533866237849" lon="9.465426011011004">
        <ele>1589.2</ele>
        <time>2015-06-20T09:10:24Z</time>
      </trkpt>
      <trkpt lat="45.853328285738826" lon="9.465431626886129">
        <ele>1586.3099999999999</ele>
        <time>2015-06-20T09:10:32Z</time>
      </trkpt>
      <trkpt lat="45.853315629065037" lon="9.465419556945562">
        <ele>1586.3099999999999</ele>
        <time>2015-06-20T09:10:33Z</time>
      </trkpt>
      <trkpt lat="45.853305319324136" lon="9.465413605794311">
        <ele>1585.8299999999999</ele>
        <time>2015-06-20T09:10:34Z</time>
      </trkpt>
      <trkpt lat="45.853292914107442" lon="9.465406984090805">
        <ele>1585.3499999999999</ele>
        <time>2015-06-20T09:10:35Z</time>
      </trkpt>
      <trkpt lat="45.853272881358862" lon="9.465411510318518">
        <ele>1584.8699999999999</ele>
        <time>2015-06-20T09:10:37Z</time>
      </trkpt>
      <trkpt lat="45.853246478363872" lon="9.465426346287131">
        <ele>1583.9100000000001</ele>
        <time>2015-06-20T09:10:40Z</time>
      </trkpt>
      <trkpt lat="45.853231474757195" lon="9.465449312701821">
        <ele>1581.99</ele>
        <time>2015-06-20T09:10:47Z</time>
      </trkpt>
      <trkpt lat="45.853206915780902" lon="9.465465238317847">
        <ele>1581.51</ele>
        <time>2015-06-20T09:10:49Z</time>
      </trkpt>
      <trkpt lat="45.853197695687413" lon="9.465468758717179">
        <ele>1581.03</ele>
        <time>2015-06-20T09:10:50Z</time>
      </trkpt>
      <trkpt lat="45.853169113397598" lon="9.465470602735877">
        <ele>1580.0599999999999</ele>
        <time>2015-06-20T09:10:53Z</time>
      </trkpt>
      <trkpt lat="45.853157546371222" lon="9.4654780626297">
        <ele>1579.5799999999999</ele>
        <time>2015-06-20T09:10:54Z</time>
      </trkpt>
      <trkpt lat="45.853043552488089" lon="9.465361386537552">
        <ele>1576.7</ele>
        <time>2015-06-20T09:11:06Z</time>
      </trkpt>
      <trkpt lat="45.853046234697104" lon="9.465340934693813">
        <ele>1576.22</ele>
        <time>2015-06-20T09:11:07Z</time>
      </trkpt>
      <trkpt lat="45.853051263839006" lon="9.465230545029044">
        <ele>1573.8199999999999</ele>
        <time>2015-06-20T09:11:15Z</time>
      </trkpt>
      <trkpt lat="45.853040283545852" lon="9.465161729604006">
        <ele>1572.3699999999999</ele>
        <time>2015-06-20T09:11:20Z</time>
      </trkpt>
      <trkpt lat="45.853044725954533" lon="9.465121915563941">
        <ele>1571.4100000000001</ele>
        <time>2015-06-20T09:11:23Z</time>
      </trkpt>
      <trkpt lat="45.853052102029324" lon="9.465032396838069">
        <ele>1568.05</ele>
        <time>2015-06-20T09:11:30Z</time>
      </trkpt>
      <trkpt lat="45.853067105636001" lon="9.46497431024909">
        <ele>1567.0899999999999</ele>
        <time>2015-06-20T09:11:34Z</time>
      </trkpt>
      <trkpt lat="45.853080097585917" lon="9.464901136234403">
        <ele>1565.1600000000001</ele>
        <time>2015-06-20T09:11:40Z</time>
      </trkpt>
      <trkpt lat="45.853084539994597" lon="9.464886132627726">
        <ele>1564.6800000000001</ele>
        <time>2015-06-20T09:11:41Z</time>
      </trkpt>
      <trkpt lat="45.853098621591926" lon="9.46485947817564">
        <ele>1563.72</ele>
        <time>2015-06-20T09:11:43Z</time>
      </trkpt>
      <trkpt lat="45.853104321286082" lon="9.464844390749931">
        <ele>1563.72</ele>
        <time>2015-06-20T09:11:44Z</time>
      </trkpt>
      <trkpt lat="45.85311496630311" lon="9.464830476790667">
        <ele>1563.24</ele>
        <time>2015-06-20T09:11:45Z</time>
      </trkpt>
      <trkpt lat="45.85313206538558" lon="9.464810192584992">
        <ele>1562.28</ele>
        <time>2015-06-20T09:11:47Z</time>
      </trkpt>
      <trkpt lat="45.853154109790921" lon="9.464781191200018">
        <ele>1561.3199999999999</ele>
        <time>2015-06-20T09:11:50Z</time>
      </trkpt>
      <trkpt lat="45.853155786171556" lon="9.464752776548266">
        <ele>1560.3599999999999</ele>
        <time>2015-06-20T09:11:52Z</time>
      </trkpt>
      <trkpt lat="45.853153439238667" lon="9.464734252542257">
        <ele>1560.3599999999999</ele>
        <time>2015-06-20T09:11:53Z</time>
      </trkpt>
      <trkpt lat="45.85315553471446" lon="9.464718494564295">
        <ele>1559.8800000000001</ele>
        <time>2015-06-20T09:11:54Z</time>
      </trkpt>
      <trkpt lat="45.853162659332156" lon="9.464703910052776">
        <ele>1559.4000000000001</ele>
        <time>2015-06-20T09:11:55Z</time>
      </trkpt>
      <trkpt lat="45.853173220530152" lon="9.464689241722226">
        <ele>1559.4000000000001</ele>
        <time>2015-06-20T09:11:56Z</time>
      </trkpt>
      <trkpt lat="45.853186380118132" lon="9.464676417410374">
        <ele>1558.4300000000001</ele>
        <time>2015-06-20T09:11:57Z</time>
      </trkpt>
      <trkpt lat="45.85319166071713" lon="9.46464934386313">
        <ele>1556.99</ele>
        <time>2015-06-20T09:12:02Z</time>
      </trkpt>
      <trkpt lat="45.853187302127481" lon="9.46463618427515">
        <ele>1556.51</ele>
        <time>2015-06-20T09:12:03Z</time>
      </trkpt>
      <trkpt lat="45.853191493079066" lon="9.464620929211378">
        <ele>1556.51</ele>
        <time>2015-06-20T09:12:04Z</time>
      </trkpt>
      <trkpt lat="45.853201970458031" lon="9.464611373841763">
        <ele>1556.03</ele>
        <time>2015-06-20T09:12:05Z</time>
      </trkpt>
      <trkpt lat="45.853220326825976" lon="9.464597459882498">
        <ele>1555.55</ele>
        <time>2015-06-20T09:12:07Z</time>
      </trkpt>
      <trkpt lat="45.853266092017293" lon="9.464538618922234">
        <ele>1553.6300000000001</ele>
        <time>2015-06-20T09:12:12Z</time>
      </trkpt>
      <trkpt lat="45.853274893015623" lon="9.464528895914555">
        <ele>1553.6300000000001</ele>
        <time>2015-06-20T09:12:13Z</time>
      </trkpt>
      <trkpt lat="45.85328159853816" lon="9.464517161250114">
        <ele>1553.1500000000001</ele>
        <time>2015-06-20T09:12:14Z</time>
      </trkpt>
      <trkpt lat="45.853288723155856" lon="9.464500565081835">
        <ele>1552.6700000000001</ele>
        <time>2015-06-20T09:12:15Z</time>
      </trkpt>
      <trkpt lat="45.853310767561197" lon="9.46447005495429">
        <ele>1552.1900000000001</ele>
        <time>2015-06-20T09:12:18Z</time>
      </trkpt>
      <trkpt lat="45.853378577157855" lon="9.464348936453462">
        <ele>1548.8199999999999</ele>
        <time>2015-06-20T09:12:27Z</time>
      </trkpt>
      <trkpt lat="45.853448398411274" lon="9.464295040816069">
        <ele>1546.9000000000001</ele>
        <time>2015-06-20T09:12:35Z</time>
      </trkpt>
      <trkpt lat="45.853461138904095" lon="9.464283557608724">
        <ele>1546.9000000000001</ele>
        <time>2015-06-20T09:12:36Z</time>
      </trkpt>
      <trkpt lat="45.853473292663693" lon="9.464274756610394">
        <ele>1546.4200000000001</ele>
        <time>2015-06-20T09:12:37Z</time>
      </trkpt>
      <trkpt lat="45.853486703708768" lon="9.464262686669827">
        <ele>1546.4200000000001</ele>
        <time>2015-06-20T09:12:38Z</time>
      </trkpt>
      <trkpt lat="45.853499192744493" lon="9.464253382757306">
        <ele>1545.9400000000001</ele>
        <time>2015-06-20T09:12:39Z</time>
      </trkpt>
      <trkpt lat="45.853510675951838" lon="9.464245419949293">
        <ele>1545.9400000000001</ele>
        <time>2015-06-20T09:12:40Z</time>
      </trkpt>
      <trkpt lat="45.85352148860693" lon="9.464238714426756">
        <ele>1545.46</ele>
        <time>2015-06-20T09:12:41Z</time>
      </trkpt>
      <trkpt lat="45.853532217442989" lon="9.464234104380012">
        <ele>1544.98</ele>
        <time>2015-06-20T09:12:42Z</time>
      </trkpt>
      <trkpt lat="45.853553339838982" lon="9.464228907600045">
        <ele>1544.5</ele>
        <time>2015-06-20T09:12:44Z</time>
      </trkpt>
      <trkpt lat="45.853581000119448" lon="9.464198984205723">
        <ele>1544.01</ele>
        <time>2015-06-20T09:12:47Z</time>
      </trkpt>
      <trkpt lat="45.853591142222285" lon="9.464192362502217">
        <ele>1543.53</ele>
        <time>2015-06-20T09:12:48Z</time>
      </trkpt>
      <trkpt lat="45.853600865229964" lon="9.464185824617744">
        <ele>1543.05</ele>
        <time>2015-06-20T09:12:49Z</time>
      </trkpt>
      <trkpt lat="45.853612096980214" lon="9.464182974770665">
        <ele>1542.5699999999999</ele>
        <time>2015-06-20T09:12:50Z</time>
      </trkpt>
      <trkpt lat="45.853630788624287" lon="9.464165288954973">
        <ele>1542.0899999999999</ele>
        <time>2015-06-20T09:12:52Z</time>
      </trkpt>
      <trkpt lat="45.853664735332131" lon="9.464149698615074">
        <ele>1540.6500000000001</ele>
        <time>2015-06-20T09:13:00Z</time>
      </trkpt>
      <trkpt lat="45.853661969304085" lon="9.464160595089197">
        <ele>1540.6500000000001</ele>
        <time>2015-06-20T09:13:06Z</time>
      </trkpt>
      <trkpt lat="45.85366029292345" lon="9.46416025981307">
        <ele>1540.1700000000001</ele>
        <time>2015-06-20T09:13:07Z</time>
      </trkpt>
      <trkpt lat="45.853657778352499" lon="9.46415732614696">
        <ele>1539.6900000000001</ele>
        <time>2015-06-20T09:13:16Z</time>
      </trkpt>
      <trkpt lat="45.853642523288727" lon="9.464165540412068">
        <ele>1540.6500000000001</ele>
        <time>2015-06-20T09:13:35Z</time>
      </trkpt>
      <trkpt lat="45.8536715246737" lon="9.464126983657479">
        <ele>1539.6900000000001</ele>
        <time>2015-06-20T09:13:41Z</time>
      </trkpt>
      <trkpt lat="45.853683426976204" lon="9.464124133810401">
        <ele>1539.6900000000001</ele>
        <time>2015-06-20T09:13:42Z</time>
      </trkpt>
      <trkpt lat="45.853694239631295" lon="9.464120613411069">
        <ele>1539.21</ele>
        <time>2015-06-20T09:13:43Z</time>
      </trkpt>
      <trkpt lat="45.85370572283864" lon="9.464112650603056">
        <ele>1539.21</ele>
        <time>2015-06-20T09:13:44Z</time>
      </trkpt>
      <trkpt lat="45.853719552978873" lon="9.464105190709233">
        <ele>1539.21</ele>
        <time>2015-06-20T09:13:45Z</time>
      </trkpt>
      <trkpt lat="45.853763474151492" lon="9.46408842690289">
        <ele>1538.25</ele>
        <time>2015-06-20T09:13:49Z</time>
      </trkpt>
      <trkpt lat="45.853775627911091" lon="9.464080547913909">
        <ele>1538.25</ele>
        <time>2015-06-20T09:13:50Z</time>
      </trkpt>
      <trkpt lat="45.853785937651992" lon="9.464077362790704">
        <ele>1537.77</ele>
        <time>2015-06-20T09:13:51Z</time>
      </trkpt>
      <trkpt lat="45.853820135816932" lon="9.464063867926598">
        <ele>1537.29</ele>
        <time>2015-06-20T09:14:00Z</time>
      </trkpt>
      <trkpt lat="45.853846287354827" lon="9.464057246223092">
        <ele>1536.8</ele>
        <time>2015-06-20T09:14:13Z</time>
      </trkpt>
      <trkpt lat="45.853858105838299" lon="9.464051462709904">
        <ele>1536.8</ele>
        <time>2015-06-20T09:14:14Z</time>
      </trkpt>
      <trkpt lat="45.85398861207068" lon="9.464009972289205">
        <ele>1536.3199999999999</ele>
        <time>2015-06-20T09:14:25Z</time>
      </trkpt>
      <trkpt lat="45.854100426658988" lon="9.463985413312912">
        <ele>1534.4000000000001</ele>
        <time>2015-06-20T09:14:33Z</time>
      </trkpt>
      <trkpt lat="45.854195225983858" lon="9.463922381401062">
        <ele>1532.96</ele>
        <time>2015-06-20T09:14:42Z</time>
      </trkpt>
      <trkpt lat="45.854343753308058" lon="9.463947024196386">
        <ele>1531.04</ele>
        <time>2015-06-20T09:14:54Z</time>
      </trkpt>
      <trkpt lat="45.854491274803877" lon="9.463955825194717">
        <ele>1532</ele>
        <time>2015-06-20T09:15:06Z</time>
      </trkpt>
      <trkpt lat="45.854608537629247" lon="9.46401609107852">
        <ele>1532.48</ele>
        <time>2015-06-20T09:15:16Z</time>
      </trkpt>
      <trkpt lat="45.854627480730414" lon="9.464033273980022">
        <ele>1532.96</ele>
        <time>2015-06-20T09:15:18Z</time>
      </trkpt>
      <trkpt lat="45.854639550670981" lon="9.464039225131273">
        <ele>1532.96</ele>
        <time>2015-06-20T09:15:19Z</time>
      </trkpt>
      <trkpt lat="45.854728734120727" lon="9.464116338640451">
        <ele>1533.4400000000001</ele>
        <time>2015-06-20T09:15:27Z</time>
      </trkpt>
      <trkpt lat="45.854892767965794" lon="9.464160595089197">
        <ele>1534.4000000000001</ele>
        <time>2015-06-20T09:15:40Z</time>
      </trkpt>
      <trkpt lat="45.855049844831228" lon="9.464221950620413">
        <ele>1533.4400000000001</ele>
        <time>2015-06-20T09:15:51Z</time>
      </trkpt>
      <trkpt lat="45.855192169547081" lon="9.464292777702212">
        <ele>1532</ele>
        <time>2015-06-20T09:16:03Z</time>
      </trkpt>
      <trkpt lat="45.855343043804169" lon="9.464248772710562">
        <ele>1531.52</ele>
        <time>2015-06-20T09:16:14Z</time>
      </trkpt>
      <trkpt lat="45.855434574186802" lon="9.464297303929925">
        <ele>1531.52</ele>
        <time>2015-06-20T09:16:22Z</time>
      </trkpt>
      <trkpt lat="45.855443123728037" lon="9.464309122413397">
        <ele>1532</ele>
        <time>2015-06-20T09:16:23Z</time>
      </trkpt>
      <trkpt lat="45.855453349649906" lon="9.464313397184014">
        <ele>1532</ele>
        <time>2015-06-20T09:16:24Z</time>
      </trkpt>
      <trkpt lat="45.855467179790139" lon="9.464311134070158">
        <ele>1532</ele>
        <time>2015-06-20T09:16:25Z</time>
      </trkpt>
      <trkpt lat="45.855482183396816" lon="9.464306859299541">
        <ele>1532</ele>
        <time>2015-06-20T09:16:26Z</time>
      </trkpt>
      <trkpt lat="45.855494420975447" lon="9.464302165433765">
        <ele>1531.52</ele>
        <time>2015-06-20T09:16:27Z</time>
      </trkpt>
      <trkpt lat="45.855507496744394" lon="9.464300237596035">
        <ele>1531.52</ele>
        <time>2015-06-20T09:16:28Z</time>
      </trkpt>
      <trkpt lat="45.855665663257241" lon="9.464276349171996">
        <ele>1531.52</ele>
        <time>2015-06-20T09:16:40Z</time>
      </trkpt>
      <trkpt lat="45.855769263580441" lon="9.464218597859144">
        <ele>1530.0799999999999</ele>
        <time>2015-06-20T09:16:50Z</time>
      </trkpt>
      <trkpt lat="45.855856100097299" lon="9.464171910658479">
        <ele>1527.1900000000001</ele>
        <time>2015-06-20T09:17:00Z</time>
      </trkpt>
      <trkpt lat="45.855859452858567" lon="9.464154224842787">
        <ele>1526.71</ele>
        <time>2015-06-20T09:17:02Z</time>
      </trkpt>
      <trkpt lat="45.855864146724343" lon="9.464140394702554">
        <ele>1526.71</ele>
        <time>2015-06-20T09:17:03Z</time>
      </trkpt>
      <trkpt lat="45.855874456465244" lon="9.464130336418748">
        <ele>1526.23</ele>
        <time>2015-06-20T09:17:04Z</time>
      </trkpt>
      <trkpt lat="45.855887532234192" lon="9.464126396924257">
        <ele>1525.75</ele>
        <time>2015-06-20T09:17:05Z</time>
      </trkpt>
      <trkpt lat="45.855922568589449" lon="9.464101418852806">
        <ele>1524.79</ele>
        <time>2015-06-20T09:17:10Z</time>
      </trkpt>
      <trkpt lat="45.855942936614156" lon="9.464070238173008">
        <ele>1522.8699999999999</ele>
        <time>2015-06-20T09:17:15Z</time>
      </trkpt>
      <trkpt lat="45.855946792289615" lon="9.464055821299553">
        <ele>1522.3900000000001</ele>
        <time>2015-06-20T09:17:16Z</time>
      </trkpt>
      <trkpt lat="45.85595291107893" lon="9.464042326435447">
        <ele>1522.3900000000001</ele>
        <time>2015-06-20T09:17:17Z</time>
      </trkpt>
      <trkpt lat="45.85594804957509" lon="9.46396672166884">
        <ele>1519.5</ele>
        <time>2015-06-20T09:17:25Z</time>
      </trkpt>
      <trkpt lat="45.855983505025506" lon="9.463916681706905">
        <ele>1518.0599999999999</ele>
        <time>2015-06-20T09:17:30Z</time>
      </trkpt>
      <trkpt lat="45.855996580794454" lon="9.463892625644803">
        <ele>1517.5799999999999</ele>
        <time>2015-06-20T09:17:32Z</time>
      </trkpt>
      <trkpt lat="45.856004375964403" lon="9.463878879323602">
        <ele>1517.0999999999999</ele>
        <time>2015-06-20T09:17:33Z</time>
      </trkpt>
      <trkpt lat="45.856015607714653" lon="9.463873179629445">
        <ele>1516.6199999999999</ele>
        <time>2015-06-20T09:17:34Z</time>
      </trkpt>
      <trkpt lat="45.856025498360395" lon="9.46386706084013">
        <ele>1516.6199999999999</ele>
        <time>2015-06-20T09:17:35Z</time>
      </trkpt>
      <trkpt lat="45.856035808101296" lon="9.463858176022768">
        <ele>1516.1400000000001</ele>
        <time>2015-06-20T09:17:36Z</time>
      </trkpt>
      <trkpt lat="45.856047878041863" lon="9.463849207386375">
        <ele>1515.6600000000001</ele>
        <time>2015-06-20T09:17:37Z</time>
      </trkpt>
      <trkpt lat="45.856059696525335" lon="9.46384116075933">
        <ele>1515.6600000000001</ele>
        <time>2015-06-20T09:17:38Z</time>
      </trkpt>
      <trkpt lat="45.856071682646871" lon="9.463836047798395">
        <ele>1515.1800000000001</ele>
        <time>2015-06-20T09:17:39Z</time>
      </trkpt>
      <trkpt lat="45.856083836406469" lon="9.463831186294556">
        <ele>1514.6900000000001</ele>
        <time>2015-06-20T09:17:40Z</time>
      </trkpt>
      <trkpt lat="45.856095822528005" lon="9.463829174637795">
        <ele>1514.6900000000001</ele>
        <time>2015-06-20T09:17:41Z</time>
      </trkpt>
      <trkpt lat="45.856108563020825" lon="9.463828252628446">
        <ele>1514.6900000000001</ele>
        <time>2015-06-20T09:17:42Z</time>
      </trkpt>
      <trkpt lat="45.856121554970741" lon="9.46382649242878">
        <ele>1514.21</ele>
        <time>2015-06-20T09:17:43Z</time>
      </trkpt>
      <trkpt lat="45.856134379282594" lon="9.463823139667511">
        <ele>1514.21</ele>
        <time>2015-06-20T09:17:44Z</time>
      </trkpt>
      <trkpt lat="45.856145778670907" lon="9.463819451630116">
        <ele>1514.21</ele>
        <time>2015-06-20T09:17:45Z</time>
      </trkpt>
      <trkpt lat="45.856157848611474" lon="9.46381282992661">
        <ele>1513.73</ele>
        <time>2015-06-20T09:17:46Z</time>
      </trkpt>
      <trkpt lat="45.856171930208802" lon="9.463804699480534">
        <ele>1513.25</ele>
        <time>2015-06-20T09:17:47Z</time>
      </trkpt>
      <trkpt lat="45.856182994320989" lon="9.463800676167011">
        <ele>1512.77</ele>
        <time>2015-06-20T09:17:48Z</time>
      </trkpt>
      <trkpt lat="45.856243092566729" lon="9.463744349777699">
        <ele>1510.3699999999999</ele>
        <time>2015-06-20T09:17:57Z</time>
      </trkpt>
      <trkpt lat="45.856269914656878" lon="9.463725658133626">
        <ele>1509.4100000000001</ele>
        <time>2015-06-20T09:18:00Z</time>
      </trkpt>
      <trkpt lat="45.856351973488927" lon="9.463695148006082">
        <ele>1506.04</ele>
        <time>2015-06-20T09:18:09Z</time>
      </trkpt>
      <trkpt lat="45.856370413675904" lon="9.46368089877069">
        <ele>1505.5599999999999</ele>
        <time>2015-06-20T09:18:11Z</time>
      </trkpt>
      <trkpt lat="45.856379047036171" lon="9.463671343401074">
        <ele>1505.5599999999999</ele>
        <time>2015-06-20T09:18:12Z</time>
      </trkpt>
      <trkpt lat="45.856389692053199" lon="9.463670002296567">
        <ele>1505.0799999999999</ele>
        <time>2015-06-20T09:18:13Z</time>
      </trkpt>
      <trkpt lat="45.856431098654866" lon="9.463644186034799">
        <ele>1501.72</ele>
        <time>2015-06-20T09:18:22Z</time>
      </trkpt>
      <trkpt lat="45.85642984136939" lon="9.463629852980375">
        <ele>1501.72</ele>
        <time>2015-06-20T09:18:23Z</time>
      </trkpt>
      <trkpt lat="45.856433277949691" lon="9.46361493319273">
        <ele>1501.24</ele>
        <time>2015-06-20T09:18:24Z</time>
      </trkpt>
      <trkpt lat="45.856437887996435" lon="9.463600097224116">
        <ele>1500.27</ele>
        <time>2015-06-20T09:18:25Z</time>
      </trkpt>
      <trkpt lat="45.856446353718638" lon="9.463591296225786">
        <ele>1500.27</ele>
        <time>2015-06-20T09:18:26Z</time>
      </trkpt>
      <trkpt lat="45.85648063570261" lon="9.463579477742314">
        <ele>1498.8299999999999</ele>
        <time>2015-06-20T09:18:31Z</time>
      </trkpt>
      <trkpt lat="45.856490693986416" lon="9.4635836686939">
        <ele>1498.3499999999999</ele>
        <time>2015-06-20T09:18:32Z</time>
      </trkpt>
      <trkpt lat="45.85650066845119" lon="9.463569670915604">
        <ele>1497.3900000000001</ele>
        <time>2015-06-20T09:18:36Z</time>
      </trkpt>
      <trkpt lat="45.856499494984746" lon="9.463542932644486">
        <ele>1496.4300000000001</ele>
        <time>2015-06-20T09:18:38Z</time>
      </trkpt>
      <trkpt lat="45.856508379802108" lon="9.463534215465188">
        <ele>1495.95</ele>
        <time>2015-06-20T09:18:39Z</time>
      </trkpt>
      <trkpt lat="45.856539560481906" lon="9.463504543527961">
        <ele>1494.99</ele>
        <time>2015-06-20T09:18:42Z</time>
      </trkpt>
      <trkpt lat="45.856550876051188" lon="9.463493311777711">
        <ele>1494.51</ele>
        <time>2015-06-20T09:18:43Z</time>
      </trkpt>
      <trkpt lat="45.856563113629818" lon="9.463465567678213">
        <ele>1493.55</ele>
        <time>2015-06-20T09:18:45Z</time>
      </trkpt>
      <trkpt lat="45.85656956769526" lon="9.463450061157346">
        <ele>1493.0599999999999</ele>
        <time>2015-06-20T09:18:46Z</time>
      </trkpt>
      <trkpt lat="45.856605442240834" lon="9.463399266824126">
        <ele>1491.1400000000001</ele>
        <time>2015-06-20T09:18:51Z</time>
      </trkpt>
      <trkpt lat="45.856603933498263" lon="9.463387113064528">
        <ele>1491.1400000000001</ele>
        <time>2015-06-20T09:18:52Z</time>
      </trkpt>
      <trkpt lat="45.856607621535659" lon="9.463373953476548">
        <ele>1490.6600000000001</ele>
        <time>2015-06-20T09:18:53Z</time>
      </trkpt>
      <trkpt lat="45.856614913791418" lon="9.463364901021123">
        <ele>1490.6600000000001</ele>
        <time>2015-06-20T09:18:54Z</time>
      </trkpt>
      <trkpt lat="45.856625642627478" lon="9.463366158306599">
        <ele>1490.1800000000001</ele>
        <time>2015-06-20T09:18:55Z</time>
      </trkpt>
      <trkpt lat="45.856708288192749" lon="9.463390717282891">
        <ele>1488.26</ele>
        <time>2015-06-20T09:19:03Z</time>
      </trkpt>
      <trkpt lat="45.856762183830142" lon="9.463314358144999">
        <ele>1485.8499999999999</ele>
        <time>2015-06-20T09:19:09Z</time>
      </trkpt>
      <trkpt lat="45.856790011748672" lon="9.463327433913946">
        <ele>1484.8900000000001</ele>
        <time>2015-06-20T09:19:12Z</time>
      </trkpt>
      <trkpt lat="45.856813481077552" lon="9.463296169415116">
        <ele>1483.45</ele>
        <time>2015-06-20T09:19:16Z</time>
      </trkpt>
      <trkpt lat="45.856819683685899" lon="9.463285524398089">
        <ele>1482.97</ele>
        <time>2015-06-20T09:19:17Z</time>
      </trkpt>
      <trkpt lat="45.856875004246831" lon="9.463258618488908">
        <ele>1480.5699999999999</ele>
        <time>2015-06-20T09:19:27Z</time>
      </trkpt>
      <trkpt lat="45.856875339522958" lon="9.463299857452512">
        <ele>1480.0899999999999</ele>
        <time>2015-06-20T09:19:36Z</time>
      </trkpt>
      <trkpt lat="45.856913393363357" lon="9.463301366195083">
        <ele>1479.1300000000001</ele>
        <time>2015-06-20T09:19:49Z</time>
      </trkpt>
      <trkpt lat="45.856926552951336" lon="9.463280159980059">
        <ele>1478.6500000000001</ele>
        <time>2015-06-20T09:19:54Z</time>
      </trkpt>
      <trkpt lat="45.856921942904592" lon="9.463271358981729">
        <ele>1478.1600000000001</ele>
        <time>2015-06-20T09:19:55Z</time>
      </trkpt>
      <trkpt lat="45.856907023116946" lon="9.463211847469211">
        <ele>1475.76</ele>
        <time>2015-06-20T09:20:03Z</time>
      </trkpt>
      <trkpt lat="45.856914985924959" lon="9.463198855519295">
        <ele>1475.28</ele>
        <time>2015-06-20T09:20:04Z</time>
      </trkpt>
      <trkpt lat="45.856932671740651" lon="9.4631761405617">
        <ele>1473.8399999999999</ele>
        <time>2015-06-20T09:20:07Z</time>
      </trkpt>
      <trkpt lat="45.856910292059183" lon="9.463207740336657">
        <ele>1474.3199999999999</ele>
        <time>2015-06-20T09:20:23Z</time>
      </trkpt>
      <trkpt lat="45.856902580708265" lon="9.463178152218461">
        <ele>1474.3199999999999</ele>
        <time>2015-06-20T09:20:37Z</time>
      </trkpt>
      <trkpt lat="45.856904089450836" lon="9.46317370980978">
        <ele>1474.3199999999999</ele>
        <time>2015-06-20T09:20:44Z</time>
      </trkpt>
      <trkpt lat="45.856909202411771" lon="9.463136410340667">
        <ele>1473.3599999999999</ele>
        <time>2015-06-20T09:20:46Z</time>
      </trkpt>
      <trkpt lat="45.856944490224123" lon="9.463053680956364">
        <ele>1470.95</ele>
        <time>2015-06-20T09:20:55Z</time>
      </trkpt>
      <trkpt lat="45.856938539072871" lon="9.463034737855196">
        <ele>1469.51</ele>
        <time>2015-06-20T09:21:04Z</time>
      </trkpt>
      <trkpt lat="45.85694239474833" lon="9.462943794205785">
        <ele>1467.1099999999999</ele>
        <time>2015-06-20T09:21:14Z</time>
      </trkpt>
      <trkpt lat="45.856955470517278" lon="9.462927114218473">
        <ele>1466.6300000000001</ele>
        <time>2015-06-20T09:21:16Z</time>
      </trkpt>
      <trkpt lat="45.856989752501249" lon="9.462877158075571">
        <ele>1463.26</ele>
        <time>2015-06-20T09:21:25Z</time>
      </trkpt>
      <trkpt lat="45.857022944837809" lon="9.462831141427159">
        <ele>1461.3399999999999</ele>
        <time>2015-06-20T09:21:33Z</time>
      </trkpt>
      <trkpt lat="45.857039289548993" lon="9.462816892191768">
        <ele>1458.46</ele>
        <time>2015-06-20T09:21:42Z</time>
      </trkpt>
      <trkpt lat="45.856996960937977" lon="9.462804822251201">
        <ele>1456.53</ele>
        <time>2015-06-20T09:21:48Z</time>
      </trkpt>
      <trkpt lat="45.856993105262518" lon="9.462787723168731">
        <ele>1456.05</ele>
        <time>2015-06-20T09:21:49Z</time>
      </trkpt>
      <trkpt lat="45.85698832757771" lon="9.462771043181419">
        <ele>1456.05</ele>
        <time>2015-06-20T09:21:50Z</time>
      </trkpt>
      <trkpt lat="45.856984052807093" lon="9.462751848623157">
        <ele>1455.5699999999999</ele>
        <time>2015-06-20T09:21:51Z</time>
      </trkpt>
      <trkpt lat="45.85699662566185" lon="9.462677165865898">
        <ele>1453.1700000000001</ele>
        <time>2015-06-20T09:21:59Z</time>
      </trkpt>
      <trkpt lat="45.857010455802083" lon="9.462637351825833">
        <ele>1451.25</ele>
        <time>2015-06-20T09:22:04Z</time>
      </trkpt>
      <trkpt lat="45.857012970373034" lon="9.462616732344031">
        <ele>1451.25</ele>
        <time>2015-06-20T09:22:05Z</time>
      </trkpt>
      <trkpt lat="45.856996541842818" lon="9.462499134242535">
        <ele>1447.8800000000001</ele>
        <time>2015-06-20T09:22:13Z</time>
      </trkpt>
      <trkpt lat="45.857049850746989" lon="9.462368628010154">
        <ele>1445.48</ele>
        <time>2015-06-20T09:22:23Z</time>
      </trkpt>
      <trkpt lat="45.857078600674868" lon="9.462292185053229">
        <ele>1443.5599999999999</ele>
        <time>2015-06-20T09:22:29Z</time>
      </trkpt>
      <trkpt lat="45.857163341715932" lon="9.462259998545051">
        <ele>1440.1900000000001</ele>
        <time>2015-06-20T09:22:39Z</time>
      </trkpt>
      <trkpt lat="45.857174405828118" lon="9.462248515337706">
        <ele>1439.71</ele>
        <time>2015-06-20T09:22:41Z</time>
      </trkpt>
      <trkpt lat="45.857220338657498" lon="9.462232002988458">
        <ele>1436.3499999999999</ele>
        <time>2015-06-20T09:22:50Z</time>
      </trkpt>
      <trkpt lat="45.857242969796062" lon="9.462129576131702">
        <ele>1433.46</ele>
        <time>2015-06-20T09:22:58Z</time>
      </trkpt>
      <trkpt lat="45.857225451618433" lon="9.462109543383122">
        <ele>1432.5</ele>
        <time>2015-06-20T09:23:00Z</time>
      </trkpt>
      <trkpt lat="45.857213046401739" lon="9.462098982185125">
        <ele>1432.5</ele>
        <time>2015-06-20T09:23:01Z</time>
      </trkpt>
      <trkpt lat="45.857149930670857" lon="9.462013151496649">
        <ele>1430.0999999999999</ele>
        <time>2015-06-20T09:23:10Z</time>
      </trkpt>
      <trkpt lat="45.85716275498271" lon="9.461996303871274">
        <ele>1429.6199999999999</ele>
        <time>2015-06-20T09:23:11Z</time>
      </trkpt>
      <trkpt lat="45.857168789952993" lon="9.461989430710673">
        <ele>1428.6600000000001</ele>
        <time>2015-06-20T09:23:12Z</time>
      </trkpt>
      <trkpt lat="45.857163425534964" lon="9.461979037150741">
        <ele>1428.6600000000001</ele>
        <time>2015-06-20T09:23:13Z</time>
      </trkpt>
      <trkpt lat="45.857163090258837" lon="9.461963446810842">
        <ele>1428.1800000000001</ele>
        <time>2015-06-20T09:23:14Z</time>
      </trkpt>
      <trkpt lat="45.857171472162008" lon="9.461953891441226">
        <ele>1427.7</ele>
        <time>2015-06-20T09:23:15Z</time>
      </trkpt>
      <trkpt lat="45.857231235131621" lon="9.461916089057922">
        <ele>1426.25</ele>
        <time>2015-06-20T09:23:20Z</time>
      </trkpt>
      <trkpt lat="45.857323771342635" lon="9.462006613612175">
        <ele>1423.8499999999999</ele>
        <time>2015-06-20T09:23:28Z</time>
      </trkpt>
      <trkpt lat="45.857407925650477" lon="9.462060844525695">
        <ele>1420.49</ele>
        <time>2015-06-20T09:23:37Z</time>
      </trkpt>
      <trkpt lat="45.857428628951311" lon="9.461995800957084">
        <ele>1417.5999999999999</ele>
        <time>2015-06-20T09:23:45Z</time>
      </trkpt>
      <trkpt lat="45.857445225119591" lon="9.461995465680957">
        <ele>1416.6400000000001</ele>
        <time>2015-06-20T09:23:47Z</time>
      </trkpt>
      <trkpt lat="45.857487637549639" lon="9.462004685774446">
        <ele>1414.72</ele>
        <time>2015-06-20T09:23:51Z</time>
      </trkpt>
      <trkpt lat="45.857499707490206" lon="9.462004266679287">
        <ele>1414.24</ele>
        <time>2015-06-20T09:23:52Z</time>
      </trkpt>
      <trkpt lat="45.857565589249134" lon="9.462010301649571">
        <ele>1410.8699999999999</ele>
        <time>2015-06-20T09:24:00Z</time>
      </trkpt>
      <trkpt lat="45.857584699988365" lon="9.461980210617185">
        <ele>1409.9100000000001</ele>
        <time>2015-06-20T09:24:03Z</time>
      </trkpt>
      <trkpt lat="45.857595428824425" lon="9.461973253637552">
        <ele>1409.4300000000001</ele>
        <time>2015-06-20T09:24:04Z</time>
      </trkpt>
      <trkpt lat="45.857608839869499" lon="9.461978282779455">
        <ele>1408.95</ele>
        <time>2015-06-20T09:24:05Z</time>
      </trkpt>
      <trkpt lat="45.857641529291868" lon="9.461993286386132">
        <ele>1407.03</ele>
        <time>2015-06-20T09:24:09Z</time>
      </trkpt>
      <trkpt lat="45.85767044685781" lon="9.461994124576449">
        <ele>1406.0699999999999</ele>
        <time>2015-06-20T09:24:12Z</time>
      </trkpt>
      <trkpt lat="45.857770442962646" lon="9.462037291377783">
        <ele>1402.7</ele>
        <time>2015-06-20T09:24:21Z</time>
      </trkpt>
      <trkpt lat="45.857786117121577" lon="9.462056234478951">
        <ele>1401.74</ele>
        <time>2015-06-20T09:24:23Z</time>
      </trkpt>
      <trkpt lat="45.857796678319573" lon="9.462055312469602">
        <ele>1401.74</ele>
        <time>2015-06-20T09:24:24Z</time>
      </trkpt>
      <trkpt lat="45.857809670269489" lon="9.462058413773775">
        <ele>1401.26</ele>
        <time>2015-06-20T09:24:25Z</time>
      </trkpt>
      <trkpt lat="45.857821237295866" lon="9.462067382410169">
        <ele>1401.26</ele>
        <time>2015-06-20T09:24:26Z</time>
      </trkpt>
      <trkpt lat="45.857831379398704" lon="9.462076602503657">
        <ele>1400.78</ele>
        <time>2015-06-20T09:24:27Z</time>
      </trkpt>
      <trkpt lat="45.857841856777668" lon="9.462084397673607">
        <ele>1400.3</ele>
        <time>2015-06-20T09:24:28Z</time>
      </trkpt>
      <trkpt lat="45.857864990830421" lon="9.462112728506327">
        <ele>1399.3399999999999</ele>
        <time>2015-06-20T09:24:31Z</time>
      </trkpt>
      <trkpt lat="45.857871528714895" lon="9.462125301361084">
        <ele>1398.8599999999999</ele>
        <time>2015-06-20T09:24:32Z</time>
      </trkpt>
      <trkpt lat="45.857878569513559" lon="9.462138041853905">
        <ele>1398.3699999999999</ele>
        <time>2015-06-20T09:24:33Z</time>
      </trkpt>
      <trkpt lat="45.857888963073492" lon="9.462144998833537">
        <ele>1397.8900000000001</ele>
        <time>2015-06-20T09:24:34Z</time>
      </trkpt>
      <trkpt lat="45.857945373281837" lon="9.462166288867593">
        <ele>1395.01</ele>
        <time>2015-06-20T09:24:41Z</time>
      </trkpt>
      <trkpt lat="45.857954928651452" lon="9.462176598608494">
        <ele>1394.53</ele>
        <time>2015-06-20T09:24:42Z</time>
      </trkpt>
      <trkpt lat="45.858030868694186" lon="9.462236445397139">
        <ele>1392.1300000000001</ele>
        <time>2015-06-20T09:24:51Z</time>
      </trkpt>
      <trkpt lat="45.858045537024736" lon="9.462245749309659">
        <ele>1391.6500000000001</ele>
        <time>2015-06-20T09:24:52Z</time>
      </trkpt>
      <trkpt lat="45.858187107369304" lon="9.462386565282941">
        <ele>1388.76</ele>
        <time>2015-06-20T09:25:00Z</time>
      </trkpt>
      <trkpt lat="45.858213510364294" lon="9.462362173944712">
        <ele>1388.28</ele>
        <time>2015-06-20T09:25:04Z</time>
      </trkpt>
      <trkpt lat="45.858246367424726" lon="9.462224626913667">
        <ele>1385.8800000000001</ele>
        <time>2015-06-20T09:25:12Z</time>
      </trkpt>
      <trkpt lat="45.858252737671137" lon="9.462210461497307">
        <ele>1385.8800000000001</ele>
        <time>2015-06-20T09:25:13Z</time>
      </trkpt>
      <trkpt lat="45.858259610831738" lon="9.462197385728359">
        <ele>1385.4000000000001</ele>
        <time>2015-06-20T09:25:14Z</time>
      </trkpt>
      <trkpt lat="45.858268830925226" lon="9.462188920006156">
        <ele>1385.4000000000001</ele>
        <time>2015-06-20T09:25:15Z</time>
      </trkpt>
      <trkpt lat="45.858285678550601" lon="9.462202582508326">
        <ele>1384.9200000000001</ele>
        <time>2015-06-20T09:25:17Z</time>
      </trkpt>
      <trkpt lat="45.858422052115202" lon="9.462412968277931">
        <ele>1382.03</ele>
        <time>2015-06-20T09:25:24Z</time>
      </trkpt>
      <trkpt lat="45.858592540025711" lon="9.462574487552047">
        <ele>1381.0699999999999</ele>
        <time>2015-06-20T09:25:31Z</time>
      </trkpt>
      <trkpt lat="45.858563203364611" lon="9.462511874735355">
        <ele>1382.03</ele>
        <time>2015-06-20T09:25:34Z</time>
      </trkpt>
      <trkpt lat="45.858537303283811" lon="9.462250526994467">
        <ele>1380.5899999999999</ele>
        <time>2015-06-20T09:25:43Z</time>
      </trkpt>
      <trkpt lat="45.85858809761703" lon="9.462188417091966">
        <ele>1377.23</ele>
        <time>2015-06-20T09:25:51Z</time>
      </trkpt>
      <trkpt lat="45.858584409579635" lon="9.462122870609164">
        <ele>1374.8199999999999</ele>
        <time>2015-06-20T09:26:00Z</time>
      </trkpt>
      <trkpt lat="45.858555575832725" lon="9.462073249742389">
        <ele>1373.8599999999999</ele>
        <time>2015-06-20T09:26:02Z</time>
      </trkpt>
      <trkpt lat="45.858508134260774" lon="9.462097305804491">
        <ele>1373.3800000000001</ele>
        <time>2015-06-20T09:26:04Z</time>
      </trkpt>
      <trkpt lat="45.858529172837734" lon="9.462101077660918">
        <ele>1372.9000000000001</ele>
        <time>2015-06-20T09:26:05Z</time>
      </trkpt>
      <trkpt lat="45.858611818403006" lon="9.462043158710003">
        <ele>1372.9000000000001</ele>
        <time>2015-06-20T09:26:13Z</time>
      </trkpt>
      <trkpt lat="45.858613410964608" lon="9.462034190073609">
        <ele>1372.9000000000001</ele>
        <time>2015-06-20T09:26:14Z</time>
      </trkpt>
      <trkpt lat="45.858604274690151" lon="9.461973505094647">
        <ele>1370.98</ele>
        <time>2015-06-20T09:26:21Z</time>
      </trkpt>
      <trkpt lat="45.858607795089483" lon="9.461937211453915">
        <ele>1370.02</ele>
        <time>2015-06-20T09:26:24Z</time>
      </trkpt>
      <trkpt lat="45.858594970777631" lon="9.461928075179458">
        <ele>1368.5699999999999</ele>
        <time>2015-06-20T09:26:27Z</time>
      </trkpt>
      <trkpt lat="45.858594551682472" lon="9.461918519809842">
        <ele>1368.5699999999999</ele>
        <time>2015-06-20T09:26:28Z</time>
      </trkpt>
      <trkpt lat="45.858590612187982" lon="9.461720203980804">
        <ele>1369.05</ele>
        <time>2015-06-20T09:26:39Z</time>
      </trkpt>
      <trkpt lat="45.858584493398666" lon="9.461703859269619">
        <ele>1368.5699999999999</ele>
        <time>2015-06-20T09:26:40Z</time>
      </trkpt>
      <trkpt lat="45.858580805361271" lon="9.461655747145414">
        <ele>1369.05</ele>
        <time>2015-06-20T09:26:43Z</time>
      </trkpt>
      <trkpt lat="45.858576446771622" lon="9.461632864549756">
        <ele>1367.6099999999999</ele>
        <time>2015-06-20T09:26:49Z</time>
      </trkpt>
      <trkpt lat="45.858564963564277" lon="9.461559103801847">
        <ele>1365.21</ele>
        <time>2015-06-20T09:26:55Z</time>
      </trkpt>
      <trkpt lat="45.858567478135228" lon="9.461547201499343">
        <ele>1365.21</ele>
        <time>2015-06-20T09:26:56Z</time>
      </trkpt>
      <trkpt lat="45.85855633020401" lon="9.461386520415545">
        <ele>1363.29</ele>
        <time>2015-06-20T09:27:05Z</time>
      </trkpt>
      <trkpt lat="45.858547361567616" lon="9.461196921765804">
        <ele>1360.8800000000001</ele>
        <time>2015-06-20T09:27:16Z</time>
      </trkpt>
      <trkpt lat="45.858488688245416" lon="9.461058201268315">
        <ele>1358</ele>
        <time>2015-06-20T09:27:25Z</time>
      </trkpt>
      <trkpt lat="45.858491286635399" lon="9.461030373349786">
        <ele>1358</ele>
        <time>2015-06-20T09:27:26Z</time>
      </trkpt>
      <trkpt lat="45.858495645225048" lon="9.461005311459303">
        <ele>1358</ele>
        <time>2015-06-20T09:27:27Z</time>
      </trkpt>
      <trkpt lat="45.858513666316867" lon="9.460904058068991">
        <ele>1356.0799999999999</ele>
        <time>2015-06-20T09:27:33Z</time>
      </trkpt>
      <trkpt lat="45.858519282191992" lon="9.460887461900711">
        <ele>1355.5999999999999</ele>
        <time>2015-06-20T09:27:34Z</time>
      </trkpt>
      <trkpt lat="45.858524646610022" lon="9.460854772478342">
        <ele>1354.6300000000001</ele>
        <time>2015-06-20T09:27:36Z</time>
      </trkpt>
      <trkpt lat="45.858527747914195" lon="9.460837170481682">
        <ele>1354.1500000000001</ele>
        <time>2015-06-20T09:27:37Z</time>
      </trkpt>
      <trkpt lat="45.858534201979637" lon="9.460820322856307">
        <ele>1353.6700000000001</ele>
        <time>2015-06-20T09:27:38Z</time>
      </trkpt>
      <trkpt lat="45.858567897230387" lon="9.460758715867996">
        <ele>1350.79</ele>
        <time>2015-06-20T09:27:44Z</time>
      </trkpt>
      <trkpt lat="45.858581643551588" lon="9.460705993697047">
        <ele>1347.9100000000001</ele>
        <time>2015-06-20T09:27:53Z</time>
      </trkpt>
      <trkpt lat="45.858567310497165" lon="9.460644638165832">
        <ele>1345.98</ele>
        <time>2015-06-20T09:28:00Z</time>
      </trkpt>
      <trkpt lat="45.858497405424714" lon="9.460581773892045">
        <ele>1344.54</ele>
        <time>2015-06-20T09:28:08Z</time>
      </trkpt>
      <trkpt lat="45.858389362692833" lon="9.460528716444969">
        <ele>1342.6199999999999</ele>
        <time>2015-06-20T09:28:18Z</time>
      </trkpt>
      <trkpt lat="45.85835793055594" lon="9.460512287914753">
        <ele>1342.1400000000001</ele>
        <time>2015-06-20T09:28:20Z</time>
      </trkpt>
      <trkpt lat="45.858338819816709" lon="9.460496865212917">
        <ele>1341.6600000000001</ele>
        <time>2015-06-20T09:28:21Z</time>
      </trkpt>
      <trkpt lat="45.858257263898849" lon="9.46040709502995">
        <ele>1341.1800000000001</ele>
        <time>2015-06-20T09:28:29Z</time>
      </trkpt>
      <trkpt lat="45.858234968036413" lon="9.460394689813256">
        <ele>1341.1800000000001</ele>
        <time>2015-06-20T09:28:32Z</time>
      </trkpt>
      <trkpt lat="45.858215857297182" lon="9.460383458063006">
        <ele>1341.1800000000001</ele>
        <time>2015-06-20T09:28:33Z</time>
      </trkpt>
      <trkpt lat="45.858164140954614" lon="9.46035479195416">
        <ele>1340.22</ele>
        <time>2015-06-20T09:28:36Z</time>
      </trkpt>
      <trkpt lat="45.858246283605695" lon="9.460252532735467">
        <ele>1337.8099999999999</ele>
        <time>2015-06-20T09:28:50Z</time>
      </trkpt>
      <trkpt lat="45.858275536447763" lon="9.460195116698742">
        <ele>1334.9300000000001</ele>
        <time>2015-06-20T09:28:58Z</time>
      </trkpt>
      <trkpt lat="45.858280397951603" lon="9.460158990696073">
        <ele>1333.49</ele>
        <time>2015-06-20T09:29:01Z</time>
      </trkpt>
      <trkpt lat="45.85829883813858" lon="9.460134096443653">
        <ele>1331.5599999999999</ele>
        <time>2015-06-20T09:29:04Z</time>
      </trkpt>
      <trkpt lat="45.858301855623722" lon="9.460098305717111">
        <ele>1330.5999999999999</ele>
        <time>2015-06-20T09:29:07Z</time>
      </trkpt>
      <trkpt lat="45.858304873108864" lon="9.460043739527464">
        <ele>1329.1600000000001</ele>
        <time>2015-06-20T09:29:11Z</time>
      </trkpt>
      <trkpt lat="45.858323145657778" lon="9.459997052326798">
        <ele>1327.72</ele>
        <time>2015-06-20T09:29:14Z</time>
      </trkpt>
      <trkpt lat="45.858352985233068" lon="9.459867803379893">
        <ele>1325.3099999999999</ele>
        <time>2015-06-20T09:29:23Z</time>
      </trkpt>
      <trkpt lat="45.858298502862453" lon="9.459754480049014">
        <ele>1323.3900000000001</ele>
        <time>2015-06-20T09:29:32Z</time>
      </trkpt>
      <trkpt lat="45.858233207836747" lon="9.459695219993591">
        <ele>1321.95</ele>
        <time>2015-06-20T09:29:41Z</time>
      </trkpt>
      <trkpt lat="45.858246367424726" lon="9.459601594135165">
        <ele>1318.5899999999999</ele>
        <time>2015-06-20T09:29:50Z</time>
      </trkpt>
      <trkpt lat="45.858279559761286" lon="9.459594134241343">
        <ele>1317.6199999999999</ele>
        <time>2015-06-20T09:29:53Z</time>
      </trkpt>
      <trkpt lat="45.858302609995008" lon="9.459573179483414">
        <ele>1316.6600000000001</ele>
        <time>2015-06-20T09:29:56Z</time>
      </trkpt>
      <trkpt lat="45.858308644965291" lon="9.459552224725485">
        <ele>1315.7</ele>
        <time>2015-06-20T09:29:58Z</time>
      </trkpt>
      <trkpt lat="45.858328593894839" lon="9.459526324644685">
        <ele>1314.74</ele>
        <time>2015-06-20T09:30:00Z</time>
      </trkpt>
      <trkpt lat="45.858393050730228" lon="9.459470584988594">
        <ele>1312.3399999999999</ele>
        <time>2015-06-20T09:30:07Z</time>
      </trkpt>
      <trkpt lat="45.858421549201012" lon="9.459424065425992">
        <ele>1311.3800000000001</ele>
        <time>2015-06-20T09:30:11Z</time>
      </trkpt>
      <trkpt lat="45.858472511172295" lon="9.459370840340853">
        <ele>1309.9300000000001</ele>
        <time>2015-06-20T09:30:16Z</time>
      </trkpt>
      <trkpt lat="45.858496483415365" lon="9.459380311891437">
        <ele>1309.45</ele>
        <time>2015-06-20T09:30:18Z</time>
      </trkpt>
      <trkpt lat="45.858587846159935" lon="9.459324991330504">
        <ele>1306.0899999999999</ele>
        <time>2015-06-20T09:30:27Z</time>
      </trkpt>
      <trkpt lat="45.858612405136228" lon="9.459314681589603">
        <ele>1305.6099999999999</ele>
        <time>2015-06-20T09:30:29Z</time>
      </trkpt>
      <trkpt lat="45.858635790646076" lon="9.459320297464728">
        <ele>1305.1300000000001</ele>
        <time>2015-06-20T09:30:31Z</time>
      </trkpt>
      <trkpt lat="45.858697229996324" lon="9.459295906126499">
        <ele>1302.72</ele>
        <time>2015-06-20T09:30:36Z</time>
      </trkpt>
      <trkpt lat="45.858748108148575" lon="9.459291631355882">
        <ele>1300.8</ele>
        <time>2015-06-20T09:30:40Z</time>
      </trkpt>
      <trkpt lat="45.858805691823363" lon="9.459219630807638">
        <ele>1297.4400000000001</ele>
        <time>2015-06-20T09:30:47Z</time>
      </trkpt>
      <trkpt lat="45.858863359317183" lon="9.459177805110812">
        <ele>1295.99</ele>
        <time>2015-06-20T09:30:53Z</time>
      </trkpt>
      <trkpt lat="45.858881128951907" lon="9.459162633866072">
        <ele>1295.51</ele>
        <time>2015-06-20T09:30:55Z</time>
      </trkpt>
      <trkpt lat="45.858901161700487" lon="9.459127681329846">
        <ele>1294.55</ele>
        <time>2015-06-20T09:30:58Z</time>
      </trkpt>
      <trkpt lat="45.85895698517561" lon="9.459058111533523">
        <ele>1291.1900000000001</ele>
        <time>2015-06-20T09:31:06Z</time>
      </trkpt>
      <trkpt lat="45.859049605205655" lon="9.459002874791622">
        <ele>1287.8199999999999</ele>
        <time>2015-06-20T09:31:17Z</time>
      </trkpt>
      <trkpt lat="45.85914071649313" lon="9.458938166499138">
        <ele>1284.9400000000001</ele>
        <time>2015-06-20T09:31:27Z</time>
      </trkpt>
      <trkpt lat="45.859153876081109" lon="9.458924252539873">
        <ele>1283.02</ele>
        <time>2015-06-20T09:31:36Z</time>
      </trkpt>
      <trkpt lat="45.859178518876433" lon="9.458920145407319">
        <ele>1282.54</ele>
        <time>2015-06-20T09:31:41Z</time>
      </trkpt>
      <trkpt lat="45.859204586595297" lon="9.458887204527855">
        <ele>1282.0599999999999</ele>
        <time>2015-06-20T09:31:44Z</time>
      </trkpt>
      <trkpt lat="45.859272396191955" lon="9.458863316103816">
        <ele>1279.6500000000001</ele>
        <time>2015-06-20T09:31:51Z</time>
      </trkpt>
      <trkpt lat="45.859328890219331" lon="9.458785699680448">
        <ele>1276.29</ele>
        <time>2015-06-20T09:32:01Z</time>
      </trkpt>
      <trkpt lat="45.859357053413987" lon="9.458730462938547">
        <ele>1274.3599999999999</ele>
        <time>2015-06-20T09:32:09Z</time>
      </trkpt>
      <trkpt lat="45.859397286549211" lon="9.458687631413341">
        <ele>1271.96</ele>
        <time>2015-06-20T09:32:16Z</time>
      </trkpt>
      <trkpt lat="45.859427796676755" lon="9.458673046901822">
        <ele>1271.48</ele>
        <time>2015-06-20T09:32:19Z</time>
      </trkpt>
      <trkpt lat="45.859455037862062" lon="9.458645889535546">
        <ele>1270.52</ele>
        <time>2015-06-20T09:32:22Z</time>
      </trkpt>
      <trkpt lat="45.859546652063727" lon="9.458508510142565">
        <ele>1267.1600000000001</ele>
        <time>2015-06-20T09:32:32Z</time>
      </trkpt>
      <trkpt lat="45.859557967633009" lon="9.458497781306505">
        <ele>1267.6400000000001</ele>
        <time>2015-06-20T09:32:33Z</time>
      </trkpt>
      <trkpt lat="45.859633572399616" lon="9.458425864577293">
        <ele>1265.23</ele>
        <time>2015-06-20T09:32:41Z</time>
      </trkpt>
      <trkpt lat="45.859649162739515" lon="9.45840809494257">
        <ele>1265.23</ele>
        <time>2015-06-20T09:32:43Z</time>
      </trkpt>
      <trkpt lat="45.859712027013302" lon="9.45842913351953">
        <ele>1263.3099999999999</ele>
        <time>2015-06-20T09:32:51Z</time>
      </trkpt>
      <trkpt lat="45.859781177714467" lon="9.458371717482805">
        <ele>1260.4300000000001</ele>
        <time>2015-06-20T09:33:00Z</time>
      </trkpt>
      <trkpt lat="45.859810179099441" lon="9.458353109657764">
        <ele>1258.98</ele>
        <time>2015-06-20T09:33:03Z</time>
      </trkpt>
      <trkpt lat="45.859847143292427" lon="9.45830793119967">
        <ele>1256.0999999999999</ele>
        <time>2015-06-20T09:33:11Z</time>
      </trkpt>
      <trkpt lat="45.859847227111459" lon="9.458252359181643">
        <ele>1253.22</ele>
        <time>2015-06-20T09:33:18Z</time>
      </trkpt>
      <trkpt lat="45.859875557944179" lon="9.458249760791659">
        <ele>1251.77</ele>
        <time>2015-06-20T09:33:21Z</time>
      </trkpt>
      <trkpt lat="45.859884610399604" lon="9.458223190158606">
        <ele>1251.29</ele>
        <time>2015-06-20T09:33:23Z</time>
      </trkpt>
      <trkpt lat="45.859895339235663" lon="9.458177592605352">
        <ele>1249.8499999999999</ele>
        <time>2015-06-20T09:33:26Z</time>
      </trkpt>
      <trkpt lat="45.859903804957867" lon="9.458133168518543">
        <ele>1247.9300000000001</ele>
        <time>2015-06-20T09:33:30Z</time>
      </trkpt>
      <trkpt lat="45.859981589019299" lon="9.458099221810699">
        <ele>1245.04</ele>
        <time>2015-06-20T09:33:37Z</time>
      </trkpt>
      <trkpt lat="45.859990557655692" lon="9.458093857392669">
        <ele>1244.5599999999999</ele>
        <time>2015-06-20T09:33:38Z</time>
      </trkpt>
      <trkpt lat="45.860017463564873" lon="9.458071645349264">
        <ele>1243.5999999999999</ele>
        <time>2015-06-20T09:33:41Z</time>
      </trkpt>
      <trkpt lat="45.860140090808272" lon="9.458035686984658">
        <ele>1241.2</ele>
        <time>2015-06-20T09:33:51Z</time>
      </trkpt>
      <trkpt lat="45.86016389541328" lon="9.458004841580987">
        <ele>1240.72</ele>
        <time>2015-06-20T09:33:54Z</time>
      </trkpt>
      <trkpt lat="45.860223490744829" lon="9.457850027829409">
        <ele>1237.3499999999999</ele>
        <time>2015-06-20T09:34:03Z</time>
      </trkpt>
      <trkpt lat="45.860283169895411" lon="9.457814656198025">
        <ele>1236.8699999999999</ele>
        <time>2015-06-20T09:34:13Z</time>
      </trkpt>
      <trkpt lat="45.860312255099416" lon="9.457782553508878">
        <ele>1235.9100000000001</ele>
        <time>2015-06-20T09:34:21Z</time>
      </trkpt>
      <trkpt lat="45.860350728034973" lon="9.457773165777326">
        <ele>1237.8299999999999</ele>
        <time>2015-06-20T09:34:26Z</time>
      </trkpt>
      <trkpt lat="45.860412586480379" lon="9.457736620679498">
        <ele>1239.76</ele>
        <time>2015-06-20T09:34:36Z</time>
      </trkpt>
      <trkpt lat="45.860504368320107" lon="9.457660093903542">
        <ele>1239.28</ele>
        <time>2015-06-20T09:34:44Z</time>
      </trkpt>
      <trkpt lat="45.860638143494725" lon="9.457617178559303">
        <ele>1240.72</ele>
        <time>2015-06-20T09:34:56Z</time>
      </trkpt>
      <trkpt lat="45.860678125172853" lon="9.45757501758635">
        <ele>1240.24</ele>
        <time>2015-06-20T09:35:01Z</time>
      </trkpt>
      <trkpt lat="45.860819863155484" lon="9.457391621544957">
        <ele>1238.3199999999999</ele>
        <time>2015-06-20T09:35:13Z</time>
      </trkpt>
      <trkpt lat="45.860877614468336" lon="9.457349376752973">
        <ele>1239.28</ele>
        <time>2015-06-20T09:35:19Z</time>
      </trkpt>
      <trkpt lat="45.860961098223925" lon="9.457188779488206">
        <ele>1236.3900000000001</ele>
        <time>2015-06-20T09:35:30Z</time>
      </trkpt>
      <trkpt lat="45.861001666635275" lon="9.457179727032781">
        <ele>1236.8699999999999</ele>
        <time>2015-06-20T09:35:37Z</time>
      </trkpt>
      <trkpt lat="45.861032847315073" lon="9.457156676799059">
        <ele>1237.8299999999999</ele>
        <time>2015-06-20T09:35:47Z</time>
      </trkpt>
      <trkpt lat="45.86099948734045" lon="9.457128429785371">
        <ele>1237.8299999999999</ele>
        <time>2015-06-20T09:36:04Z</time>
      </trkpt>
      <trkpt lat="45.861035529524088" lon="9.457129267975688">
        <ele>1237.8299999999999</ele>
        <time>2015-06-20T09:36:16Z</time>
      </trkpt>
      <trkpt lat="45.861063441261649" lon="9.457105379551649">
        <ele>1237.8299999999999</ele>
        <time>2015-06-20T09:36:19Z</time>
      </trkpt>
      <trkpt lat="45.86109277792275" lon="9.456999097019434">
        <ele>1236.3900000000001</ele>
        <time>2015-06-20T09:36:26Z</time>
      </trkpt>
      <trkpt lat="45.861118426546454" lon="9.456892143934965">
        <ele>1234.95</ele>
        <time>2015-06-20T09:36:36Z</time>
      </trkpt>
      <trkpt lat="45.861177602782845" lon="9.456874374300242">
        <ele>1235.9100000000001</ele>
        <time>2015-06-20T09:36:46Z</time>
      </trkpt>
      <trkpt lat="45.861222613602877" lon="9.456800445914269">
        <ele>1236.8699999999999</ele>
        <time>2015-06-20T09:36:54Z</time>
      </trkpt>
      <trkpt lat="45.861349264159799" lon="9.456725427880883">
        <ele>1238.8</ele>
        <time>2015-06-20T09:37:06Z</time>
      </trkpt>
      <trkpt lat="45.861372901126742" lon="9.456715201959014">
        <ele>1238.8</ele>
        <time>2015-06-20T09:37:09Z</time>
      </trkpt>
      <trkpt lat="45.86147197522223" lon="9.456588635221124">
        <ele>1240.24</ele>
        <time>2015-06-20T09:37:21Z</time>
      </trkpt>
      <trkpt lat="45.861490415409207" lon="9.45658796466887">
        <ele>1240.72</ele>
        <time>2015-06-20T09:37:23Z</time>
      </trkpt>
      <trkpt lat="45.861571300774813" lon="9.456517556682229">
        <ele>1242.6400000000001</ele>
        <time>2015-06-20T09:37:33Z</time>
      </trkpt>
      <trkpt lat="45.861624022945762" lon="9.456490818411112">
        <ele>1245.04</ele>
        <time>2015-06-20T09:37:42Z</time>
      </trkpt>
      <trkpt lat="45.861669788137078" lon="9.456477826461196">
        <ele>1246.01</ele>
        <time>2015-06-20T09:37:48Z</time>
      </trkpt>
      <trkpt lat="45.861704656854272" lon="9.45648386143148">
        <ele>1246.49</ele>
        <time>2015-06-20T09:37:51Z</time>
      </trkpt>
      <trkpt lat="45.861827451735735" lon="9.456407837569714">
        <ele>1243.5999999999999</ele>
        <time>2015-06-20T09:38:02Z</time>
      </trkpt>
      <trkpt lat="45.861853770911694" lon="9.456389900296927">
        <ele>1243.5999999999999</ele>
        <time>2015-06-20T09:38:05Z</time>
      </trkpt>
      <trkpt lat="45.861926022917032" lon="9.456407334655523">
        <ele>1244.0799999999999</ele>
        <time>2015-06-20T09:38:16Z</time>
      </trkpt>
      <trkpt lat="45.86197673343122" lon="9.456389229744673">
        <ele>1243.5999999999999</ele>
        <time>2015-06-20T09:38:21Z</time>
      </trkpt>
      <trkpt lat="45.862040771171451" lon="9.456357378512621">
        <ele>1241.6800000000001</ele>
        <time>2015-06-20T09:38:27Z</time>
      </trkpt>
      <trkpt lat="45.862152334302664" lon="9.4563412014395">
        <ele>1238.8</ele>
        <time>2015-06-20T09:38:37Z</time>
      </trkpt>
      <trkpt lat="45.862164990976453" lon="9.456345308572054">
        <ele>1238.8</ele>
        <time>2015-06-20T09:38:38Z</time>
      </trkpt>
      <trkpt lat="45.8622713573277" lon="9.456373304128647">
        <ele>1239.28</ele>
        <time>2015-06-20T09:38:48Z</time>
      </trkpt>
      <trkpt lat="45.862277476117015" lon="9.45637003518641">
        <ele>1239.76</ele>
        <time>2015-06-20T09:38:49Z</time>
      </trkpt>
      <trkpt lat="45.862310836091638" lon="9.456340782344341">
        <ele>1239.28</ele>
        <time>2015-06-20T09:38:53Z</time>
      </trkpt>
      <trkpt lat="45.862404378131032" lon="9.45634220726788">
        <ele>1239.28</ele>
        <time>2015-06-20T09:38:59Z</time>
      </trkpt>
      <trkpt lat="45.862538823857903" lon="9.456277331337333">
        <ele>1239.28</ele>
        <time>2015-06-20T09:39:11Z</time>
      </trkpt>
      <trkpt lat="45.862549133598804" lon="9.456277247518301">
        <ele>1238.8</ele>
        <time>2015-06-20T09:39:12Z</time>
      </trkpt>
      <trkpt lat="45.862650135532022" lon="9.456310104578733">
        <ele>1236.8699999999999</ele>
        <time>2015-06-20T09:39:25Z</time>
      </trkpt>
      <trkpt lat="45.862653572112322" lon="9.456307422369719">
        <ele>1236.3900000000001</ele>
        <time>2015-06-20T09:39:26Z</time>
      </trkpt>
      <trkpt lat="45.862699253484607" lon="9.456303482875228">
        <ele>1234.47</ele>
        <time>2015-06-20T09:39:29Z</time>
      </trkpt>
      <trkpt lat="45.862741749733686" lon="9.456317564472556">
        <ele>1233.99</ele>
        <time>2015-06-20T09:39:33Z</time>
      </trkpt>
      <trkpt lat="45.862750299274921" lon="9.456305159255862">
        <ele>1233.99</ele>
        <time>2015-06-20T09:39:34Z</time>
      </trkpt>
      <trkpt lat="45.8627565857023" lon="9.456222848966718">
        <ele>1233.51</ele>
        <time>2015-06-20T09:39:38Z</time>
      </trkpt>
      <trkpt lat="45.862817354500294" lon="9.456093180924654">
        <ele>1233.03</ele>
        <time>2015-06-20T09:39:45Z</time>
      </trkpt>
      <trkpt lat="45.862933360040188" lon="9.456004919484258">
        <ele>1233.99</ele>
        <time>2015-06-20T09:39:57Z</time>
      </trkpt>
      <trkpt lat="45.862961690872908" lon="9.456046326085925">
        <ele>1235.4300000000001</ele>
        <time>2015-06-20T09:40:03Z</time>
      </trkpt>
      <trkpt lat="45.862989434972405" lon="9.456076333299279">
        <ele>1237.8299999999999</ele>
        <time>2015-06-20T09:40:11Z</time>
      </trkpt>
      <trkpt lat="45.863007791340351" lon="9.456083793193102">
        <ele>1238.8</ele>
        <time>2015-06-20T09:40:15Z</time>
      </trkpt>
      <trkpt lat="45.863037714734674" lon="9.456087062135339">
        <ele>1239.28</ele>
        <time>2015-06-20T09:40:19Z</time>
      </trkpt>
      <trkpt lat="45.863078534603119" lon="9.456023275852203">
        <ele>1240.72</ele>
        <time>2015-06-20T09:40:28Z</time>
      </trkpt>
      <trkpt lat="45.863051963970065" lon="9.455947419628501">
        <ele>1239.76</ele>
        <time>2015-06-20T09:40:36Z</time>
      </trkpt>
      <trkpt lat="45.863053891807795" lon="9.455914311110973">
        <ele>1240.24</ele>
        <time>2015-06-20T09:40:38Z</time>
      </trkpt>
      <trkpt lat="45.863102925941348" lon="9.455783301964402">
        <ele>1242.6400000000001</ele>
        <time>2015-06-20T09:40:51Z</time>
      </trkpt>
      <trkpt lat="45.863097058609128" lon="9.455677857622504">
        <ele>1244.0799999999999</ele>
        <time>2015-06-20T09:41:01Z</time>
      </trkpt>
      <trkpt lat="45.863113990053535" lon="9.455578783527017">
        <ele>1246.97</ele>
        <time>2015-06-20T09:41:12Z</time>
      </trkpt>
      <trkpt lat="45.86315824650228" lon="9.455520613119006">
        <ele>1248.8900000000001</ele>
        <time>2015-06-20T09:41:22Z</time>
      </trkpt>
      <trkpt lat="45.863220524042845" lon="9.455525390803814">
        <ele>1251.77</ele>
        <time>2015-06-20T09:41:35Z</time>
      </trkpt>
      <trkpt lat="45.863322028890252" lon="9.45542111992836">
        <ele>1253.22</ele>
        <time>2015-06-20T09:41:46Z</time>
      </trkpt>
      <trkpt lat="45.86338397115469" lon="9.455338809639216">
        <ele>1255.1400000000001</ele>
        <time>2015-06-20T09:41:57Z</time>
      </trkpt>
      <trkpt lat="45.8634611684829" lon="9.455182403326035">
        <ele>1255.6199999999999</ele>
        <time>2015-06-20T09:42:08Z</time>
      </trkpt>
      <trkpt lat="45.86352126672864" lon="9.454990206286311">
        <ele>1255.1400000000001</ele>
        <time>2015-06-20T09:42:20Z</time>
      </trkpt>
      <trkpt lat="45.863551525399089" lon="9.454861795529723">
        <ele>1256.0999999999999</ele>
        <time>2015-06-20T09:42:30Z</time>
      </trkpt>
      <trkpt lat="45.863553117960691" lon="9.454627353698015">
        <ele>1256.5799999999999</ele>
        <time>2015-06-20T09:42:41Z</time>
      </trkpt>
      <trkpt lat="45.863569211214781" lon="9.454558286815882">
        <ele>1256.5799999999999</ele>
        <time>2015-06-20T09:42:45Z</time>
      </trkpt>
      <trkpt lat="45.863656383007765" lon="9.454434821382165">
        <ele>1255.6199999999999</ele>
        <time>2015-06-20T09:42:55Z</time>
      </trkpt>
      <trkpt lat="45.863744895905256" lon="9.454299537464976">
        <ele>1256.0999999999999</ele>
        <time>2015-06-20T09:43:05Z</time>
      </trkpt>
      <trkpt lat="45.863879509270191" lon="9.454139862209559">
        <ele>1258.02</ele>
        <time>2015-06-20T09:43:18Z</time>
      </trkpt>
      <trkpt lat="45.863959556445479" lon="9.454043218865991">
        <ele>1259.46</ele>
        <time>2015-06-20T09:43:29Z</time>
      </trkpt>
      <trkpt lat="45.864050751551986" lon="9.453923776745796">
        <ele>1262.3499999999999</ele>
        <time>2015-06-20T09:43:40Z</time>
      </trkpt>
      <trkpt lat="45.864133564755321" lon="9.453887483105063">
        <ele>1264.27</ele>
        <time>2015-06-20T09:43:49Z</time>
      </trkpt>
      <trkpt lat="45.864257533103228" lon="9.453766448423266">
        <ele>1265.23</ele>
        <time>2015-06-20T09:44:02Z</time>
      </trkpt>
      <trkpt lat="45.864295503124595" lon="9.453551704064012">
        <ele>1266.6700000000001</ele>
        <time>2015-06-20T09:44:16Z</time>
      </trkpt>
      <trkpt lat="45.864370772615075" lon="9.453496048226953">
        <ele>1268.5999999999999</ele>
        <time>2015-06-20T09:44:26Z</time>
      </trkpt>
      <trkpt lat="45.864420393481851" lon="9.453461263328791">
        <ele>1269.0799999999999</ele>
        <time>2015-06-20T09:44:31Z</time>
      </trkpt>
      <trkpt lat="45.864452496170998" lon="9.453421868383884">
        <ele>1269.0799999999999</ele>
        <time>2015-06-20T09:44:34Z</time>
      </trkpt>
      <trkpt lat="45.864581745117903" lon="9.453154318034649">
        <ele>1268.5999999999999</ele>
        <time>2015-06-20T09:44:50Z</time>
      </trkpt>
      <trkpt lat="45.864724069833755" lon="9.453006042167544">
        <ele>1268.5999999999999</ele>
        <time>2015-06-20T09:45:04Z</time>
      </trkpt>
      <trkpt lat="45.864809062331915" lon="9.452883834019303">
        <ele>1269.0799999999999</ele>
        <time>2015-06-20T09:45:14Z</time>
      </trkpt>
      <trkpt lat="45.864858012646437" lon="9.452756680548191">
        <ele>1267.6400000000001</ele>
        <time>2015-06-20T09:45:22Z</time>
      </trkpt>
      <trkpt lat="45.864849463105202" lon="9.452633131295443">
        <ele>1267.6400000000001</ele>
        <time>2015-06-20T09:45:28Z</time>
      </trkpt>
      <trkpt lat="45.864879554137588" lon="9.452480329200625">
        <ele>1266.6700000000001</ele>
        <time>2015-06-20T09:45:39Z</time>
      </trkpt>
      <trkpt lat="45.864869495853782" lon="9.452280588448048">
        <ele>1267.6400000000001</ele>
        <time>2015-06-20T09:45:49Z</time>
      </trkpt>
      <trkpt lat="45.8648547437042" lon="9.452133318409324">
        <ele>1270.52</ele>
        <time>2015-06-20T09:45:58Z</time>
      </trkpt>
      <trkpt lat="45.864861197769642" lon="9.451894769445062">
        <ele>1271.48</ele>
        <time>2015-06-20T09:46:11Z</time>
      </trkpt>
      <trkpt lat="45.864882990717888" lon="9.451741464436054">
        <ele>1273.4000000000001</ele>
        <time>2015-06-20T09:46:21Z</time>
      </trkpt>
      <trkpt lat="45.864929258823395" lon="9.451609198004007">
        <ele>1275.3299999999999</ele>
        <time>2015-06-20T09:46:33Z</time>
      </trkpt>
      <trkpt lat="45.865079378709197" lon="9.45159855298698">
        <ele>1275.3299999999999</ele>
        <time>2015-06-20T09:46:47Z</time>
      </trkpt>
      <trkpt lat="45.865101171657443" lon="9.451603330671787">
        <ele>1275.3299999999999</ele>
        <time>2015-06-20T09:46:50Z</time>
      </trkpt>
      <trkpt lat="45.865162359550595" lon="9.451494617387652">
        <ele>1277.73</ele>
        <time>2015-06-20T09:47:02Z</time>
      </trkpt>
      <trkpt lat="45.865169735625386" lon="9.451305354014039">
        <ele>1277.25</ele>
        <time>2015-06-20T09:47:13Z</time>
      </trkpt>
      <trkpt lat="45.865208376199007" lon="9.451069235801697">
        <ele>1278.21</ele>
        <time>2015-06-20T09:47:25Z</time>
      </trkpt>
      <trkpt lat="45.865318430587649" lon="9.450937388464809">
        <ele>1281.0899999999999</ele>
        <time>2015-06-20T09:47:36Z</time>
      </trkpt>
      <trkpt lat="45.865428987890482" lon="9.450936382636428">
        <ele>1283.02</ele>
        <time>2015-06-20T09:47:44Z</time>
      </trkpt>
      <trkpt lat="45.865544322878122" lon="9.450907465070486">
        <ele>1285.4200000000001</ele>
        <time>2015-06-20T09:47:55Z</time>
      </trkpt>
      <trkpt lat="45.865625962615013" lon="9.450805960223079">
        <ele>1287.3399999999999</ele>
        <time>2015-06-20T09:48:05Z</time>
      </trkpt>
      <trkpt lat="45.865640630945563" lon="9.45076790638268">
        <ele>1287.3399999999999</ele>
        <time>2015-06-20T09:48:07Z</time>
      </trkpt>
      <trkpt lat="45.865741968154907" lon="9.450690541416407">
        <ele>1289.27</ele>
        <time>2015-06-20T09:48:17Z</time>
      </trkpt>
      <trkpt lat="45.865825451910496" lon="9.450609488412738">
        <ele>1291.1900000000001</ele>
        <time>2015-06-20T09:48:26Z</time>
      </trkpt>
      <trkpt lat="45.865946067497134" lon="9.45049867965281">
        <ele>1292.6300000000001</ele>
        <time>2015-06-20T09:48:38Z</time>
      </trkpt>
      <trkpt lat="45.866093253716826" lon="9.450464900583029">
        <ele>1294.55</ele>
        <time>2015-06-20T09:48:50Z</time>
      </trkpt>
      <trkpt lat="45.866146562620997" lon="9.450438413769007">
        <ele>1295.03</ele>
        <time>2015-06-20T09:48:55Z</time>
      </trkpt>
      <trkpt lat="45.866257874295115" lon="9.450315199792385">
        <ele>1295.51</ele>
        <time>2015-06-20T09:49:06Z</time>
      </trkpt>
      <trkpt lat="45.866280924528837" lon="9.450235068798065">
        <ele>1295.99</ele>
        <time>2015-06-20T09:49:12Z</time>
      </trkpt>
      <trkpt lat="45.866287210956216" lon="9.450228111818433">
        <ele>1295.99</ele>
        <time>2015-06-20T09:49:21Z</time>
      </trkpt>
      <trkpt lat="45.866265585646033" lon="9.450151333585382">
        <ele>1296.48</ele>
        <time>2015-06-20T09:49:32Z</time>
      </trkpt>
      <trkpt lat="45.866215461865067" lon="9.450100539252162">
        <ele>1296.96</ele>
        <time>2015-06-20T09:49:39Z</time>
      </trkpt>
      <trkpt lat="45.866187633946538" lon="9.45012635551393">
        <ele>1296.48</ele>
        <time>2015-06-20T09:49:48Z</time>
      </trkpt>
      <trkpt lat="45.866207666695118" lon="9.450128953903914">
        <ele>1295.99</ele>
        <time>2015-06-20T09:49:56Z</time>
      </trkpt>
      <trkpt lat="45.866191824898124" lon="9.450119230896235">
        <ele>1295.99</ele>
        <time>2015-06-20T09:50:14Z</time>
      </trkpt>
      <trkpt lat="45.866178749129176" lon="9.450122499838471">
        <ele>1295.99</ele>
        <time>2015-06-20T09:50:37Z</time>
      </trkpt>
      <trkpt lat="45.866153938695788" lon="9.450132474303246">
        <ele>1295.03</ele>
        <time>2015-06-20T09:50:52Z</time>
      </trkpt>
      <trkpt lat="45.866149161010981" lon="9.450121410191059">
        <ele>1295.03</ele>
        <time>2015-06-20T09:51:17Z</time>
      </trkpt>
      <trkpt lat="45.866182940080762" lon="9.450174635276198">
        <ele>1295.51</ele>
        <time>2015-06-20T09:51:47Z</time>
      </trkpt>
      <trkpt lat="45.866149077191949" lon="9.450098611414433">
        <ele>1295.03</ele>
        <time>2015-06-20T09:52:18Z</time>
      </trkpt>
      <trkpt lat="45.866126948967576" lon="9.450115961953998">
        <ele>1295.03</ele>
        <time>2015-06-20T09:52:46Z</time>
      </trkpt>
      <trkpt lat="45.866115968674421" lon="9.450110681355">
        <ele>1295.03</ele>
        <time>2015-06-20T09:53:05Z</time>
      </trkpt>
      <trkpt lat="45.866084368899465" lon="9.45009944960475">
        <ele>1295.03</ele>
        <time>2015-06-20T09:53:29Z</time>
      </trkpt>
      <trkpt lat="45.866119991987944" lon="9.450078746303916">
        <ele>1295.03</ele>
        <time>2015-06-20T09:53:49Z</time>
      </trkpt>
      <trkpt lat="45.866132648661733" lon="9.450054187327623">
        <ele>1295.03</ele>
        <time>2015-06-20T09:54:09Z</time>
      </trkpt>
      <trkpt lat="45.866135666146874" lon="9.450077572837472">
        <ele>1295.03</ele>
        <time>2015-06-20T09:54:33Z</time>
      </trkpt>
      <trkpt lat="45.866147819906473" lon="9.450110010802746">
        <ele>1295.03</ele>
        <time>2015-06-20T09:54:59Z</time>
      </trkpt>
      <trkpt lat="45.866181515157223" lon="9.450106071308255">
        <ele>1295.03</ele>
        <time>2015-06-20T09:55:29Z</time>
      </trkpt>
      <trkpt lat="45.86611982434988" lon="9.450085619464517">
        <ele>1295.03</ele>
        <time>2015-06-20T09:56:00Z</time>
      </trkpt>
      <trkpt lat="45.866135163232684" lon="9.450094839558005">
        <ele>1295.03</ele>
        <time>2015-06-20T09:56:20Z</time>
      </trkpt>
      <trkpt lat="45.866109933704138" lon="9.450073968619108">
        <ele>1295.03</ele>
        <time>2015-06-20T09:56:32Z</time>
      </trkpt>
      <trkpt lat="45.866101635619998" lon="9.450071537867189">
        <ele>1295.03</ele>
        <time>2015-06-20T09:56:47Z</time>
      </trkpt>
      <trkpt lat="45.866093588992953" lon="9.45005695335567">
        <ele>1295.03</ele>
        <time>2015-06-20T09:57:09Z</time>
      </trkpt>
      <trkpt lat="45.866080764681101" lon="9.450019150972366">
        <ele>1295.51</ele>
        <time>2015-06-20T09:57:37Z</time>
      </trkpt>
      <trkpt lat="45.86608269251883" lon="9.450063742697239">
        <ele>1295.99</ele>
        <time>2015-06-20T09:57:55Z</time>
      </trkpt>
      <trkpt lat="45.866126362234354" lon="9.450044631958008">
        <ele>1296.96</ele>
        <time>2015-06-20T09:58:01Z</time>
      </trkpt>
      <trkpt lat="45.866106664761901" lon="9.450004901736975">
        <ele>1298.8800000000001</ele>
        <time>2015-06-20T09:58:05Z</time>
      </trkpt>
      <trkpt lat="45.866027707234025" lon="9.449938181787729">
        <ele>1298.4000000000001</ele>
        <time>2015-06-20T09:58:15Z</time>
      </trkpt>
      <trkpt lat="45.865954030305147" lon="9.449851680546999">
        <ele>1299.8399999999999</ele>
        <time>2015-06-20T09:58:27Z</time>
      </trkpt>
      <trkpt lat="45.865836683660746" lon="9.449817482382059">
        <ele>1300.8</ele>
        <time>2015-06-20T09:58:37Z</time>
      </trkpt>
      <trkpt lat="45.865660747513175" lon="9.449754785746336">
        <ele>1302.24</ele>
        <time>2015-06-20T09:58:51Z</time>
      </trkpt>
      <trkpt lat="45.865584304556251" lon="9.449712038040161">
        <ele>1303.6900000000001</ele>
        <time>2015-06-20T09:58:58Z</time>
      </trkpt>
      <trkpt lat="45.86545187048614" lon="9.449637774378061">
        <ele>1304.6500000000001</ele>
        <time>2015-06-20T09:59:10Z</time>
      </trkpt>
      <trkpt lat="45.865389844402671" lon="9.449605923146009">
        <ele>1305.1300000000001</ele>
        <time>2015-06-20T09:59:15Z</time>
      </trkpt>
      <trkpt lat="45.865264283493161" lon="9.449488241225481">
        <ele>1306.5699999999999</ele>
        <time>2015-06-20T09:59:27Z</time>
      </trkpt>
      <trkpt lat="45.865138303488493" lon="9.449355052784085">
        <ele>1307.53</ele>
        <time>2015-06-20T09:59:39Z</time>
      </trkpt>
      <trkpt lat="45.86501651443541" lon="9.449171740561724">
        <ele>1308.49</ele>
        <time>2015-06-20T09:59:52Z</time>
      </trkpt>
      <trkpt lat="45.864917105063796" lon="9.44900980219245">
        <ele>1308.97</ele>
        <time>2015-06-20T10:00:04Z</time>
      </trkpt>
      <trkpt lat="45.864822389557958" lon="9.448848785832524">
        <ele>1309.45</ele>
        <time>2015-06-20T10:00:16Z</time>
      </trkpt>
      <trkpt lat="45.864747203886509" lon="9.44869757629931">
        <ele>1310.9000000000001</ele>
        <time>2015-06-20T10:00:27Z</time>
      </trkpt>
      <trkpt lat="45.86466221138835" lon="9.448479562997818">
        <ele>1312.8199999999999</ele>
        <time>2015-06-20T10:00:40Z</time>
      </trkpt>
      <trkpt lat="45.864659696817398" lon="9.448460536077619">
        <ele>1312.8199999999999</ele>
        <time>2015-06-20T10:00:41Z</time>
      </trkpt>
      <trkpt lat="45.864610327407718" lon="9.448241936042905">
        <ele>1315.22</ele>
        <time>2015-06-20T10:00:54Z</time>
      </trkpt>
      <trkpt lat="45.864536231383681" lon="9.448063485324383">
        <ele>1317.1400000000001</ele>
        <time>2015-06-20T10:01:06Z</time>
      </trkpt>
      <trkpt lat="45.864399438723922" lon="9.447883442044258">
        <ele>1319.0699999999999</ele>
        <time>2015-06-20T10:01:20Z</time>
      </trkpt>
      <trkpt lat="45.864209672436118" lon="9.447932057082653">
        <ele>1320.51</ele>
        <time>2015-06-20T10:01:33Z</time>
      </trkpt>
      <trkpt lat="45.864043878391385" lon="9.447996849194169">
        <ele>1322.4300000000001</ele>
        <time>2015-06-20T10:01:47Z</time>
      </trkpt>
      <trkpt lat="45.863962071016431" lon="9.447893584147096">
        <ele>1324.3499999999999</ele>
        <time>2015-06-20T10:01:57Z</time>
      </trkpt>
      <trkpt lat="45.863974057137966" lon="9.447841616347432">
        <ele>1324.8299999999999</ele>
        <time>2015-06-20T10:02:00Z</time>
      </trkpt>
      <trkpt lat="45.864079669117928" lon="9.447749415412545">
        <ele>1327.24</ele>
        <time>2015-06-20T10:02:12Z</time>
      </trkpt>
      <trkpt lat="45.864139599725604" lon="9.447702895849943">
        <ele>1328.6800000000001</ele>
        <time>2015-06-20T10:02:19Z</time>
      </trkpt>
      <trkpt lat="45.864275470376015" lon="9.447623267769814">
        <ele>1330.1199999999999</ele>
        <time>2015-06-20T10:02:32Z</time>
      </trkpt>
      <trkpt lat="45.864420309662819" lon="9.447627374902368">
        <ele>1330.1199999999999</ele>
        <time>2015-06-20T10:02:44Z</time>
      </trkpt>
      <trkpt lat="45.864540422335267" lon="9.44759476929903">
        <ele>1330.5999999999999</ele>
        <time>2015-06-20T10:02:56Z</time>
      </trkpt>
      <trkpt lat="45.864529944956303" lon="9.447621339932084">
        <ele>1330.5999999999999</ele>
        <time>2015-06-20T10:03:07Z</time>
      </trkpt>
      <trkpt lat="45.864616110920906" lon="9.447771795094013">
        <ele>1330.1199999999999</ele>
        <time>2015-06-20T10:03:17Z</time>
      </trkpt>
      <trkpt lat="45.86464318446815" lon="9.447852429002523">
        <ele>1330.5999999999999</ele>
        <time>2015-06-20T10:03:35Z</time>
      </trkpt>
      <trkpt lat="45.864606639370322" lon="9.447715384885669">
        <ele>1330.1199999999999</ele>
        <time>2015-06-20T10:04:04Z</time>
      </trkpt>
      <trkpt lat="45.864646956324577" lon="9.447614382952452">
        <ele>1329.1600000000001</ele>
        <time>2015-06-20T10:04:19Z</time>
      </trkpt>
      <trkpt lat="45.864693643525243" lon="9.447589740157127">
        <ele>1329.1600000000001</ele>
        <time>2015-06-20T10:04:42Z</time>
      </trkpt>
      <trkpt lat="45.864664977416396" lon="9.447602983564138">
        <ele>1329.6400000000001</ele>
        <time>2015-06-20T10:05:00Z</time>
      </trkpt>
      <trkpt lat="45.864699929952621" lon="9.44752587005496">
        <ele>1329.6400000000001</ele>
        <time>2015-06-20T10:05:18Z</time>
      </trkpt>
      <trkpt lat="45.864675119519234" lon="9.447527965530753">
        <ele>1329.6400000000001</ele>
        <time>2015-06-20T10:05:37Z</time>
      </trkpt>
      <trkpt lat="45.864686602726579" lon="9.447570880874991">
        <ele>1330.1199999999999</ele>
        <time>2015-06-20T10:05:53Z</time>
      </trkpt>
      <trkpt lat="45.864717112854123" lon="9.447548501193523">
        <ele>1330.1199999999999</ele>
        <time>2015-06-20T10:06:15Z</time>
      </trkpt>
      <trkpt lat="45.864704875275493" lon="9.4476118683815">
        <ele>1330.1199999999999</ele>
        <time>2015-06-20T10:06:35Z</time>
      </trkpt>
      <trkpt lat="45.864721555262804" lon="9.447590578347445">
        <ele>1330.1199999999999</ele>
        <time>2015-06-20T10:06:49Z</time>
      </trkpt>
      <trkpt lat="45.864664977416396" lon="9.447600971907377">
        <ele>1330.1199999999999</ele>
        <time>2015-06-20T10:07:08Z</time>
      </trkpt>
      <trkpt lat="45.864676628261805" lon="9.44754246622324">
        <ele>1329.6400000000001</ele>
        <time>2015-06-20T10:07:29Z</time>
      </trkpt>
      <trkpt lat="45.864662630483508" lon="9.44745403714478">
        <ele>1329.6400000000001</ele>
        <time>2015-06-20T10:07:44Z</time>
      </trkpt>
      <trkpt lat="45.864722141996026" lon="9.447446409612894">
        <ele>1329.1600000000001</ele>
        <time>2015-06-20T10:07:59Z</time>
      </trkpt>
      <trkpt lat="45.864722728729248" lon="9.447358315810561">
        <ele>1329.1600000000001</ele>
        <time>2015-06-20T10:08:17Z</time>
      </trkpt>
      <trkpt lat="45.864643268287182" lon="9.447538945823908">
        <ele>1329.1600000000001</ele>
        <time>2015-06-20T10:08:35Z</time>
      </trkpt>
      <trkpt lat="45.864673610776663" lon="9.447432076558471">
        <ele>1328.6800000000001</ele>
        <time>2015-06-20T10:08:44Z</time>
      </trkpt>
      <trkpt lat="45.864669671282172" lon="9.447365272790194">
        <ele>1328.2</ele>
        <time>2015-06-20T10:08:56Z</time>
      </trkpt>
    </trkseg>
  </trk>

</gpx>